<?xml version="1.0" encoding="UTF-8" standalone="no" ?>
<gpx xmlns="http://www.topografix.com/GPX/1/1" xmlns:xsi="http://www.w3.org/2001/XMLSchema-instance" xsi:schemaLocation="http://www.topografix.com/GPX/1/1 http://www.topografix.com/GPX/1/1/gpx.xsd" version="1.1" creator="VisuGPX - https://www.visugpx.com">
  <metadata>
    <name>Casque du Lhéris</name>
    <desc><![CDATA[Randonnée VTT au casque du Lhéris]]></desc>
  </metadata>
  <trk>
    <name><![CDATA[20171031-Lheris]]></name>
    <trkseg>
      <trkpt lat="43.07001" lon="0.15683">
        <ele>503.09</ele>
        <time>2017-10-31T08:47:01Z</time>
      </trkpt>
      <trkpt lat="43.07002" lon="0.15686">
        <ele>503.16</ele>
        <time>2017-10-31T08:47:03Z</time>
      </trkpt>
      <trkpt lat="43.07" lon="0.1569">
        <ele>502.99</ele>
        <time>2017-10-31T08:47:24Z</time>
      </trkpt>
      <trkpt lat="43.07004" lon="0.15698">
        <ele>506</ele>
        <time>2017-10-31T08:49:51Z</time>
      </trkpt>
      <trkpt lat="43.07003" lon="0.15698">
        <ele>507.47</ele>
        <time>2017-10-31T08:51:28Z</time>
      </trkpt>
      <trkpt lat="43.07004" lon="0.15697">
        <ele>508.23</ele>
        <time>2017-10-31T08:52:38Z</time>
      </trkpt>
      <trkpt lat="43.07002" lon="0.15698">
        <ele>509.31</ele>
        <time>2017-10-31T08:54:09Z</time>
      </trkpt>
      <trkpt lat="43.07003" lon="0.15697">
        <ele>510.17</ele>
        <time>2017-10-31T08:55:16Z</time>
      </trkpt>
      <trkpt lat="43.07002" lon="0.15697">
        <ele>510.3</ele>
        <time>2017-10-31T08:55:19Z</time>
      </trkpt>
      <trkpt lat="43.07" lon="0.15694">
        <ele>510.09</ele>
        <time>2017-10-31T08:55:32Z</time>
      </trkpt>
      <trkpt lat="43.06998" lon="0.15693">
        <ele>510.29</ele>
        <time>2017-10-31T08:55:49Z</time>
      </trkpt>
      <trkpt lat="43.06998" lon="0.15693">
        <ele>511.15</ele>
        <time>2017-10-31T08:56:26Z</time>
      </trkpt>
      <trkpt lat="43.06999" lon="0.15691">
        <ele>511.29</ele>
        <time>2017-10-31T08:56:49Z</time>
      </trkpt>
      <trkpt lat="43.06998" lon="0.15687">
        <ele>511.12</ele>
        <time>2017-10-31T08:56:55Z</time>
      </trkpt>
      <trkpt lat="43.06997" lon="0.15659">
        <ele>511.01</ele>
        <time>2017-10-31T08:57:05Z</time>
      </trkpt>
      <trkpt lat="43.06988" lon="0.15642">
        <ele>510.44</ele>
        <time>2017-10-31T08:57:16Z</time>
      </trkpt>
      <trkpt lat="43.06982" lon="0.15633">
        <ele>510.67</ele>
        <time>2017-10-31T08:57:28Z</time>
      </trkpt>
      <trkpt lat="43.06969" lon="0.15619">
        <ele>511.01</ele>
        <time>2017-10-31T08:57:38Z</time>
      </trkpt>
      <trkpt lat="43.06962" lon="0.1561">
        <ele>511.18</ele>
        <time>2017-10-31T08:57:43Z</time>
      </trkpt>
      <trkpt lat="43.06951" lon="0.15601">
        <ele>510.99</ele>
        <time>2017-10-31T08:57:53Z</time>
      </trkpt>
      <trkpt lat="43.06943" lon="0.15606">
        <ele>511.11</ele>
        <time>2017-10-31T08:57:57Z</time>
      </trkpt>
      <trkpt lat="43.06907" lon="0.15636">
        <ele>511.24</ele>
        <time>2017-10-31T08:58:10Z</time>
      </trkpt>
      <trkpt lat="43.06866" lon="0.15644">
        <ele>511.59</ele>
        <time>2017-10-31T08:58:22Z</time>
      </trkpt>
      <trkpt lat="43.0683" lon="0.15628">
        <ele>512.41</ele>
        <time>2017-10-31T08:58:35Z</time>
      </trkpt>
      <trkpt lat="43.06794" lon="0.15604">
        <ele>512.94</ele>
        <time>2017-10-31T08:58:46Z</time>
      </trkpt>
      <trkpt lat="43.06791" lon="0.15604">
        <ele>513.12</ele>
        <time>2017-10-31T08:58:47Z</time>
      </trkpt>
      <trkpt lat="43.06768" lon="0.15579">
        <ele>513.92</ele>
        <time>2017-10-31T08:58:56Z</time>
      </trkpt>
      <trkpt lat="43.06733" lon="0.15557">
        <ele>514.13</ele>
        <time>2017-10-31T08:59:07Z</time>
      </trkpt>
      <trkpt lat="43.06675" lon="0.15556">
        <ele>515.5</ele>
        <time>2017-10-31T08:59:23Z</time>
      </trkpt>
      <trkpt lat="43.06658" lon="0.15557">
        <ele>515.81</ele>
        <time>2017-10-31T08:59:27Z</time>
      </trkpt>
      <trkpt lat="43.06614" lon="0.15544">
        <ele>516.81</ele>
        <time>2017-10-31T08:59:38Z</time>
      </trkpt>
      <trkpt lat="43.06595" lon="0.15535">
        <ele>517.71</ele>
        <time>2017-10-31T08:59:43Z</time>
      </trkpt>
      <trkpt lat="43.06531" lon="0.15502">
        <ele>518.82</ele>
        <time>2017-10-31T08:59:59Z</time>
      </trkpt>
      <trkpt lat="43.06505" lon="0.15481">
        <ele>519.33</ele>
        <time>2017-10-31T09:00:07Z</time>
      </trkpt>
      <trkpt lat="43.06471" lon="0.15474">
        <ele>520.27</ele>
        <time>2017-10-31T09:00:15Z</time>
      </trkpt>
      <trkpt lat="43.0645" lon="0.15491">
        <ele>521.85</ele>
        <time>2017-10-31T09:00:27Z</time>
      </trkpt>
      <trkpt lat="43.06443" lon="0.15495">
        <ele>522.86</ele>
        <time>2017-10-31T09:00:47Z</time>
      </trkpt>
      <trkpt lat="43.06436" lon="0.155">
        <ele>522.83</ele>
        <time>2017-10-31T09:00:49Z</time>
      </trkpt>
      <trkpt lat="43.06382" lon="0.15526">
        <ele>522.76</ele>
        <time>2017-10-31T09:01:04Z</time>
      </trkpt>
      <trkpt lat="43.0636" lon="0.15541">
        <ele>522.72</ele>
        <time>2017-10-31T09:01:10Z</time>
      </trkpt>
      <trkpt lat="43.06341" lon="0.1555">
        <ele>522.42</ele>
        <time>2017-10-31T09:01:14Z</time>
      </trkpt>
      <trkpt lat="43.06323" lon="0.15559">
        <ele>522.42</ele>
        <time>2017-10-31T09:01:18Z</time>
      </trkpt>
      <trkpt lat="43.06311" lon="0.15568">
        <ele>522.97</ele>
        <time>2017-10-31T09:01:21Z</time>
      </trkpt>
      <trkpt lat="43.06237" lon="0.156">
        <ele>524.5</ele>
        <time>2017-10-31T09:01:39Z</time>
      </trkpt>
      <trkpt lat="43.06175" lon="0.1561">
        <ele>525.74</ele>
        <time>2017-10-31T09:01:54Z</time>
      </trkpt>
      <trkpt lat="43.06124" lon="0.15614">
        <ele>527.57</ele>
        <time>2017-10-31T09:02:08Z</time>
      </trkpt>
      <trkpt lat="43.06077" lon="0.15616">
        <ele>528.31</ele>
        <time>2017-10-31T09:02:21Z</time>
      </trkpt>
      <trkpt lat="43.06037" lon="0.15622">
        <ele>529.98</ele>
        <time>2017-10-31T09:02:33Z</time>
      </trkpt>
      <trkpt lat="43.06029" lon="0.15662">
        <ele>530.76</ele>
        <time>2017-10-31T09:02:43Z</time>
      </trkpt>
      <trkpt lat="43.06035" lon="0.1573">
        <ele>530.62</ele>
        <time>2017-10-31T09:02:54Z</time>
      </trkpt>
      <trkpt lat="43.06036" lon="0.15736">
        <ele>530.69</ele>
        <time>2017-10-31T09:02:55Z</time>
      </trkpt>
      <trkpt lat="43.06046" lon="0.15828">
        <ele>531.85</ele>
        <time>2017-10-31T09:03:11Z</time>
      </trkpt>
      <trkpt lat="43.06049" lon="0.15864">
        <ele>533.27</ele>
        <time>2017-10-31T09:03:21Z</time>
      </trkpt>
      <trkpt lat="43.0605" lon="0.15868">
        <ele>534.79</ele>
        <time>2017-10-31T09:03:37Z</time>
      </trkpt>
      <trkpt lat="43.0605" lon="0.1587">
        <ele>534.81</ele>
        <time>2017-10-31T09:03:44Z</time>
      </trkpt>
      <trkpt lat="43.06054" lon="0.15908">
        <ele>534.67</ele>
        <time>2017-10-31T09:03:55Z</time>
      </trkpt>
      <trkpt lat="43.06069" lon="0.15969">
        <ele>534.21</ele>
        <time>2017-10-31T09:04:08Z</time>
      </trkpt>
      <trkpt lat="43.06076" lon="0.16013">
        <ele>534.49</ele>
        <time>2017-10-31T09:04:18Z</time>
      </trkpt>
      <trkpt lat="43.06096" lon="0.16069">
        <ele>534.55</ele>
        <time>2017-10-31T09:04:29Z</time>
      </trkpt>
      <trkpt lat="43.06098" lon="0.16074">
        <ele>534.54</ele>
        <time>2017-10-31T09:04:30Z</time>
      </trkpt>
      <trkpt lat="43.06108" lon="0.16093">
        <ele>534.48</ele>
        <time>2017-10-31T09:04:34Z</time>
      </trkpt>
      <trkpt lat="43.06122" lon="0.16127">
        <ele>534.25</ele>
        <time>2017-10-31T09:04:41Z</time>
      </trkpt>
      <trkpt lat="43.06137" lon="0.16128">
        <ele>535.18</ele>
        <time>2017-10-31T09:04:47Z</time>
      </trkpt>
      <trkpt lat="43.06158" lon="0.16145">
        <ele>538.08</ele>
        <time>2017-10-31T09:04:58Z</time>
      </trkpt>
      <trkpt lat="43.0617" lon="0.16156">
        <ele>539.81</ele>
        <time>2017-10-31T09:05:08Z</time>
      </trkpt>
      <trkpt lat="43.06174" lon="0.16162">
        <ele>542.67</ele>
        <time>2017-10-31T09:05:23Z</time>
      </trkpt>
      <trkpt lat="43.06177" lon="0.16169">
        <ele>542.56</ele>
        <time>2017-10-31T09:05:29Z</time>
      </trkpt>
      <trkpt lat="43.06181" lon="0.16187">
        <ele>541.71</ele>
        <time>2017-10-31T09:05:35Z</time>
      </trkpt>
      <trkpt lat="43.06183" lon="0.16194">
        <ele>541.32</ele>
        <time>2017-10-31T09:05:38Z</time>
      </trkpt>
      <trkpt lat="43.06182" lon="0.1622">
        <ele>541.96</ele>
        <time>2017-10-31T09:05:48Z</time>
      </trkpt>
      <trkpt lat="43.06178" lon="0.16242">
        <ele>544.2</ele>
        <time>2017-10-31T09:05:57Z</time>
      </trkpt>
      <trkpt lat="43.06167" lon="0.16261">
        <ele>545.89</ele>
        <time>2017-10-31T09:06:05Z</time>
      </trkpt>
      <trkpt lat="43.06165" lon="0.16267">
        <ele>546.33</ele>
        <time>2017-10-31T09:06:07Z</time>
      </trkpt>
      <trkpt lat="43.06149" lon="0.16293">
        <ele>548.84</ele>
        <time>2017-10-31T09:06:20Z</time>
      </trkpt>
      <trkpt lat="43.0614" lon="0.16317">
        <ele>548.83</ele>
        <time>2017-10-31T09:06:28Z</time>
      </trkpt>
      <trkpt lat="43.06137" lon="0.16322">
        <ele>548.73</ele>
        <time>2017-10-31T09:06:30Z</time>
      </trkpt>
      <trkpt lat="43.06134" lon="0.16328">
        <ele>548.92</ele>
        <time>2017-10-31T09:06:33Z</time>
      </trkpt>
      <trkpt lat="43.06131" lon="0.16334">
        <ele>549.25</ele>
        <time>2017-10-31T09:06:36Z</time>
      </trkpt>
      <trkpt lat="43.06118" lon="0.16371">
        <ele>551.22</ele>
        <time>2017-10-31T09:06:50Z</time>
      </trkpt>
      <trkpt lat="43.06118" lon="0.16382">
        <ele>551.83</ele>
        <time>2017-10-31T09:06:54Z</time>
      </trkpt>
      <trkpt lat="43.06113" lon="0.16402">
        <ele>552.77</ele>
        <time>2017-10-31T09:07:02Z</time>
      </trkpt>
      <trkpt lat="43.06112" lon="0.16407">
        <ele>553.05</ele>
        <time>2017-10-31T09:07:05Z</time>
      </trkpt>
      <trkpt lat="43.06097" lon="0.16434">
        <ele>555.43</ele>
        <time>2017-10-31T09:07:34Z</time>
      </trkpt>
      <trkpt lat="43.06087" lon="0.16444">
        <ele>555.9</ele>
        <time>2017-10-31T09:07:41Z</time>
      </trkpt>
      <trkpt lat="43.06086" lon="0.16446">
        <ele>555.98</ele>
        <time>2017-10-31T09:07:42Z</time>
      </trkpt>
      <trkpt lat="43.06073" lon="0.16464">
        <ele>558.08</ele>
        <time>2017-10-31T09:07:53Z</time>
      </trkpt>
      <trkpt lat="43.06064" lon="0.1648">
        <ele>559.97</ele>
        <time>2017-10-31T09:08:02Z</time>
      </trkpt>
      <trkpt lat="43.06051" lon="0.16498">
        <ele>561.75</ele>
        <time>2017-10-31T09:08:12Z</time>
      </trkpt>
      <trkpt lat="43.06043" lon="0.16523">
        <ele>564.19</ele>
        <time>2017-10-31T09:08:22Z</time>
      </trkpt>
      <trkpt lat="43.06039" lon="0.16532">
        <ele>565.64</ele>
        <time>2017-10-31T09:08:27Z</time>
      </trkpt>
      <trkpt lat="43.06036" lon="0.16536">
        <ele>566.13</ele>
        <time>2017-10-31T09:08:30Z</time>
      </trkpt>
      <trkpt lat="43.06033" lon="0.16546">
        <ele>566.96</ele>
        <time>2017-10-31T09:08:36Z</time>
      </trkpt>
      <trkpt lat="43.06027" lon="0.16557">
        <ele>568.44</ele>
        <time>2017-10-31T09:08:43Z</time>
      </trkpt>
      <trkpt lat="43.06015" lon="0.16576">
        <ele>571.8</ele>
        <time>2017-10-31T09:08:54Z</time>
      </trkpt>
      <trkpt lat="43.06007" lon="0.16588">
        <ele>573.12</ele>
        <time>2017-10-31T09:09:04Z</time>
      </trkpt>
      <trkpt lat="43.06005" lon="0.16592">
        <ele>573.16</ele>
        <time>2017-10-31T09:09:06Z</time>
      </trkpt>
      <trkpt lat="43.06" lon="0.16595">
        <ele>573.18</ele>
        <time>2017-10-31T09:09:08Z</time>
      </trkpt>
      <trkpt lat="43.05992" lon="0.16615">
        <ele>573.38</ele>
        <time>2017-10-31T09:09:14Z</time>
      </trkpt>
      <trkpt lat="43.05979" lon="0.16646">
        <ele>573.79</ele>
        <time>2017-10-31T09:09:23Z</time>
      </trkpt>
      <trkpt lat="43.05972" lon="0.16661">
        <ele>573.15</ele>
        <time>2017-10-31T09:09:35Z</time>
      </trkpt>
      <trkpt lat="43.05971" lon="0.16665">
        <ele>573.09</ele>
        <time>2017-10-31T09:10:02Z</time>
      </trkpt>
      <trkpt lat="43.05971" lon="0.16667">
        <ele>572.48</ele>
        <time>2017-10-31T09:10:16Z</time>
      </trkpt>
      <trkpt lat="43.05969" lon="0.1667">
        <ele>572.11</ele>
        <time>2017-10-31T09:10:34Z</time>
      </trkpt>
      <trkpt lat="43.05973" lon="0.16672">
        <ele>571.94</ele>
        <time>2017-10-31T09:10:56Z</time>
      </trkpt>
      <trkpt lat="43.05975" lon="0.16676">
        <ele>572.71</ele>
        <time>2017-10-31T09:11:17Z</time>
      </trkpt>
      <trkpt lat="43.05975" lon="0.16682">
        <ele>573</ele>
        <time>2017-10-31T09:11:37Z</time>
      </trkpt>
      <trkpt lat="43.05975" lon="0.16686">
        <ele>573.59</ele>
        <time>2017-10-31T09:12:05Z</time>
      </trkpt>
      <trkpt lat="43.05974" lon="0.16686">
        <ele>573.92</ele>
        <time>2017-10-31T09:13:01Z</time>
      </trkpt>
      <trkpt lat="43.05973" lon="0.16687">
        <ele>575.19</ele>
        <time>2017-10-31T09:13:50Z</time>
      </trkpt>
      <trkpt lat="43.05973" lon="0.16682">
        <ele>575.75</ele>
        <time>2017-10-31T09:14:37Z</time>
      </trkpt>
      <trkpt lat="43.05972" lon="0.16681">
        <ele>576.16</ele>
        <time>2017-10-31T09:15:35Z</time>
      </trkpt>
      <trkpt lat="43.05976" lon="0.16682">
        <ele>577.06</ele>
        <time>2017-10-31T09:16:29Z</time>
      </trkpt>
      <trkpt lat="43.05975" lon="0.16678">
        <ele>578.55</ele>
        <time>2017-10-31T09:17:13Z</time>
      </trkpt>
      <trkpt lat="43.05977" lon="0.16676">
        <ele>578.58</ele>
        <time>2017-10-31T09:17:33Z</time>
      </trkpt>
      <trkpt lat="43.05978" lon="0.16674">
        <ele>578.59</ele>
        <time>2017-10-31T09:17:54Z</time>
      </trkpt>
      <trkpt lat="43.05978" lon="0.16676">
        <ele>579.03</ele>
        <time>2017-10-31T09:18:05Z</time>
      </trkpt>
      <trkpt lat="43.05972" lon="0.16674">
        <ele>579.11</ele>
        <time>2017-10-31T09:18:30Z</time>
      </trkpt>
      <trkpt lat="43.05976" lon="0.16672">
        <ele>579.93</ele>
        <time>2017-10-31T09:18:55Z</time>
      </trkpt>
      <trkpt lat="43.05977" lon="0.16673">
        <ele>580</ele>
        <time>2017-10-31T09:19:00Z</time>
      </trkpt>
      <trkpt lat="43.06001" lon="0.16703">
        <ele>579.67</ele>
        <time>2017-10-31T09:19:10Z</time>
      </trkpt>
      <trkpt lat="43.0601" lon="0.16706">
        <ele>579.06</ele>
        <time>2017-10-31T09:19:13Z</time>
      </trkpt>
      <trkpt lat="43.06032" lon="0.16687">
        <ele>579.19</ele>
        <time>2017-10-31T09:19:24Z</time>
      </trkpt>
      <trkpt lat="43.06055" lon="0.16657">
        <ele>580.45</ele>
        <time>2017-10-31T09:19:37Z</time>
      </trkpt>
      <trkpt lat="43.06083" lon="0.16624">
        <ele>580.27</ele>
        <time>2017-10-31T09:19:49Z</time>
      </trkpt>
      <trkpt lat="43.06112" lon="0.16598">
        <ele>581.37</ele>
        <time>2017-10-31T09:20:02Z</time>
      </trkpt>
      <trkpt lat="43.06142" lon="0.16577">
        <ele>583.53</ele>
        <time>2017-10-31T09:20:16Z</time>
      </trkpt>
      <trkpt lat="43.06171" lon="0.16563">
        <ele>585.43</ele>
        <time>2017-10-31T09:20:30Z</time>
      </trkpt>
      <trkpt lat="43.06193" lon="0.16548">
        <ele>586.68</ele>
        <time>2017-10-31T09:20:42Z</time>
      </trkpt>
      <trkpt lat="43.0621" lon="0.16534">
        <ele>588.44</ele>
        <time>2017-10-31T09:20:54Z</time>
      </trkpt>
      <trkpt lat="43.06219" lon="0.16526">
        <ele>589.64</ele>
        <time>2017-10-31T09:21:02Z</time>
      </trkpt>
      <trkpt lat="43.0622" lon="0.16525">
        <ele>589.8</ele>
        <time>2017-10-31T09:21:03Z</time>
      </trkpt>
      <trkpt lat="43.06236" lon="0.16507">
        <ele>591.76</ele>
        <time>2017-10-31T09:21:12Z</time>
      </trkpt>
      <trkpt lat="43.06249" lon="0.16498">
        <ele>594.43</ele>
        <time>2017-10-31T09:21:21Z</time>
      </trkpt>
      <trkpt lat="43.06263" lon="0.16492">
        <ele>596.62</ele>
        <time>2017-10-31T09:21:31Z</time>
      </trkpt>
      <trkpt lat="43.06265" lon="0.16491">
        <ele>597.11</ele>
        <time>2017-10-31T09:21:33Z</time>
      </trkpt>
      <trkpt lat="43.06265" lon="0.1649">
        <ele>597.98</ele>
        <time>2017-10-31T09:21:37Z</time>
      </trkpt>
      <trkpt lat="43.06261" lon="0.16501">
        <ele>599.32</ele>
        <time>2017-10-31T09:21:47Z</time>
      </trkpt>
      <trkpt lat="43.06248" lon="0.16529">
        <ele>600.68</ele>
        <time>2017-10-31T09:22:00Z</time>
      </trkpt>
      <trkpt lat="43.06234" lon="0.16566">
        <ele>602.83</ele>
        <time>2017-10-31T09:22:15Z</time>
      </trkpt>
      <trkpt lat="43.0622" lon="0.16604">
        <ele>605.22</ele>
        <time>2017-10-31T09:22:30Z</time>
      </trkpt>
      <trkpt lat="43.06206" lon="0.16637">
        <ele>607.19</ele>
        <time>2017-10-31T09:22:44Z</time>
      </trkpt>
      <trkpt lat="43.06192" lon="0.16668">
        <ele>609.25</ele>
        <time>2017-10-31T09:22:57Z</time>
      </trkpt>
      <trkpt lat="43.06188" lon="0.16676">
        <ele>609.71</ele>
        <time>2017-10-31T09:23:00Z</time>
      </trkpt>
      <trkpt lat="43.06181" lon="0.16698">
        <ele>611.3</ele>
        <time>2017-10-31T09:23:09Z</time>
      </trkpt>
      <trkpt lat="43.06176" lon="0.16713">
        <ele>612.1</ele>
        <time>2017-10-31T09:23:16Z</time>
      </trkpt>
      <trkpt lat="43.06156" lon="0.16755">
        <ele>614.67</ele>
        <time>2017-10-31T09:23:33Z</time>
      </trkpt>
      <trkpt lat="43.06138" lon="0.16784">
        <ele>616.18</ele>
        <time>2017-10-31T09:23:47Z</time>
      </trkpt>
      <trkpt lat="43.06125" lon="0.16824">
        <ele>618.26</ele>
        <time>2017-10-31T09:24:03Z</time>
      </trkpt>
      <trkpt lat="43.06119" lon="0.16858">
        <ele>620.29</ele>
        <time>2017-10-31T09:24:17Z</time>
      </trkpt>
      <trkpt lat="43.06115" lon="0.16875">
        <ele>620.97</ele>
        <time>2017-10-31T09:24:23Z</time>
      </trkpt>
      <trkpt lat="43.06116" lon="0.16899">
        <ele>622.22</ele>
        <time>2017-10-31T09:24:31Z</time>
      </trkpt>
      <trkpt lat="43.06117" lon="0.16914">
        <ele>622.84</ele>
        <time>2017-10-31T09:24:37Z</time>
      </trkpt>
      <trkpt lat="43.0612" lon="0.16937">
        <ele>624.64</ele>
        <time>2017-10-31T09:24:47Z</time>
      </trkpt>
      <trkpt lat="43.06122" lon="0.16947">
        <ele>625.6</ele>
        <time>2017-10-31T09:24:52Z</time>
      </trkpt>
      <trkpt lat="43.06122" lon="0.16959">
        <ele>626.7</ele>
        <time>2017-10-31T09:24:57Z</time>
      </trkpt>
      <trkpt lat="43.0611" lon="0.16974">
        <ele>627.09</ele>
        <time>2017-10-31T09:25:02Z</time>
      </trkpt>
      <trkpt lat="43.06082" lon="0.16988">
        <ele>629.41</ele>
        <time>2017-10-31T09:25:16Z</time>
      </trkpt>
      <trkpt lat="43.06067" lon="0.1701">
        <ele>631.07</ele>
        <time>2017-10-31T09:25:27Z</time>
      </trkpt>
      <trkpt lat="43.06063" lon="0.1702">
        <ele>631.76</ele>
        <time>2017-10-31T09:25:31Z</time>
      </trkpt>
      <trkpt lat="43.06049" lon="0.17042">
        <ele>633.54</ele>
        <time>2017-10-31T09:25:41Z</time>
      </trkpt>
      <trkpt lat="43.06044" lon="0.17043">
        <ele>633.91</ele>
        <time>2017-10-31T09:25:43Z</time>
      </trkpt>
      <trkpt lat="43.06036" lon="0.17042">
        <ele>634.93</ele>
        <time>2017-10-31T09:25:47Z</time>
      </trkpt>
      <trkpt lat="43.06028" lon="0.17037">
        <ele>635.79</ele>
        <time>2017-10-31T09:25:52Z</time>
      </trkpt>
      <trkpt lat="43.06014" lon="0.17019">
        <ele>636.64</ele>
        <time>2017-10-31T09:26:01Z</time>
      </trkpt>
      <trkpt lat="43.05997" lon="0.16998">
        <ele>638.08</ele>
        <time>2017-10-31T09:26:10Z</time>
      </trkpt>
      <trkpt lat="43.05978" lon="0.17021">
        <ele>639.35</ele>
        <time>2017-10-31T09:26:23Z</time>
      </trkpt>
      <trkpt lat="43.05974" lon="0.17055">
        <ele>640.98</ele>
        <time>2017-10-31T09:26:35Z</time>
      </trkpt>
      <trkpt lat="43.05967" lon="0.17097">
        <ele>643.16</ele>
        <time>2017-10-31T09:26:49Z</time>
      </trkpt>
      <trkpt lat="43.05956" lon="0.17121">
        <ele>645.34</ele>
        <time>2017-10-31T09:27:00Z</time>
      </trkpt>
      <trkpt lat="43.05932" lon="0.17133">
        <ele>647.92</ele>
        <time>2017-10-31T09:27:13Z</time>
      </trkpt>
      <trkpt lat="43.05911" lon="0.17159">
        <ele>650.26</ele>
        <time>2017-10-31T09:27:27Z</time>
      </trkpt>
      <trkpt lat="43.05893" lon="0.17188">
        <ele>652.89</ele>
        <time>2017-10-31T09:27:40Z</time>
      </trkpt>
      <trkpt lat="43.05881" lon="0.17217">
        <ele>654.76</ele>
        <time>2017-10-31T09:27:52Z</time>
      </trkpt>
      <trkpt lat="43.05868" lon="0.17251">
        <ele>656.77</ele>
        <time>2017-10-31T09:28:04Z</time>
      </trkpt>
      <trkpt lat="43.05839" lon="0.17278">
        <ele>658.78</ele>
        <time>2017-10-31T09:28:20Z</time>
      </trkpt>
      <trkpt lat="43.05813" lon="0.17258">
        <ele>659.67</ele>
        <time>2017-10-31T09:28:32Z</time>
      </trkpt>
      <trkpt lat="43.05796" lon="0.17226">
        <ele>660.75</ele>
        <time>2017-10-31T09:28:44Z</time>
      </trkpt>
      <trkpt lat="43.05769" lon="0.1719">
        <ele>662.82</ele>
        <time>2017-10-31T09:29:00Z</time>
      </trkpt>
      <trkpt lat="43.05742" lon="0.17217">
        <ele>664.95</ele>
        <time>2017-10-31T09:29:14Z</time>
      </trkpt>
      <trkpt lat="43.05716" lon="0.17251">
        <ele>667.91</ele>
        <time>2017-10-31T09:29:31Z</time>
      </trkpt>
      <trkpt lat="43.05704" lon="0.17279">
        <ele>670.41</ele>
        <time>2017-10-31T09:29:44Z</time>
      </trkpt>
      <trkpt lat="43.05699" lon="0.17295">
        <ele>671.6</ele>
        <time>2017-10-31T09:29:50Z</time>
      </trkpt>
      <trkpt lat="43.05699" lon="0.17305">
        <ele>672.45</ele>
        <time>2017-10-31T09:29:54Z</time>
      </trkpt>
      <trkpt lat="43.057" lon="0.17322">
        <ele>673.49</ele>
        <time>2017-10-31T09:30:01Z</time>
      </trkpt>
      <trkpt lat="43.05701" lon="0.17336">
        <ele>675.11</ele>
        <time>2017-10-31T09:30:07Z</time>
      </trkpt>
      <trkpt lat="43.05701" lon="0.17341">
        <ele>675.46</ele>
        <time>2017-10-31T09:30:09Z</time>
      </trkpt>
      <trkpt lat="43.05702" lon="0.17345">
        <ele>675.82</ele>
        <time>2017-10-31T09:30:11Z</time>
      </trkpt>
      <trkpt lat="43.05702" lon="0.17354">
        <ele>676.53</ele>
        <time>2017-10-31T09:30:15Z</time>
      </trkpt>
      <trkpt lat="43.05697" lon="0.17382">
        <ele>678.47</ele>
        <time>2017-10-31T09:30:27Z</time>
      </trkpt>
      <trkpt lat="43.05695" lon="0.17393">
        <ele>679.6</ele>
        <time>2017-10-31T09:30:32Z</time>
      </trkpt>
      <trkpt lat="43.05694" lon="0.17402">
        <ele>680.43</ele>
        <time>2017-10-31T09:30:37Z</time>
      </trkpt>
      <trkpt lat="43.05698" lon="0.17419">
        <ele>682.21</ele>
        <time>2017-10-31T09:30:46Z</time>
      </trkpt>
      <trkpt lat="43.05711" lon="0.17447">
        <ele>684.21</ele>
        <time>2017-10-31T09:30:59Z</time>
      </trkpt>
      <trkpt lat="43.05723" lon="0.17471">
        <ele>685.88</ele>
        <time>2017-10-31T09:31:11Z</time>
      </trkpt>
      <trkpt lat="43.05729" lon="0.17485">
        <ele>687.11</ele>
        <time>2017-10-31T09:31:18Z</time>
      </trkpt>
      <trkpt lat="43.0573" lon="0.17488">
        <ele>687.55</ele>
        <time>2017-10-31T09:31:20Z</time>
      </trkpt>
      <trkpt lat="43.05732" lon="0.17506">
        <ele>689.23</ele>
        <time>2017-10-31T09:31:28Z</time>
      </trkpt>
      <trkpt lat="43.05732" lon="0.17524">
        <ele>690.91</ele>
        <time>2017-10-31T09:31:36Z</time>
      </trkpt>
      <trkpt lat="43.05732" lon="0.1755">
        <ele>692.32</ele>
        <time>2017-10-31T09:31:46Z</time>
      </trkpt>
      <trkpt lat="43.05731" lon="0.17564">
        <ele>693.07</ele>
        <time>2017-10-31T09:31:51Z</time>
      </trkpt>
      <trkpt lat="43.0572" lon="0.17585">
        <ele>694.65</ele>
        <time>2017-10-31T09:32:01Z</time>
      </trkpt>
      <trkpt lat="43.05718" lon="0.17609">
        <ele>696.6</ele>
        <time>2017-10-31T09:32:14Z</time>
      </trkpt>
      <trkpt lat="43.0572" lon="0.1761">
        <ele>696.78</ele>
        <time>2017-10-31T09:32:15Z</time>
      </trkpt>
      <trkpt lat="43.05725" lon="0.17613">
        <ele>697.37</ele>
        <time>2017-10-31T09:32:18Z</time>
      </trkpt>
      <trkpt lat="43.05745" lon="0.17591">
        <ele>699.27</ele>
        <time>2017-10-31T09:32:31Z</time>
      </trkpt>
      <trkpt lat="43.05748" lon="0.17588">
        <ele>699.54</ele>
        <time>2017-10-31T09:32:33Z</time>
      </trkpt>
      <trkpt lat="43.05761" lon="0.17572">
        <ele>701.08</ele>
        <time>2017-10-31T09:32:43Z</time>
      </trkpt>
      <trkpt lat="43.05772" lon="0.17566">
        <ele>702.46</ele>
        <time>2017-10-31T09:32:51Z</time>
      </trkpt>
      <trkpt lat="43.05776" lon="0.17569">
        <ele>703.29</ele>
        <time>2017-10-31T09:32:55Z</time>
      </trkpt>
      <trkpt lat="43.05776" lon="0.17574">
        <ele>703.87</ele>
        <time>2017-10-31T09:32:58Z</time>
      </trkpt>
      <trkpt lat="43.05774" lon="0.17592">
        <ele>705.94</ele>
        <time>2017-10-31T09:33:06Z</time>
      </trkpt>
      <trkpt lat="43.0577" lon="0.1761">
        <ele>707.63</ele>
        <time>2017-10-31T09:33:16Z</time>
      </trkpt>
      <trkpt lat="43.05768" lon="0.17631">
        <ele>709.68</ele>
        <time>2017-10-31T09:33:26Z</time>
      </trkpt>
      <trkpt lat="43.05768" lon="0.17636">
        <ele>710.35</ele>
        <time>2017-10-31T09:33:29Z</time>
      </trkpt>
      <trkpt lat="43.05764" lon="0.1765">
        <ele>712.11</ele>
        <time>2017-10-31T09:33:38Z</time>
      </trkpt>
      <trkpt lat="43.05758" lon="0.17667">
        <ele>712.86</ele>
        <time>2017-10-31T09:33:45Z</time>
      </trkpt>
      <trkpt lat="43.05757" lon="0.1767">
        <ele>713.01</ele>
        <time>2017-10-31T09:33:47Z</time>
      </trkpt>
      <trkpt lat="43.05752" lon="0.17711">
        <ele>715.24</ele>
        <time>2017-10-31T09:34:00Z</time>
      </trkpt>
      <trkpt lat="43.05748" lon="0.1774">
        <ele>718.24</ele>
        <time>2017-10-31T09:34:10Z</time>
      </trkpt>
      <trkpt lat="43.05747" lon="0.17775">
        <ele>721.44</ele>
        <time>2017-10-31T09:34:26Z</time>
      </trkpt>
      <trkpt lat="43.05744" lon="0.17815">
        <ele>724.56</ele>
        <time>2017-10-31T09:34:43Z</time>
      </trkpt>
      <trkpt lat="43.05742" lon="0.17841">
        <ele>726.87</ele>
        <time>2017-10-31T09:34:54Z</time>
      </trkpt>
      <trkpt lat="43.05733" lon="0.17856">
        <ele>728.96</ele>
        <time>2017-10-31T09:35:08Z</time>
      </trkpt>
      <trkpt lat="43.05732" lon="0.17858">
        <ele>729.02</ele>
        <time>2017-10-31T09:35:27Z</time>
      </trkpt>
      <trkpt lat="43.05729" lon="0.1786">
        <ele>729.27</ele>
        <time>2017-10-31T09:35:38Z</time>
      </trkpt>
      <trkpt lat="43.05717" lon="0.17884">
        <ele>730.85</ele>
        <time>2017-10-31T09:35:53Z</time>
      </trkpt>
      <trkpt lat="43.0571" lon="0.17896">
        <ele>732.02</ele>
        <time>2017-10-31T09:36:00Z</time>
      </trkpt>
      <trkpt lat="43.05692" lon="0.17913">
        <ele>734.74</ele>
        <time>2017-10-31T09:36:13Z</time>
      </trkpt>
      <trkpt lat="43.05682" lon="0.17926">
        <ele>737.51</ele>
        <time>2017-10-31T09:36:21Z</time>
      </trkpt>
      <trkpt lat="43.05674" lon="0.17947">
        <ele>740.83</ele>
        <time>2017-10-31T09:36:34Z</time>
      </trkpt>
      <trkpt lat="43.05673" lon="0.17951">
        <ele>741.38</ele>
        <time>2017-10-31T09:36:37Z</time>
      </trkpt>
      <trkpt lat="43.05669" lon="0.17961">
        <ele>742.37</ele>
        <time>2017-10-31T09:36:43Z</time>
      </trkpt>
      <trkpt lat="43.05664" lon="0.17969">
        <ele>743.14</ele>
        <time>2017-10-31T09:36:48Z</time>
      </trkpt>
      <trkpt lat="43.0566" lon="0.17985">
        <ele>745.68</ele>
        <time>2017-10-31T09:36:56Z</time>
      </trkpt>
      <trkpt lat="43.0566" lon="0.1799">
        <ele>746.4</ele>
        <time>2017-10-31T09:36:59Z</time>
      </trkpt>
      <trkpt lat="43.05663" lon="0.17996">
        <ele>746.9</ele>
        <time>2017-10-31T09:37:02Z</time>
      </trkpt>
      <trkpt lat="43.05665" lon="0.18002">
        <ele>747.3</ele>
        <time>2017-10-31T09:37:05Z</time>
      </trkpt>
      <trkpt lat="43.0566" lon="0.1802">
        <ele>751.25</ele>
        <time>2017-10-31T09:37:14Z</time>
      </trkpt>
      <trkpt lat="43.05652" lon="0.18035">
        <ele>754.01</ele>
        <time>2017-10-31T09:37:22Z</time>
      </trkpt>
      <trkpt lat="43.0565" lon="0.18041">
        <ele>755.15</ele>
        <time>2017-10-31T09:37:25Z</time>
      </trkpt>
      <trkpt lat="43.05648" lon="0.18051">
        <ele>757.6</ele>
        <time>2017-10-31T09:37:30Z</time>
      </trkpt>
      <trkpt lat="43.05648" lon="0.18068">
        <ele>762.02</ele>
        <time>2017-10-31T09:37:39Z</time>
      </trkpt>
      <trkpt lat="43.05641" lon="0.18074">
        <ele>764.44</ele>
        <time>2017-10-31T09:38:03Z</time>
      </trkpt>
      <trkpt lat="43.05641" lon="0.18073">
        <ele>764.17</ele>
        <time>2017-10-31T09:38:05Z</time>
      </trkpt>
      <trkpt lat="43.05643" lon="0.1806">
        <ele>761.58</ele>
        <time>2017-10-31T09:38:17Z</time>
      </trkpt>
      <trkpt lat="43.05645" lon="0.18054">
        <ele>759.92</ele>
        <time>2017-10-31T09:38:26Z</time>
      </trkpt>
      <trkpt lat="43.05638" lon="0.18054">
        <ele>758.46</ele>
        <time>2017-10-31T09:38:36Z</time>
      </trkpt>
      <trkpt lat="43.05635" lon="0.18059">
        <ele>758.22</ele>
        <time>2017-10-31T09:38:42Z</time>
      </trkpt>
      <trkpt lat="43.05626" lon="0.18069">
        <ele>759.23</ele>
        <time>2017-10-31T09:38:51Z</time>
      </trkpt>
      <trkpt lat="43.05621" lon="0.18077">
        <ele>760.54</ele>
        <time>2017-10-31T09:38:58Z</time>
      </trkpt>
      <trkpt lat="43.05616" lon="0.18086">
        <ele>762.08</ele>
        <time>2017-10-31T09:39:04Z</time>
      </trkpt>
      <trkpt lat="43.05606" lon="0.18109">
        <ele>765.32</ele>
        <time>2017-10-31T09:39:20Z</time>
      </trkpt>
      <trkpt lat="43.05594" lon="0.18142">
        <ele>767.16</ele>
        <time>2017-10-31T09:39:36Z</time>
      </trkpt>
      <trkpt lat="43.05593" lon="0.18152">
        <ele>768.13</ele>
        <time>2017-10-31T09:39:44Z</time>
      </trkpt>
      <trkpt lat="43.05585" lon="0.18171">
        <ele>769.51</ele>
        <time>2017-10-31T09:39:53Z</time>
      </trkpt>
      <trkpt lat="43.05571" lon="0.18208">
        <ele>770.87</ele>
        <time>2017-10-31T09:40:08Z</time>
      </trkpt>
      <trkpt lat="43.0556" lon="0.18235">
        <ele>772.09</ele>
        <time>2017-10-31T09:40:21Z</time>
      </trkpt>
      <trkpt lat="43.05554" lon="0.18255">
        <ele>773.18</ele>
        <time>2017-10-31T09:40:30Z</time>
      </trkpt>
      <trkpt lat="43.05543" lon="0.18286">
        <ele>775.13</ele>
        <time>2017-10-31T09:40:46Z</time>
      </trkpt>
      <trkpt lat="43.05538" lon="0.18297">
        <ele>775.84</ele>
        <time>2017-10-31T09:40:52Z</time>
      </trkpt>
      <trkpt lat="43.05537" lon="0.18303">
        <ele>776.26</ele>
        <time>2017-10-31T09:40:55Z</time>
      </trkpt>
      <trkpt lat="43.05532" lon="0.1832">
        <ele>777.41</ele>
        <time>2017-10-31T09:41:05Z</time>
      </trkpt>
      <trkpt lat="43.05523" lon="0.18343">
        <ele>778.79</ele>
        <time>2017-10-31T09:41:15Z</time>
      </trkpt>
      <trkpt lat="43.05517" lon="0.18366">
        <ele>780.55</ele>
        <time>2017-10-31T09:41:27Z</time>
      </trkpt>
      <trkpt lat="43.05512" lon="0.18381">
        <ele>781.58</ele>
        <time>2017-10-31T09:41:37Z</time>
      </trkpt>
      <trkpt lat="43.0551" lon="0.18391">
        <ele>783.05</ele>
        <time>2017-10-31T09:41:45Z</time>
      </trkpt>
      <trkpt lat="43.05509" lon="0.184">
        <ele>784.12</ele>
        <time>2017-10-31T09:41:53Z</time>
      </trkpt>
      <trkpt lat="43.05504" lon="0.18419">
        <ele>785.34</ele>
        <time>2017-10-31T09:42:05Z</time>
      </trkpt>
      <trkpt lat="43.05496" lon="0.18441">
        <ele>787.63</ele>
        <time>2017-10-31T09:42:16Z</time>
      </trkpt>
      <trkpt lat="43.05489" lon="0.18475">
        <ele>790.44</ele>
        <time>2017-10-31T09:42:31Z</time>
      </trkpt>
      <trkpt lat="43.05486" lon="0.18499">
        <ele>791.67</ele>
        <time>2017-10-31T09:42:38Z</time>
      </trkpt>
      <trkpt lat="43.05484" lon="0.18515">
        <ele>792.76</ele>
        <time>2017-10-31T09:42:45Z</time>
      </trkpt>
      <trkpt lat="43.05485" lon="0.18519">
        <ele>793.02</ele>
        <time>2017-10-31T09:42:47Z</time>
      </trkpt>
      <trkpt lat="43.05486" lon="0.18533">
        <ele>794.44</ele>
        <time>2017-10-31T09:42:55Z</time>
      </trkpt>
      <trkpt lat="43.0548" lon="0.18552">
        <ele>796.46</ele>
        <time>2017-10-31T09:43:09Z</time>
      </trkpt>
      <trkpt lat="43.05477" lon="0.18559">
        <ele>797.45</ele>
        <time>2017-10-31T09:43:14Z</time>
      </trkpt>
      <trkpt lat="43.05469" lon="0.18567">
        <ele>798.41</ele>
        <time>2017-10-31T09:43:21Z</time>
      </trkpt>
      <trkpt lat="43.05449" lon="0.18597">
        <ele>801.01</ele>
        <time>2017-10-31T09:43:35Z</time>
      </trkpt>
      <trkpt lat="43.05448" lon="0.186">
        <ele>801.07</ele>
        <time>2017-10-31T09:43:36Z</time>
      </trkpt>
      <trkpt lat="43.05433" lon="0.18625">
        <ele>803.35</ele>
        <time>2017-10-31T09:43:50Z</time>
      </trkpt>
      <trkpt lat="43.05415" lon="0.18653">
        <ele>805.84</ele>
        <time>2017-10-31T09:44:06Z</time>
      </trkpt>
      <trkpt lat="43.05412" lon="0.18657">
        <ele>806.29</ele>
        <time>2017-10-31T09:44:08Z</time>
      </trkpt>
      <trkpt lat="43.05401" lon="0.18673">
        <ele>808.55</ele>
        <time>2017-10-31T09:44:16Z</time>
      </trkpt>
      <trkpt lat="43.05399" lon="0.18675">
        <ele>809.02</ele>
        <time>2017-10-31T09:44:18Z</time>
      </trkpt>
      <trkpt lat="43.05394" lon="0.18681">
        <ele>809.86</ele>
        <time>2017-10-31T09:44:22Z</time>
      </trkpt>
      <trkpt lat="43.05382" lon="0.18697">
        <ele>813.28</ele>
        <time>2017-10-31T09:44:34Z</time>
      </trkpt>
      <trkpt lat="43.05373" lon="0.18712">
        <ele>815.6</ele>
        <time>2017-10-31T09:44:46Z</time>
      </trkpt>
      <trkpt lat="43.05368" lon="0.18727">
        <ele>816.85</ele>
        <time>2017-10-31T09:44:57Z</time>
      </trkpt>
      <trkpt lat="43.05366" lon="0.18733">
        <ele>817.42</ele>
        <time>2017-10-31T09:45:00Z</time>
      </trkpt>
      <trkpt lat="43.05363" lon="0.18748">
        <ele>818.33</ele>
        <time>2017-10-31T09:45:08Z</time>
      </trkpt>
      <trkpt lat="43.05357" lon="0.1877">
        <ele>819.97</ele>
        <time>2017-10-31T09:45:22Z</time>
      </trkpt>
      <trkpt lat="43.05357" lon="0.18772">
        <ele>820.14</ele>
        <time>2017-10-31T09:45:23Z</time>
      </trkpt>
      <trkpt lat="43.05355" lon="0.18785">
        <ele>821.1</ele>
        <time>2017-10-31T09:45:30Z</time>
      </trkpt>
      <trkpt lat="43.05348" lon="0.18813">
        <ele>823.16</ele>
        <time>2017-10-31T09:45:44Z</time>
      </trkpt>
      <trkpt lat="43.05348" lon="0.18815">
        <ele>823.28</ele>
        <time>2017-10-31T09:45:45Z</time>
      </trkpt>
      <trkpt lat="43.05346" lon="0.1882">
        <ele>823.86</ele>
        <time>2017-10-31T09:45:48Z</time>
      </trkpt>
      <trkpt lat="43.05345" lon="0.18837">
        <ele>824.64</ele>
        <time>2017-10-31T09:45:57Z</time>
      </trkpt>
      <trkpt lat="43.05344" lon="0.18839">
        <ele>824.95</ele>
        <time>2017-10-31T09:45:59Z</time>
      </trkpt>
      <trkpt lat="43.05341" lon="0.18845">
        <ele>825.94</ele>
        <time>2017-10-31T09:46:04Z</time>
      </trkpt>
      <trkpt lat="43.05341" lon="0.1886">
        <ele>827.24</ele>
        <time>2017-10-31T09:46:13Z</time>
      </trkpt>
      <trkpt lat="43.05339" lon="0.18871">
        <ele>827.99</ele>
        <time>2017-10-31T09:46:18Z</time>
      </trkpt>
      <trkpt lat="43.05339" lon="0.18884">
        <ele>829.05</ele>
        <time>2017-10-31T09:46:26Z</time>
      </trkpt>
      <trkpt lat="43.05337" lon="0.18898">
        <ele>829.87</ele>
        <time>2017-10-31T09:46:31Z</time>
      </trkpt>
      <trkpt lat="43.05344" lon="0.18916">
        <ele>829.79</ele>
        <time>2017-10-31T09:46:37Z</time>
      </trkpt>
      <trkpt lat="43.05354" lon="0.18935">
        <ele>829.18</ele>
        <time>2017-10-31T09:46:43Z</time>
      </trkpt>
      <trkpt lat="43.05348" lon="0.1897">
        <ele>826.58</ele>
        <time>2017-10-31T09:46:54Z</time>
      </trkpt>
      <trkpt lat="43.05346" lon="0.19">
        <ele>828.08</ele>
        <time>2017-10-31T09:47:06Z</time>
      </trkpt>
      <trkpt lat="43.05346" lon="0.19003">
        <ele>828.31</ele>
        <time>2017-10-31T09:47:08Z</time>
      </trkpt>
      <trkpt lat="43.0534" lon="0.19022">
        <ele>827.94</ele>
        <time>2017-10-31T09:47:36Z</time>
      </trkpt>
      <trkpt lat="43.05342" lon="0.19024">
        <ele>827.8</ele>
        <time>2017-10-31T09:47:42Z</time>
      </trkpt>
      <trkpt lat="43.05348" lon="0.19033">
        <ele>828.65</ele>
        <time>2017-10-31T09:48:13Z</time>
      </trkpt>
      <trkpt lat="43.05344" lon="0.19036">
        <ele>829.12</ele>
        <time>2017-10-31T09:49:10Z</time>
      </trkpt>
      <trkpt lat="43.05348" lon="0.1905">
        <ele>829.62</ele>
        <time>2017-10-31T09:49:17Z</time>
      </trkpt>
      <trkpt lat="43.0535" lon="0.19058">
        <ele>831.01</ele>
        <time>2017-10-31T09:49:21Z</time>
      </trkpt>
      <trkpt lat="43.05356" lon="0.19075">
        <ele>834.61</ele>
        <time>2017-10-31T09:49:29Z</time>
      </trkpt>
      <trkpt lat="43.05359" lon="0.19088">
        <ele>837.83</ele>
        <time>2017-10-31T09:49:34Z</time>
      </trkpt>
      <trkpt lat="43.05357" lon="0.19101">
        <ele>839.89</ele>
        <time>2017-10-31T09:49:40Z</time>
      </trkpt>
      <trkpt lat="43.05346" lon="0.19125">
        <ele>842.64</ele>
        <time>2017-10-31T09:49:53Z</time>
      </trkpt>
      <trkpt lat="43.0533" lon="0.19149">
        <ele>844.54</ele>
        <time>2017-10-31T09:50:08Z</time>
      </trkpt>
      <trkpt lat="43.05327" lon="0.19152">
        <ele>844.59</ele>
        <time>2017-10-31T09:50:11Z</time>
      </trkpt>
      <trkpt lat="43.05321" lon="0.19158">
        <ele>844.88</ele>
        <time>2017-10-31T09:50:16Z</time>
      </trkpt>
      <trkpt lat="43.05303" lon="0.19174">
        <ele>846.65</ele>
        <time>2017-10-31T09:50:28Z</time>
      </trkpt>
      <trkpt lat="43.0529" lon="0.1919">
        <ele>848.38</ele>
        <time>2017-10-31T09:50:42Z</time>
      </trkpt>
      <trkpt lat="43.05275" lon="0.19206">
        <ele>850.81</ele>
        <time>2017-10-31T09:50:55Z</time>
      </trkpt>
      <trkpt lat="43.05271" lon="0.19209">
        <ele>851.65</ele>
        <time>2017-10-31T09:50:59Z</time>
      </trkpt>
      <trkpt lat="43.05261" lon="0.19222">
        <ele>853.49</ele>
        <time>2017-10-31T09:51:09Z</time>
      </trkpt>
      <trkpt lat="43.05246" lon="0.19234">
        <ele>855.31</ele>
        <time>2017-10-31T09:51:22Z</time>
      </trkpt>
      <trkpt lat="43.0523" lon="0.1925">
        <ele>858.42</ele>
        <time>2017-10-31T09:51:34Z</time>
      </trkpt>
      <trkpt lat="43.05215" lon="0.19267">
        <ele>861.42</ele>
        <time>2017-10-31T09:51:47Z</time>
      </trkpt>
      <trkpt lat="43.05211" lon="0.19272">
        <ele>862.23</ele>
        <time>2017-10-31T09:51:50Z</time>
      </trkpt>
      <trkpt lat="43.05204" lon="0.19282">
        <ele>863.54</ele>
        <time>2017-10-31T09:51:56Z</time>
      </trkpt>
      <trkpt lat="43.05199" lon="0.1929">
        <ele>864.9</ele>
        <time>2017-10-31T09:52:02Z</time>
      </trkpt>
      <trkpt lat="43.05185" lon="0.19307">
        <ele>868.36</ele>
        <time>2017-10-31T09:52:14Z</time>
      </trkpt>
      <trkpt lat="43.05173" lon="0.19319">
        <ele>871.57</ele>
        <time>2017-10-31T09:52:23Z</time>
      </trkpt>
      <trkpt lat="43.05159" lon="0.1933">
        <ele>873.79</ele>
        <time>2017-10-31T09:52:31Z</time>
      </trkpt>
      <trkpt lat="43.05152" lon="0.19345">
        <ele>875.93</ele>
        <time>2017-10-31T09:52:38Z</time>
      </trkpt>
      <trkpt lat="43.05157" lon="0.19358">
        <ele>879.08</ele>
        <time>2017-10-31T09:52:50Z</time>
      </trkpt>
      <trkpt lat="43.05163" lon="0.19356">
        <ele>879.97</ele>
        <time>2017-10-31T09:53:09Z</time>
      </trkpt>
      <trkpt lat="43.05162" lon="0.19358">
        <ele>880.06</ele>
        <time>2017-10-31T09:53:34Z</time>
      </trkpt>
      <trkpt lat="43.05159" lon="0.19355">
        <ele>879.92</ele>
        <time>2017-10-31T09:54:07Z</time>
      </trkpt>
      <trkpt lat="43.05164" lon="0.19358">
        <ele>880.21</ele>
        <time>2017-10-31T09:54:51Z</time>
      </trkpt>
      <trkpt lat="43.05164" lon="0.19358">
        <ele>880.41</ele>
        <time>2017-10-31T09:55:15Z</time>
      </trkpt>
      <trkpt lat="43.05162" lon="0.19358">
        <ele>880.65</ele>
        <time>2017-10-31T09:56:02Z</time>
      </trkpt>
      <trkpt lat="43.05165" lon="0.19356">
        <ele>880.38</ele>
        <time>2017-10-31T09:56:17Z</time>
      </trkpt>
      <trkpt lat="43.05167" lon="0.19357">
        <ele>880.04</ele>
        <time>2017-10-31T09:56:55Z</time>
      </trkpt>
      <trkpt lat="43.05166" lon="0.19356">
        <ele>880.68</ele>
        <time>2017-10-31T09:58:01Z</time>
      </trkpt>
      <trkpt lat="43.05166" lon="0.19355">
        <ele>880.91</ele>
        <time>2017-10-31T09:59:00Z</time>
      </trkpt>
      <trkpt lat="43.05167" lon="0.19358">
        <ele>881.19</ele>
        <time>2017-10-31T10:00:06Z</time>
      </trkpt>
      <trkpt lat="43.05165" lon="0.19357">
        <ele>882.18</ele>
        <time>2017-10-31T10:01:38Z</time>
      </trkpt>
      <trkpt lat="43.05164" lon="0.19358">
        <ele>882.5</ele>
        <time>2017-10-31T10:01:58Z</time>
      </trkpt>
      <trkpt lat="43.05164" lon="0.19356">
        <ele>883.32</ele>
        <time>2017-10-31T10:02:38Z</time>
      </trkpt>
      <trkpt lat="43.05164" lon="0.19355">
        <ele>883.63</ele>
        <time>2017-10-31T10:03:19Z</time>
      </trkpt>
      <trkpt lat="43.05163" lon="0.19355">
        <ele>883.52</ele>
        <time>2017-10-31T10:03:46Z</time>
      </trkpt>
      <trkpt lat="43.05161" lon="0.19356">
        <ele>883.51</ele>
        <time>2017-10-31T10:04:06Z</time>
      </trkpt>
      <trkpt lat="43.0516" lon="0.19356">
        <ele>883.48</ele>
        <time>2017-10-31T10:04:07Z</time>
      </trkpt>
      <trkpt lat="43.05138" lon="0.19353">
        <ele>883.82</ele>
        <time>2017-10-31T10:04:21Z</time>
      </trkpt>
      <trkpt lat="43.05116" lon="0.1935">
        <ele>887.22</ele>
        <time>2017-10-31T10:04:35Z</time>
      </trkpt>
      <trkpt lat="43.05104" lon="0.19351">
        <ele>890.36</ele>
        <time>2017-10-31T10:04:45Z</time>
      </trkpt>
      <trkpt lat="43.05082" lon="0.19358">
        <ele>892.41</ele>
        <time>2017-10-31T10:05:00Z</time>
      </trkpt>
      <trkpt lat="43.05059" lon="0.19361">
        <ele>894.3</ele>
        <time>2017-10-31T10:05:14Z</time>
      </trkpt>
      <trkpt lat="43.05032" lon="0.19367">
        <ele>895.86</ele>
        <time>2017-10-31T10:05:31Z</time>
      </trkpt>
      <trkpt lat="43.05006" lon="0.19365">
        <ele>897.51</ele>
        <time>2017-10-31T10:05:45Z</time>
      </trkpt>
      <trkpt lat="43.04983" lon="0.19362">
        <ele>900.64</ele>
        <time>2017-10-31T10:05:56Z</time>
      </trkpt>
      <trkpt lat="43.0497" lon="0.1936">
        <ele>904.14</ele>
        <time>2017-10-31T10:06:02Z</time>
      </trkpt>
      <trkpt lat="43.04961" lon="0.19359">
        <ele>907.39</ele>
        <time>2017-10-31T10:06:08Z</time>
      </trkpt>
      <trkpt lat="43.04947" lon="0.19355">
        <ele>910.53</ele>
        <time>2017-10-31T10:06:16Z</time>
      </trkpt>
      <trkpt lat="43.04931" lon="0.19355">
        <ele>913.59</ele>
        <time>2017-10-31T10:06:29Z</time>
      </trkpt>
      <trkpt lat="43.04925" lon="0.19367">
        <ele>915.22</ele>
        <time>2017-10-31T10:06:42Z</time>
      </trkpt>
      <trkpt lat="43.04921" lon="0.19362">
        <ele>915.98</ele>
        <time>2017-10-31T10:07:00Z</time>
      </trkpt>
      <trkpt lat="43.0492" lon="0.19353">
        <ele>915.74</ele>
        <time>2017-10-31T10:07:14Z</time>
      </trkpt>
      <trkpt lat="43.04918" lon="0.19338">
        <ele>915.76</ele>
        <time>2017-10-31T10:07:30Z</time>
      </trkpt>
      <trkpt lat="43.04911" lon="0.19287">
        <ele>914.66</ele>
        <time>2017-10-31T10:07:47Z</time>
      </trkpt>
      <trkpt lat="43.04898" lon="0.19246">
        <ele>912.89</ele>
        <time>2017-10-31T10:07:59Z</time>
      </trkpt>
      <trkpt lat="43.04887" lon="0.19209">
        <ele>911.01</ele>
        <time>2017-10-31T10:08:09Z</time>
      </trkpt>
      <trkpt lat="43.04878" lon="0.19164">
        <ele>908.31</ele>
        <time>2017-10-31T10:08:18Z</time>
      </trkpt>
      <trkpt lat="43.04871" lon="0.19137">
        <ele>903.78</ele>
        <time>2017-10-31T10:08:25Z</time>
      </trkpt>
      <trkpt lat="43.04872" lon="0.1912">
        <ele>901.69</ele>
        <time>2017-10-31T10:08:30Z</time>
      </trkpt>
      <trkpt lat="43.04873" lon="0.19088">
        <ele>900.71</ele>
        <time>2017-10-31T10:08:41Z</time>
      </trkpt>
      <trkpt lat="43.04871" lon="0.19053">
        <ele>901.95</ele>
        <time>2017-10-31T10:08:53Z</time>
      </trkpt>
      <trkpt lat="43.04871" lon="0.19019">
        <ele>902.28</ele>
        <time>2017-10-31T10:09:05Z</time>
      </trkpt>
      <trkpt lat="43.04871" lon="0.19017">
        <ele>902.32</ele>
        <time>2017-10-31T10:09:06Z</time>
      </trkpt>
      <trkpt lat="43.04871" lon="0.18994">
        <ele>902.16</ele>
        <time>2017-10-31T10:09:13Z</time>
      </trkpt>
      <trkpt lat="43.04875" lon="0.18971">
        <ele>901.59</ele>
        <time>2017-10-31T10:09:21Z</time>
      </trkpt>
      <trkpt lat="43.04874" lon="0.18949">
        <ele>901.59</ele>
        <time>2017-10-31T10:09:28Z</time>
      </trkpt>
      <trkpt lat="43.04877" lon="0.18927">
        <ele>902.38</ele>
        <time>2017-10-31T10:09:35Z</time>
      </trkpt>
      <trkpt lat="43.04879" lon="0.18893">
        <ele>903.5</ele>
        <time>2017-10-31T10:09:46Z</time>
      </trkpt>
      <trkpt lat="43.04881" lon="0.18846">
        <ele>906.4</ele>
        <time>2017-10-31T10:10:01Z</time>
      </trkpt>
      <trkpt lat="43.04874" lon="0.18809">
        <ele>908.4</ele>
        <time>2017-10-31T10:10:13Z</time>
      </trkpt>
      <trkpt lat="43.04853" lon="0.18779">
        <ele>909.57</ele>
        <time>2017-10-31T10:10:27Z</time>
      </trkpt>
      <trkpt lat="43.04847" lon="0.18769">
        <ele>909.84</ele>
        <time>2017-10-31T10:10:32Z</time>
      </trkpt>
      <trkpt lat="43.0484" lon="0.18762">
        <ele>910.13</ele>
        <time>2017-10-31T10:10:41Z</time>
      </trkpt>
      <trkpt lat="43.04837" lon="0.18759">
        <ele>910.19</ele>
        <time>2017-10-31T10:10:44Z</time>
      </trkpt>
      <trkpt lat="43.04834" lon="0.18755">
        <ele>910.36</ele>
        <time>2017-10-31T10:10:47Z</time>
      </trkpt>
      <trkpt lat="43.04833" lon="0.18752">
        <ele>910.69</ele>
        <time>2017-10-31T10:10:49Z</time>
      </trkpt>
      <trkpt lat="43.04831" lon="0.18749">
        <ele>911.09</ele>
        <time>2017-10-31T10:10:51Z</time>
      </trkpt>
      <trkpt lat="43.04829" lon="0.1874">
        <ele>911.49</ele>
        <time>2017-10-31T10:10:57Z</time>
      </trkpt>
      <trkpt lat="43.04824" lon="0.18739">
        <ele>911.68</ele>
        <time>2017-10-31T10:11:01Z</time>
      </trkpt>
      <trkpt lat="43.04807" lon="0.18738">
        <ele>914.23</ele>
        <time>2017-10-31T10:11:09Z</time>
      </trkpt>
      <trkpt lat="43.04795" lon="0.18748">
        <ele>917.68</ele>
        <time>2017-10-31T10:11:18Z</time>
      </trkpt>
      <trkpt lat="43.04788" lon="0.18756">
        <ele>919.5</ele>
        <time>2017-10-31T10:11:24Z</time>
      </trkpt>
      <trkpt lat="43.04777" lon="0.18767">
        <ele>922.79</ele>
        <time>2017-10-31T10:11:32Z</time>
      </trkpt>
      <trkpt lat="43.04767" lon="0.18777">
        <ele>925.5</ele>
        <time>2017-10-31T10:11:38Z</time>
      </trkpt>
      <trkpt lat="43.04765" lon="0.18779">
        <ele>927</ele>
        <time>2017-10-31T10:11:40Z</time>
      </trkpt>
      <trkpt lat="43.04756" lon="0.18787">
        <ele>930.59</ele>
        <time>2017-10-31T10:11:48Z</time>
      </trkpt>
      <trkpt lat="43.04748" lon="0.18799">
        <ele>933.6</ele>
        <time>2017-10-31T10:11:54Z</time>
      </trkpt>
      <trkpt lat="43.04745" lon="0.18803">
        <ele>934.9</ele>
        <time>2017-10-31T10:11:57Z</time>
      </trkpt>
      <trkpt lat="43.04742" lon="0.18805">
        <ele>936.11</ele>
        <time>2017-10-31T10:12:00Z</time>
      </trkpt>
      <trkpt lat="43.04735" lon="0.18811">
        <ele>939.03</ele>
        <time>2017-10-31T10:12:06Z</time>
      </trkpt>
      <trkpt lat="43.04726" lon="0.18829">
        <ele>942.32</ele>
        <time>2017-10-31T10:12:20Z</time>
      </trkpt>
      <trkpt lat="43.04722" lon="0.18846">
        <ele>943.63</ele>
        <time>2017-10-31T10:12:39Z</time>
      </trkpt>
      <trkpt lat="43.04717" lon="0.1885">
        <ele>945.59</ele>
        <time>2017-10-31T10:13:01Z</time>
      </trkpt>
      <trkpt lat="43.04704" lon="0.18857">
        <ele>948.25</ele>
        <time>2017-10-31T10:13:22Z</time>
      </trkpt>
      <trkpt lat="43.04703" lon="0.18856">
        <ele>948.23</ele>
        <time>2017-10-31T10:13:48Z</time>
      </trkpt>
      <trkpt lat="43.047" lon="0.18856">
        <ele>948.15</ele>
        <time>2017-10-31T10:14:17Z</time>
      </trkpt>
      <trkpt lat="43.04701" lon="0.18854">
        <ele>947.65</ele>
        <time>2017-10-31T10:15:14Z</time>
      </trkpt>
      <trkpt lat="43.047" lon="0.18853">
        <ele>947.5</ele>
        <time>2017-10-31T10:15:25Z</time>
      </trkpt>
      <trkpt lat="43.04697" lon="0.18835">
        <ele>947.77</ele>
        <time>2017-10-31T10:15:36Z</time>
      </trkpt>
      <trkpt lat="43.04697" lon="0.18829">
        <ele>946.92</ele>
        <time>2017-10-31T10:15:47Z</time>
      </trkpt>
      <trkpt lat="43.04696" lon="0.18826">
        <ele>947.27</ele>
        <time>2017-10-31T10:16:08Z</time>
      </trkpt>
      <trkpt lat="43.04695" lon="0.18825">
        <ele>947.53</ele>
        <time>2017-10-31T10:16:28Z</time>
      </trkpt>
      <trkpt lat="43.04696" lon="0.18825">
        <ele>947.47</ele>
        <time>2017-10-31T10:16:55Z</time>
      </trkpt>
      <trkpt lat="43.04694" lon="0.18824">
        <ele>947.41</ele>
        <time>2017-10-31T10:17:19Z</time>
      </trkpt>
      <trkpt lat="43.04693" lon="0.18816">
        <ele>947.13</ele>
        <time>2017-10-31T10:17:23Z</time>
      </trkpt>
      <trkpt lat="43.04691" lon="0.18796">
        <ele>947.07</ele>
        <time>2017-10-31T10:17:33Z</time>
      </trkpt>
      <trkpt lat="43.04688" lon="0.18775">
        <ele>948.52</ele>
        <time>2017-10-31T10:17:41Z</time>
      </trkpt>
      <trkpt lat="43.04683" lon="0.18767">
        <ele>949.92</ele>
        <time>2017-10-31T10:17:45Z</time>
      </trkpt>
      <trkpt lat="43.04669" lon="0.18749">
        <ele>953.62</ele>
        <time>2017-10-31T10:17:55Z</time>
      </trkpt>
      <trkpt lat="43.04663" lon="0.18742">
        <ele>955.16</ele>
        <time>2017-10-31T10:17:59Z</time>
      </trkpt>
      <trkpt lat="43.04661" lon="0.18727">
        <ele>958.43</ele>
        <time>2017-10-31T10:18:08Z</time>
      </trkpt>
      <trkpt lat="43.04664" lon="0.18721">
        <ele>959.32</ele>
        <time>2017-10-31T10:18:11Z</time>
      </trkpt>
      <trkpt lat="43.04665" lon="0.18716">
        <ele>959.89</ele>
        <time>2017-10-31T10:18:13Z</time>
      </trkpt>
      <trkpt lat="43.0467" lon="0.18708">
        <ele>961.3</ele>
        <time>2017-10-31T10:18:17Z</time>
      </trkpt>
      <trkpt lat="43.04681" lon="0.18694">
        <ele>963.22</ele>
        <time>2017-10-31T10:18:24Z</time>
      </trkpt>
      <trkpt lat="43.04693" lon="0.18672">
        <ele>965.07</ele>
        <time>2017-10-31T10:18:36Z</time>
      </trkpt>
      <trkpt lat="43.04706" lon="0.18645">
        <ele>965.12</ele>
        <time>2017-10-31T10:18:48Z</time>
      </trkpt>
      <trkpt lat="43.04706" lon="0.18643">
        <ele>965.09</ele>
        <time>2017-10-31T10:18:49Z</time>
      </trkpt>
      <trkpt lat="43.04711" lon="0.18635">
        <ele>964.78</ele>
        <time>2017-10-31T10:18:54Z</time>
      </trkpt>
      <trkpt lat="43.04716" lon="0.18619">
        <ele>964.15</ele>
        <time>2017-10-31T10:19:00Z</time>
      </trkpt>
      <trkpt lat="43.04722" lon="0.18601">
        <ele>963.74</ele>
        <time>2017-10-31T10:19:07Z</time>
      </trkpt>
      <trkpt lat="43.04725" lon="0.18594">
        <ele>963.5</ele>
        <time>2017-10-31T10:19:10Z</time>
      </trkpt>
      <trkpt lat="43.04731" lon="0.18575">
        <ele>961.95</ele>
        <time>2017-10-31T10:19:24Z</time>
      </trkpt>
      <trkpt lat="43.04742" lon="0.18555">
        <ele>960.35</ele>
        <time>2017-10-31T10:19:35Z</time>
      </trkpt>
      <trkpt lat="43.04745" lon="0.18551">
        <ele>959.79</ele>
        <time>2017-10-31T10:19:38Z</time>
      </trkpt>
      <trkpt lat="43.04754" lon="0.18548">
        <ele>958.04</ele>
        <time>2017-10-31T10:19:45Z</time>
      </trkpt>
      <trkpt lat="43.04759" lon="0.18522">
        <ele>955.61</ele>
        <time>2017-10-31T10:19:56Z</time>
      </trkpt>
      <trkpt lat="43.04762" lon="0.18518">
        <ele>955.04</ele>
        <time>2017-10-31T10:19:59Z</time>
      </trkpt>
      <trkpt lat="43.04769" lon="0.18504">
        <ele>953.45</ele>
        <time>2017-10-31T10:20:14Z</time>
      </trkpt>
      <trkpt lat="43.04779" lon="0.18482">
        <ele>951.3</ele>
        <time>2017-10-31T10:20:25Z</time>
      </trkpt>
      <trkpt lat="43.04778" lon="0.18471">
        <ele>949.85</ele>
        <time>2017-10-31T10:20:47Z</time>
      </trkpt>
      <trkpt lat="43.04783" lon="0.18467">
        <ele>949.73</ele>
        <time>2017-10-31T10:20:53Z</time>
      </trkpt>
      <trkpt lat="43.04794" lon="0.18466">
        <ele>946.77</ele>
        <time>2017-10-31T10:21:05Z</time>
      </trkpt>
      <trkpt lat="43.04796" lon="0.1846">
        <ele>946.05</ele>
        <time>2017-10-31T10:21:08Z</time>
      </trkpt>
      <trkpt lat="43.04802" lon="0.18428">
        <ele>944.07</ele>
        <time>2017-10-31T10:21:20Z</time>
      </trkpt>
      <trkpt lat="43.04804" lon="0.18413">
        <ele>942.66</ele>
        <time>2017-10-31T10:21:26Z</time>
      </trkpt>
      <trkpt lat="43.04809" lon="0.18407">
        <ele>941.42</ele>
        <time>2017-10-31T10:21:31Z</time>
      </trkpt>
      <trkpt lat="43.04813" lon="0.18403">
        <ele>940.92</ele>
        <time>2017-10-31T10:21:34Z</time>
      </trkpt>
      <trkpt lat="43.0482" lon="0.18384">
        <ele>938.25</ele>
        <time>2017-10-31T10:21:43Z</time>
      </trkpt>
      <trkpt lat="43.04834" lon="0.18372">
        <ele>935.37</ele>
        <time>2017-10-31T10:21:55Z</time>
      </trkpt>
      <trkpt lat="43.04841" lon="0.18342">
        <ele>932.11</ele>
        <time>2017-10-31T10:22:07Z</time>
      </trkpt>
      <trkpt lat="43.04844" lon="0.18337">
        <ele>932.28</ele>
        <time>2017-10-31T10:22:34Z</time>
      </trkpt>
      <trkpt lat="43.04845" lon="0.18334">
        <ele>932.07</ele>
        <time>2017-10-31T10:22:46Z</time>
      </trkpt>
      <trkpt lat="43.04846" lon="0.1834">
        <ele>931.76</ele>
        <time>2017-10-31T10:23:03Z</time>
      </trkpt>
      <trkpt lat="43.04845" lon="0.18346">
        <ele>931.6</ele>
        <time>2017-10-31T10:23:11Z</time>
      </trkpt>
      <trkpt lat="43.04838" lon="0.18365">
        <ele>932.85</ele>
        <time>2017-10-31T10:23:22Z</time>
      </trkpt>
      <trkpt lat="43.04833" lon="0.18369">
        <ele>935.08</ele>
        <time>2017-10-31T10:23:30Z</time>
      </trkpt>
      <trkpt lat="43.04828" lon="0.18371">
        <ele>935.57</ele>
        <time>2017-10-31T10:23:34Z</time>
      </trkpt>
      <trkpt lat="43.04822" lon="0.18382">
        <ele>937.01</ele>
        <time>2017-10-31T10:23:41Z</time>
      </trkpt>
      <trkpt lat="43.04816" lon="0.18388">
        <ele>939.03</ele>
        <time>2017-10-31T10:23:47Z</time>
      </trkpt>
      <trkpt lat="43.04805" lon="0.18423">
        <ele>942.52</ele>
        <time>2017-10-31T10:24:01Z</time>
      </trkpt>
      <trkpt lat="43.04798" lon="0.18452">
        <ele>944.58</ele>
        <time>2017-10-31T10:24:15Z</time>
      </trkpt>
      <trkpt lat="43.04796" lon="0.18456">
        <ele>944.76</ele>
        <time>2017-10-31T10:24:18Z</time>
      </trkpt>
      <trkpt lat="43.04788" lon="0.18462">
        <ele>947.2</ele>
        <time>2017-10-31T10:24:37Z</time>
      </trkpt>
      <trkpt lat="43.04781" lon="0.1846">
        <ele>948.04</ele>
        <time>2017-10-31T10:25:00Z</time>
      </trkpt>
      <trkpt lat="43.04781" lon="0.18462">
        <ele>949.13</ele>
        <time>2017-10-31T10:25:24Z</time>
      </trkpt>
      <trkpt lat="43.0478" lon="0.18466">
        <ele>949.24</ele>
        <time>2017-10-31T10:25:31Z</time>
      </trkpt>
      <trkpt lat="43.04777" lon="0.18473">
        <ele>949.6</ele>
        <time>2017-10-31T10:25:35Z</time>
      </trkpt>
      <trkpt lat="43.04769" lon="0.18484">
        <ele>950.57</ele>
        <time>2017-10-31T10:25:42Z</time>
      </trkpt>
      <trkpt lat="43.04762" lon="0.18503">
        <ele>952.34</ele>
        <time>2017-10-31T10:25:51Z</time>
      </trkpt>
      <trkpt lat="43.04757" lon="0.18525">
        <ele>954.42</ele>
        <time>2017-10-31T10:26:01Z</time>
      </trkpt>
      <trkpt lat="43.04745" lon="0.18535">
        <ele>956.17</ele>
        <time>2017-10-31T10:26:10Z</time>
      </trkpt>
      <trkpt lat="43.04741" lon="0.18543">
        <ele>957.56</ele>
        <time>2017-10-31T10:26:15Z</time>
      </trkpt>
      <trkpt lat="43.04734" lon="0.18552">
        <ele>958.92</ele>
        <time>2017-10-31T10:26:21Z</time>
      </trkpt>
      <trkpt lat="43.0472" lon="0.18577">
        <ele>961.72</ele>
        <time>2017-10-31T10:26:34Z</time>
      </trkpt>
      <trkpt lat="43.04719" lon="0.18579">
        <ele>961.85</ele>
        <time>2017-10-31T10:26:35Z</time>
      </trkpt>
      <trkpt lat="43.04711" lon="0.18609">
        <ele>963.58</ele>
        <time>2017-10-31T10:26:48Z</time>
      </trkpt>
      <trkpt lat="43.04708" lon="0.18612">
        <ele>963.99</ele>
        <time>2017-10-31T10:26:51Z</time>
      </trkpt>
      <trkpt lat="43.047" lon="0.18642">
        <ele>964.28</ele>
        <time>2017-10-31T10:27:03Z</time>
      </trkpt>
      <trkpt lat="43.04699" lon="0.18655">
        <ele>964.98</ele>
        <time>2017-10-31T10:27:19Z</time>
      </trkpt>
      <trkpt lat="43.04691" lon="0.18673">
        <ele>964.25</ele>
        <time>2017-10-31T10:27:37Z</time>
      </trkpt>
      <trkpt lat="43.0469" lon="0.18675">
        <ele>964.15</ele>
        <time>2017-10-31T10:27:38Z</time>
      </trkpt>
      <trkpt lat="43.04669" lon="0.18698">
        <ele>962.36</ele>
        <time>2017-10-31T10:27:51Z</time>
      </trkpt>
      <trkpt lat="43.04659" lon="0.18722">
        <ele>959.6</ele>
        <time>2017-10-31T10:28:03Z</time>
      </trkpt>
      <trkpt lat="43.04659" lon="0.18724">
        <ele>959.26</ele>
        <time>2017-10-31T10:28:04Z</time>
      </trkpt>
      <trkpt lat="43.04667" lon="0.18736">
        <ele>955.9</ele>
        <time>2017-10-31T10:28:13Z</time>
      </trkpt>
      <trkpt lat="43.04668" lon="0.18737">
        <ele>955.63</ele>
        <time>2017-10-31T10:28:14Z</time>
      </trkpt>
      <trkpt lat="43.04681" lon="0.18755">
        <ele>952.1</ele>
        <time>2017-10-31T10:28:26Z</time>
      </trkpt>
      <trkpt lat="43.04683" lon="0.18757">
        <ele>951.74</ele>
        <time>2017-10-31T10:28:27Z</time>
      </trkpt>
      <trkpt lat="43.04693" lon="0.18792">
        <ele>948.35</ele>
        <time>2017-10-31T10:28:35Z</time>
      </trkpt>
      <trkpt lat="43.04698" lon="0.18816">
        <ele>945.58</ele>
        <time>2017-10-31T10:28:43Z</time>
      </trkpt>
      <trkpt lat="43.04697" lon="0.18822">
        <ele>945.7</ele>
        <time>2017-10-31T10:28:52Z</time>
      </trkpt>
      <trkpt lat="43.04695" lon="0.18834">
        <ele>945.35</ele>
        <time>2017-10-31T10:29:08Z</time>
      </trkpt>
      <trkpt lat="43.04694" lon="0.18836">
        <ele>945.32</ele>
        <time>2017-10-31T10:30:25Z</time>
      </trkpt>
      <trkpt lat="43.04696" lon="0.18839">
        <ele>945.75</ele>
        <time>2017-10-31T10:31:19Z</time>
      </trkpt>
      <trkpt lat="43.04698" lon="0.18843">
        <ele>945.84</ele>
        <time>2017-10-31T10:31:21Z</time>
      </trkpt>
      <trkpt lat="43.0471" lon="0.18895">
        <ele>947.78</ele>
        <time>2017-10-31T10:31:37Z</time>
      </trkpt>
      <trkpt lat="43.04715" lon="0.18926">
        <ele>950.89</ele>
        <time>2017-10-31T10:31:50Z</time>
      </trkpt>
      <trkpt lat="43.04717" lon="0.18932">
        <ele>951.49</ele>
        <time>2017-10-31T10:31:54Z</time>
      </trkpt>
      <trkpt lat="43.04719" lon="0.18941">
        <ele>952.29</ele>
        <time>2017-10-31T10:31:59Z</time>
      </trkpt>
      <trkpt lat="43.04724" lon="0.18968">
        <ele>954.93</ele>
        <time>2017-10-31T10:32:13Z</time>
      </trkpt>
      <trkpt lat="43.04739" lon="0.18996">
        <ele>957.87</ele>
        <time>2017-10-31T10:32:28Z</time>
      </trkpt>
      <trkpt lat="43.04743" lon="0.19019">
        <ele>960.98</ele>
        <time>2017-10-31T10:32:38Z</time>
      </trkpt>
      <trkpt lat="43.04744" lon="0.1904">
        <ele>964.11</ele>
        <time>2017-10-31T10:32:49Z</time>
      </trkpt>
      <trkpt lat="43.04746" lon="0.19068">
        <ele>966.05</ele>
        <time>2017-10-31T10:33:05Z</time>
      </trkpt>
      <trkpt lat="43.04748" lon="0.19093">
        <ele>967</ele>
        <time>2017-10-31T10:33:20Z</time>
      </trkpt>
      <trkpt lat="43.04743" lon="0.19124">
        <ele>968.08</ele>
        <time>2017-10-31T10:33:35Z</time>
      </trkpt>
      <trkpt lat="43.04739" lon="0.19141">
        <ele>969.43</ele>
        <time>2017-10-31T10:33:44Z</time>
      </trkpt>
      <trkpt lat="43.04736" lon="0.19158">
        <ele>971.86</ele>
        <time>2017-10-31T10:33:55Z</time>
      </trkpt>
      <trkpt lat="43.04732" lon="0.19171">
        <ele>972.74</ele>
        <time>2017-10-31T10:34:02Z</time>
      </trkpt>
      <trkpt lat="43.04727" lon="0.19186">
        <ele>973.8</ele>
        <time>2017-10-31T10:34:09Z</time>
      </trkpt>
      <trkpt lat="43.04715" lon="0.19221">
        <ele>974.09</ele>
        <time>2017-10-31T10:34:24Z</time>
      </trkpt>
      <trkpt lat="43.04698" lon="0.19258">
        <ele>975.09</ele>
        <time>2017-10-31T10:34:40Z</time>
      </trkpt>
      <trkpt lat="43.04672" lon="0.19276">
        <ele>975.38</ele>
        <time>2017-10-31T10:34:55Z</time>
      </trkpt>
      <trkpt lat="43.04642" lon="0.19272">
        <ele>976.3</ele>
        <time>2017-10-31T10:35:09Z</time>
      </trkpt>
      <trkpt lat="43.04615" lon="0.19258">
        <ele>976.84</ele>
        <time>2017-10-31T10:35:21Z</time>
      </trkpt>
      <trkpt lat="43.0458" lon="0.1924">
        <ele>978.38</ele>
        <time>2017-10-31T10:35:37Z</time>
      </trkpt>
      <trkpt lat="43.04552" lon="0.19218">
        <ele>980.44</ele>
        <time>2017-10-31T10:35:54Z</time>
      </trkpt>
      <trkpt lat="43.04524" lon="0.19196">
        <ele>981.69</ele>
        <time>2017-10-31T10:36:10Z</time>
      </trkpt>
      <trkpt lat="43.04494" lon="0.19171">
        <ele>981.05</ele>
        <time>2017-10-31T10:36:23Z</time>
      </trkpt>
      <trkpt lat="43.04454" lon="0.19182">
        <ele>977.83</ele>
        <time>2017-10-31T10:36:35Z</time>
      </trkpt>
      <trkpt lat="43.04423" lon="0.19201">
        <ele>976.64</ele>
        <time>2017-10-31T10:36:47Z</time>
      </trkpt>
      <trkpt lat="43.04416" lon="0.19207">
        <ele>976.28</ele>
        <time>2017-10-31T10:36:49Z</time>
      </trkpt>
      <trkpt lat="43.04386" lon="0.19259">
        <ele>973.37</ele>
        <time>2017-10-31T10:37:02Z</time>
      </trkpt>
      <trkpt lat="43.04367" lon="0.19302">
        <ele>973.82</ele>
        <time>2017-10-31T10:37:16Z</time>
      </trkpt>
      <trkpt lat="43.04337" lon="0.19335">
        <ele>974.65</ele>
        <time>2017-10-31T10:37:30Z</time>
      </trkpt>
      <trkpt lat="43.04299" lon="0.19375">
        <ele>973.93</ele>
        <time>2017-10-31T10:37:44Z</time>
      </trkpt>
      <trkpt lat="43.04286" lon="0.19399">
        <ele>973.1</ele>
        <time>2017-10-31T10:37:50Z</time>
      </trkpt>
      <trkpt lat="43.04287" lon="0.1943">
        <ele>971.1</ele>
        <time>2017-10-31T10:37:57Z</time>
      </trkpt>
      <trkpt lat="43.04296" lon="0.19444">
        <ele>970.42</ele>
        <time>2017-10-31T10:38:00Z</time>
      </trkpt>
      <trkpt lat="43.04307" lon="0.19472">
        <ele>968.31</ele>
        <time>2017-10-31T10:38:04Z</time>
      </trkpt>
      <trkpt lat="43.04308" lon="0.19494">
        <ele>966.89</ele>
        <time>2017-10-31T10:38:07Z</time>
      </trkpt>
      <trkpt lat="43.04318" lon="0.19535">
        <ele>965.02</ele>
        <time>2017-10-31T10:38:13Z</time>
      </trkpt>
      <trkpt lat="43.04319" lon="0.19556">
        <ele>964.15</ele>
        <time>2017-10-31T10:38:16Z</time>
      </trkpt>
      <trkpt lat="43.0431" lon="0.19613">
        <ele>963.36</ele>
        <time>2017-10-31T10:38:29Z</time>
      </trkpt>
      <trkpt lat="43.04306" lon="0.19652">
        <ele>962.49</ele>
        <time>2017-10-31T10:38:41Z</time>
      </trkpt>
      <trkpt lat="43.04302" lon="0.19668">
        <ele>961.91</ele>
        <time>2017-10-31T10:38:52Z</time>
      </trkpt>
      <trkpt lat="43.04301" lon="0.19666">
        <ele>961.37</ele>
        <time>2017-10-31T10:39:14Z</time>
      </trkpt>
      <trkpt lat="43.04302" lon="0.19666">
        <ele>960.79</ele>
        <time>2017-10-31T10:39:35Z</time>
      </trkpt>
      <trkpt lat="43.04301" lon="0.19669">
        <ele>961.31</ele>
        <time>2017-10-31T10:39:58Z</time>
      </trkpt>
      <trkpt lat="43.04301" lon="0.19668">
        <ele>961.53</ele>
        <time>2017-10-31T10:40:32Z</time>
      </trkpt>
      <trkpt lat="43.04296" lon="0.19679">
        <ele>961.32</ele>
        <time>2017-10-31T10:40:44Z</time>
      </trkpt>
      <trkpt lat="43.04286" lon="0.197">
        <ele>960.64</ele>
        <time>2017-10-31T10:40:48Z</time>
      </trkpt>
      <trkpt lat="43.04271" lon="0.19727">
        <ele>958.43</ele>
        <time>2017-10-31T10:40:53Z</time>
      </trkpt>
      <trkpt lat="43.04261" lon="0.19742">
        <ele>957.45</ele>
        <time>2017-10-31T10:40:56Z</time>
      </trkpt>
      <trkpt lat="43.04245" lon="0.19782">
        <ele>956.1</ele>
        <time>2017-10-31T10:41:05Z</time>
      </trkpt>
      <trkpt lat="43.04233" lon="0.19802">
        <ele>956.49</ele>
        <time>2017-10-31T10:41:16Z</time>
      </trkpt>
      <trkpt lat="43.04215" lon="0.1982">
        <ele>957.1</ele>
        <time>2017-10-31T10:41:29Z</time>
      </trkpt>
      <trkpt lat="43.04212" lon="0.19822">
        <ele>957.37</ele>
        <time>2017-10-31T10:41:31Z</time>
      </trkpt>
      <trkpt lat="43.04207" lon="0.19822">
        <ele>958.45</ele>
        <time>2017-10-31T10:41:40Z</time>
      </trkpt>
      <trkpt lat="43.04196" lon="0.19822">
        <ele>958.81</ele>
        <time>2017-10-31T10:41:46Z</time>
      </trkpt>
      <trkpt lat="43.0418" lon="0.19834">
        <ele>961.26</ele>
        <time>2017-10-31T10:41:57Z</time>
      </trkpt>
      <trkpt lat="43.04175" lon="0.19839">
        <ele>962.06</ele>
        <time>2017-10-31T10:42:01Z</time>
      </trkpt>
      <trkpt lat="43.04163" lon="0.19846">
        <ele>963.96</ele>
        <time>2017-10-31T10:42:10Z</time>
      </trkpt>
      <trkpt lat="43.0415" lon="0.19855">
        <ele>966.79</ele>
        <time>2017-10-31T10:42:26Z</time>
      </trkpt>
      <trkpt lat="43.04133" lon="0.19867">
        <ele>969.16</ele>
        <time>2017-10-31T10:42:41Z</time>
      </trkpt>
      <trkpt lat="43.04126" lon="0.1987">
        <ele>969.96</ele>
        <time>2017-10-31T10:42:45Z</time>
      </trkpt>
      <trkpt lat="43.04102" lon="0.19886">
        <ele>973.36</ele>
        <time>2017-10-31T10:42:59Z</time>
      </trkpt>
      <trkpt lat="43.04092" lon="0.19891">
        <ele>975.83</ele>
        <time>2017-10-31T10:43:06Z</time>
      </trkpt>
      <trkpt lat="43.04075" lon="0.19902">
        <ele>979.22</ele>
        <time>2017-10-31T10:43:20Z</time>
      </trkpt>
      <trkpt lat="43.04061" lon="0.19915">
        <ele>982</ele>
        <time>2017-10-31T10:43:33Z</time>
      </trkpt>
      <trkpt lat="43.04045" lon="0.19925">
        <ele>984.11</ele>
        <time>2017-10-31T10:43:45Z</time>
      </trkpt>
      <trkpt lat="43.04022" lon="0.19931">
        <ele>986.44</ele>
        <time>2017-10-31T10:44:01Z</time>
      </trkpt>
      <trkpt lat="43.04" lon="0.19926">
        <ele>989.46</ele>
        <time>2017-10-31T10:44:15Z</time>
      </trkpt>
      <trkpt lat="43.03999" lon="0.19925">
        <ele>989.65</ele>
        <time>2017-10-31T10:44:16Z</time>
      </trkpt>
      <trkpt lat="43.03984" lon="0.19921">
        <ele>992.02</ele>
        <time>2017-10-31T10:44:30Z</time>
      </trkpt>
      <trkpt lat="43.03982" lon="0.19921">
        <ele>994.05</ele>
        <time>2017-10-31T10:44:46Z</time>
      </trkpt>
      <trkpt lat="43.03976" lon="0.19919">
        <ele>994.4</ele>
        <time>2017-10-31T10:45:10Z</time>
      </trkpt>
      <trkpt lat="43.03972" lon="0.19919">
        <ele>994.47</ele>
        <time>2017-10-31T10:45:12Z</time>
      </trkpt>
      <trkpt lat="43.0396" lon="0.19907">
        <ele>995.87</ele>
        <time>2017-10-31T10:45:23Z</time>
      </trkpt>
      <trkpt lat="43.03959" lon="0.19907">
        <ele>996.02</ele>
        <time>2017-10-31T10:45:24Z</time>
      </trkpt>
      <trkpt lat="43.03954" lon="0.19902">
        <ele>996.81</ele>
        <time>2017-10-31T10:45:29Z</time>
      </trkpt>
      <trkpt lat="43.03952" lon="0.19899">
        <ele>997.18</ele>
        <time>2017-10-31T10:45:31Z</time>
      </trkpt>
      <trkpt lat="43.03948" lon="0.19892">
        <ele>998.11</ele>
        <time>2017-10-31T10:45:36Z</time>
      </trkpt>
      <trkpt lat="43.03943" lon="0.19887">
        <ele>998.85</ele>
        <time>2017-10-31T10:45:40Z</time>
      </trkpt>
      <trkpt lat="43.03937" lon="0.19879">
        <ele>1000.43</ele>
        <time>2017-10-31T10:45:46Z</time>
      </trkpt>
      <trkpt lat="43.03933" lon="0.19865">
        <ele>1001.42</ele>
        <time>2017-10-31T10:45:53Z</time>
      </trkpt>
      <trkpt lat="43.03931" lon="0.1986">
        <ele>1001.94</ele>
        <time>2017-10-31T10:45:56Z</time>
      </trkpt>
      <trkpt lat="43.03915" lon="0.19845">
        <ele>1004.86</ele>
        <time>2017-10-31T10:46:09Z</time>
      </trkpt>
      <trkpt lat="43.03911" lon="0.19842">
        <ele>1005.57</ele>
        <time>2017-10-31T10:46:13Z</time>
      </trkpt>
      <trkpt lat="43.03896" lon="0.1982">
        <ele>1008.32</ele>
        <time>2017-10-31T10:46:29Z</time>
      </trkpt>
      <trkpt lat="43.03887" lon="0.19805">
        <ele>1010.43</ele>
        <time>2017-10-31T10:46:38Z</time>
      </trkpt>
      <trkpt lat="43.03886" lon="0.19802">
        <ele>1010.73</ele>
        <time>2017-10-31T10:46:40Z</time>
      </trkpt>
      <trkpt lat="43.03882" lon="0.19788">
        <ele>1012.03</ele>
        <time>2017-10-31T10:46:48Z</time>
      </trkpt>
      <trkpt lat="43.03881" lon="0.19787">
        <ele>1012.27</ele>
        <time>2017-10-31T10:46:49Z</time>
      </trkpt>
      <trkpt lat="43.03877" lon="0.1977">
        <ele>1013.08</ele>
        <time>2017-10-31T10:46:59Z</time>
      </trkpt>
      <trkpt lat="43.03879" lon="0.19765">
        <ele>1013.19</ele>
        <time>2017-10-31T10:47:01Z</time>
      </trkpt>
      <trkpt lat="43.0387" lon="0.19749">
        <ele>1013.86</ele>
        <time>2017-10-31T10:47:14Z</time>
      </trkpt>
      <trkpt lat="43.03874" lon="0.19742">
        <ele>1013.83</ele>
        <time>2017-10-31T10:47:41Z</time>
      </trkpt>
      <trkpt lat="43.03871" lon="0.1974">
        <ele>1013.56</ele>
        <time>2017-10-31T10:48:12Z</time>
      </trkpt>
      <trkpt lat="43.03864" lon="0.19748">
        <ele>1013.36</ele>
        <time>2017-10-31T10:48:22Z</time>
      </trkpt>
      <trkpt lat="43.03866" lon="0.19757">
        <ele>1013.49</ele>
        <time>2017-10-31T10:48:27Z</time>
      </trkpt>
      <trkpt lat="43.03867" lon="0.19772">
        <ele>1014.35</ele>
        <time>2017-10-31T10:48:34Z</time>
      </trkpt>
      <trkpt lat="43.03869" lon="0.19788">
        <ele>1015.3</ele>
        <time>2017-10-31T10:48:42Z</time>
      </trkpt>
      <trkpt lat="43.03868" lon="0.19812">
        <ele>1018.23</ele>
        <time>2017-10-31T10:48:54Z</time>
      </trkpt>
      <trkpt lat="43.03864" lon="0.1983">
        <ele>1020.27</ele>
        <time>2017-10-31T10:49:03Z</time>
      </trkpt>
      <trkpt lat="43.03869" lon="0.19856">
        <ele>1022.91</ele>
        <time>2017-10-31T10:49:15Z</time>
      </trkpt>
      <trkpt lat="43.03868" lon="0.1986">
        <ele>1023.25</ele>
        <time>2017-10-31T10:49:17Z</time>
      </trkpt>
      <trkpt lat="43.03868" lon="0.19881">
        <ele>1024.95</ele>
        <time>2017-10-31T10:49:26Z</time>
      </trkpt>
      <trkpt lat="43.03866" lon="0.19893">
        <ele>1026.42</ele>
        <time>2017-10-31T10:49:32Z</time>
      </trkpt>
      <trkpt lat="43.03864" lon="0.19905">
        <ele>1027.69</ele>
        <time>2017-10-31T10:49:37Z</time>
      </trkpt>
      <trkpt lat="43.03865" lon="0.19936">
        <ele>1030.1</ele>
        <time>2017-10-31T10:49:51Z</time>
      </trkpt>
      <trkpt lat="43.03865" lon="0.19938">
        <ele>1030.31</ele>
        <time>2017-10-31T10:49:52Z</time>
      </trkpt>
      <trkpt lat="43.03869" lon="0.19956">
        <ele>1032</ele>
        <time>2017-10-31T10:50:01Z</time>
      </trkpt>
      <trkpt lat="43.0387" lon="0.19967">
        <ele>1032.75</ele>
        <time>2017-10-31T10:50:06Z</time>
      </trkpt>
      <trkpt lat="43.03881" lon="0.19996">
        <ele>1035.44</ele>
        <time>2017-10-31T10:50:18Z</time>
      </trkpt>
      <trkpt lat="43.03885" lon="0.2001">
        <ele>1037.05</ele>
        <time>2017-10-31T10:50:25Z</time>
      </trkpt>
      <trkpt lat="43.03893" lon="0.20021">
        <ele>1038.66</ele>
        <time>2017-10-31T10:50:33Z</time>
      </trkpt>
      <trkpt lat="43.03895" lon="0.20035">
        <ele>1039.58</ele>
        <time>2017-10-31T10:50:41Z</time>
      </trkpt>
      <trkpt lat="43.039" lon="0.20047">
        <ele>1040.54</ele>
        <time>2017-10-31T10:50:48Z</time>
      </trkpt>
      <trkpt lat="43.03909" lon="0.20066">
        <ele>1041.57</ele>
        <time>2017-10-31T10:50:59Z</time>
      </trkpt>
      <trkpt lat="43.03907" lon="0.20066">
        <ele>1042.83</ele>
        <time>2017-10-31T10:51:10Z</time>
      </trkpt>
      <trkpt lat="43.03905" lon="0.20062">
        <ele>1043.1</ele>
        <time>2017-10-31T10:51:14Z</time>
      </trkpt>
      <trkpt lat="43.03903" lon="0.20058">
        <ele>1043.22</ele>
        <time>2017-10-31T10:51:16Z</time>
      </trkpt>
      <trkpt lat="43.03902" lon="0.20055">
        <ele>1043.34</ele>
        <time>2017-10-31T10:51:18Z</time>
      </trkpt>
      <trkpt lat="43.03899" lon="0.20052">
        <ele>1043.7</ele>
        <time>2017-10-31T10:51:21Z</time>
      </trkpt>
      <trkpt lat="43.03888" lon="0.20047">
        <ele>1044.69</ele>
        <time>2017-10-31T10:51:29Z</time>
      </trkpt>
      <trkpt lat="43.03878" lon="0.2004">
        <ele>1046.21</ele>
        <time>2017-10-31T10:51:39Z</time>
      </trkpt>
      <trkpt lat="43.03874" lon="0.20036">
        <ele>1046.73</ele>
        <time>2017-10-31T10:51:42Z</time>
      </trkpt>
      <trkpt lat="43.03864" lon="0.20027">
        <ele>1048.4</ele>
        <time>2017-10-31T10:51:53Z</time>
      </trkpt>
      <trkpt lat="43.03855" lon="0.20012">
        <ele>1050.33</ele>
        <time>2017-10-31T10:52:04Z</time>
      </trkpt>
      <trkpt lat="43.03853" lon="0.19998">
        <ele>1051.44</ele>
        <time>2017-10-31T10:52:11Z</time>
      </trkpt>
      <trkpt lat="43.03836" lon="0.19973">
        <ele>1053.23</ele>
        <time>2017-10-31T10:52:24Z</time>
      </trkpt>
      <trkpt lat="43.03824" lon="0.19958">
        <ele>1055.49</ele>
        <time>2017-10-31T10:52:35Z</time>
      </trkpt>
      <trkpt lat="43.03823" lon="0.19955">
        <ele>1055.87</ele>
        <time>2017-10-31T10:52:38Z</time>
      </trkpt>
      <trkpt lat="43.03821" lon="0.19952">
        <ele>1056.3</ele>
        <time>2017-10-31T10:52:41Z</time>
      </trkpt>
      <trkpt lat="43.03818" lon="0.19949">
        <ele>1056.82</ele>
        <time>2017-10-31T10:52:44Z</time>
      </trkpt>
      <trkpt lat="43.0381" lon="0.19937">
        <ele>1058.26</ele>
        <time>2017-10-31T10:52:55Z</time>
      </trkpt>
      <trkpt lat="43.03808" lon="0.1993">
        <ele>1058.67</ele>
        <time>2017-10-31T10:52:58Z</time>
      </trkpt>
      <trkpt lat="43.03803" lon="0.19915">
        <ele>1060.43</ele>
        <time>2017-10-31T10:53:07Z</time>
      </trkpt>
      <trkpt lat="43.03802" lon="0.19915">
        <ele>1060.71</ele>
        <time>2017-10-31T10:53:09Z</time>
      </trkpt>
      <trkpt lat="43.03804" lon="0.19918">
        <ele>1061.35</ele>
        <time>2017-10-31T10:53:16Z</time>
      </trkpt>
      <trkpt lat="43.03802" lon="0.19912">
        <ele>1061.55</ele>
        <time>2017-10-31T10:53:29Z</time>
      </trkpt>
      <trkpt lat="43.03808" lon="0.19916">
        <ele>1061.48</ele>
        <time>2017-10-31T10:53:44Z</time>
      </trkpt>
      <trkpt lat="43.03805" lon="0.19914">
        <ele>1061.27</ele>
        <time>2017-10-31T10:53:55Z</time>
      </trkpt>
      <trkpt lat="43.03802" lon="0.19915">
        <ele>1061.18</ele>
        <time>2017-10-31T10:54:17Z</time>
      </trkpt>
      <trkpt lat="43.038" lon="0.19919">
        <ele>1061.54</ele>
        <time>2017-10-31T10:54:41Z</time>
      </trkpt>
      <trkpt lat="43.03804" lon="0.19947">
        <ele>1062.19</ele>
        <time>2017-10-31T10:54:56Z</time>
      </trkpt>
      <trkpt lat="43.03806" lon="0.19956">
        <ele>1062.56</ele>
        <time>2017-10-31T10:55:01Z</time>
      </trkpt>
      <trkpt lat="43.03807" lon="0.19962">
        <ele>1063.13</ele>
        <time>2017-10-31T10:55:05Z</time>
      </trkpt>
      <trkpt lat="43.03809" lon="0.19979">
        <ele>1064.52</ele>
        <time>2017-10-31T10:55:17Z</time>
      </trkpt>
      <trkpt lat="43.0381" lon="0.19982">
        <ele>1064.81</ele>
        <time>2017-10-31T10:55:19Z</time>
      </trkpt>
      <trkpt lat="43.03813" lon="0.19997">
        <ele>1065.82</ele>
        <time>2017-10-31T10:55:28Z</time>
      </trkpt>
      <trkpt lat="43.03811" lon="0.20006">
        <ele>1066.15</ele>
        <time>2017-10-31T10:55:32Z</time>
      </trkpt>
      <trkpt lat="43.0381" lon="0.20018">
        <ele>1066.53</ele>
        <time>2017-10-31T10:55:39Z</time>
      </trkpt>
      <trkpt lat="43.03811" lon="0.20032">
        <ele>1068.45</ele>
        <time>2017-10-31T10:55:51Z</time>
      </trkpt>
      <trkpt lat="43.03814" lon="0.20048">
        <ele>1069.76</ele>
        <time>2017-10-31T10:56:01Z</time>
      </trkpt>
      <trkpt lat="43.03814" lon="0.20061">
        <ele>1071.1</ele>
        <time>2017-10-31T10:56:10Z</time>
      </trkpt>
      <trkpt lat="43.0382" lon="0.20086">
        <ele>1073.31</ele>
        <time>2017-10-31T10:56:26Z</time>
      </trkpt>
      <trkpt lat="43.03831" lon="0.20105">
        <ele>1075.92</ele>
        <time>2017-10-31T10:56:42Z</time>
      </trkpt>
      <trkpt lat="43.03831" lon="0.20121">
        <ele>1076.31</ele>
        <time>2017-10-31T10:56:50Z</time>
      </trkpt>
      <trkpt lat="43.03831" lon="0.2014">
        <ele>1077.34</ele>
        <time>2017-10-31T10:56:59Z</time>
      </trkpt>
      <trkpt lat="43.0383" lon="0.20163">
        <ele>1078.15</ele>
        <time>2017-10-31T10:57:10Z</time>
      </trkpt>
      <trkpt lat="43.03828" lon="0.20182">
        <ele>1080.34</ele>
        <time>2017-10-31T10:57:25Z</time>
      </trkpt>
      <trkpt lat="43.03831" lon="0.20196">
        <ele>1081.57</ele>
        <time>2017-10-31T10:57:34Z</time>
      </trkpt>
      <trkpt lat="43.03823" lon="0.20216">
        <ele>1083.48</ele>
        <time>2017-10-31T10:57:47Z</time>
      </trkpt>
      <trkpt lat="43.03819" lon="0.20233">
        <ele>1085.46</ele>
        <time>2017-10-31T10:57:58Z</time>
      </trkpt>
      <trkpt lat="43.03815" lon="0.20243">
        <ele>1086.77</ele>
        <time>2017-10-31T10:58:05Z</time>
      </trkpt>
      <trkpt lat="43.03808" lon="0.20275">
        <ele>1089.24</ele>
        <time>2017-10-31T10:58:24Z</time>
      </trkpt>
      <trkpt lat="43.03806" lon="0.20294">
        <ele>1092.03</ele>
        <time>2017-10-31T10:58:38Z</time>
      </trkpt>
      <trkpt lat="43.03797" lon="0.20316">
        <ele>1093.66</ele>
        <time>2017-10-31T10:58:46Z</time>
      </trkpt>
      <trkpt lat="43.03795" lon="0.20322">
        <ele>1094.38</ele>
        <time>2017-10-31T10:58:49Z</time>
      </trkpt>
      <trkpt lat="43.03791" lon="0.20337">
        <ele>1095.6</ele>
        <time>2017-10-31T10:58:59Z</time>
      </trkpt>
      <trkpt lat="43.03789" lon="0.20369">
        <ele>1098.58</ele>
        <time>2017-10-31T10:59:17Z</time>
      </trkpt>
      <trkpt lat="43.03783" lon="0.20397">
        <ele>1102.1</ele>
        <time>2017-10-31T10:59:35Z</time>
      </trkpt>
      <trkpt lat="43.03778" lon="0.20416">
        <ele>1103.67</ele>
        <time>2017-10-31T10:59:43Z</time>
      </trkpt>
      <trkpt lat="43.03769" lon="0.20436">
        <ele>1105.24</ele>
        <time>2017-10-31T10:59:52Z</time>
      </trkpt>
      <trkpt lat="43.03768" lon="0.20446">
        <ele>1105.83</ele>
        <time>2017-10-31T10:59:57Z</time>
      </trkpt>
      <trkpt lat="43.03764" lon="0.2045">
        <ele>1106.07</ele>
        <time>2017-10-31T11:00:01Z</time>
      </trkpt>
      <trkpt lat="43.03765" lon="0.20455">
        <ele>1107.31</ele>
        <time>2017-10-31T11:00:12Z</time>
      </trkpt>
      <trkpt lat="43.03768" lon="0.20448">
        <ele>1107.7</ele>
        <time>2017-10-31T11:00:16Z</time>
      </trkpt>
      <trkpt lat="43.03768" lon="0.20439">
        <ele>1108.16</ele>
        <time>2017-10-31T11:00:22Z</time>
      </trkpt>
      <trkpt lat="43.03765" lon="0.20411">
        <ele>1109.83</ele>
        <time>2017-10-31T11:00:36Z</time>
      </trkpt>
      <trkpt lat="43.03765" lon="0.20408">
        <ele>1110.12</ele>
        <time>2017-10-31T11:00:38Z</time>
      </trkpt>
      <trkpt lat="43.03759" lon="0.20392">
        <ele>1112.61</ele>
        <time>2017-10-31T11:00:49Z</time>
      </trkpt>
      <trkpt lat="43.03759" lon="0.20385">
        <ele>1113.7</ele>
        <time>2017-10-31T11:00:54Z</time>
      </trkpt>
      <trkpt lat="43.03759" lon="0.20379">
        <ele>1114.27</ele>
        <time>2017-10-31T11:00:57Z</time>
      </trkpt>
      <trkpt lat="43.03758" lon="0.20366">
        <ele>1115.65</ele>
        <time>2017-10-31T11:01:04Z</time>
      </trkpt>
      <trkpt lat="43.03758" lon="0.20361">
        <ele>1116.36</ele>
        <time>2017-10-31T11:01:07Z</time>
      </trkpt>
      <trkpt lat="43.03757" lon="0.20345">
        <ele>1118.33</ele>
        <time>2017-10-31T11:01:17Z</time>
      </trkpt>
      <trkpt lat="43.03757" lon="0.20337">
        <ele>1119.53</ele>
        <time>2017-10-31T11:01:23Z</time>
      </trkpt>
      <trkpt lat="43.03753" lon="0.20324">
        <ele>1121.29</ele>
        <time>2017-10-31T11:01:32Z</time>
      </trkpt>
      <trkpt lat="43.03751" lon="0.20313">
        <ele>1122.18</ele>
        <time>2017-10-31T11:01:40Z</time>
      </trkpt>
      <trkpt lat="43.03745" lon="0.20301">
        <ele>1123.54</ele>
        <time>2017-10-31T11:01:48Z</time>
      </trkpt>
      <trkpt lat="43.03744" lon="0.20272">
        <ele>1126.72</ele>
        <time>2017-10-31T11:02:01Z</time>
      </trkpt>
      <trkpt lat="43.03737" lon="0.20268">
        <ele>1127.4</ele>
        <time>2017-10-31T11:02:05Z</time>
      </trkpt>
      <trkpt lat="43.0372" lon="0.20273">
        <ele>1129.2</ele>
        <time>2017-10-31T11:02:19Z</time>
      </trkpt>
      <trkpt lat="43.03709" lon="0.20291">
        <ele>1131.08</ele>
        <time>2017-10-31T11:02:29Z</time>
      </trkpt>
      <trkpt lat="43.03703" lon="0.20299">
        <ele>1132.47</ele>
        <time>2017-10-31T11:02:35Z</time>
      </trkpt>
      <trkpt lat="43.037" lon="0.20302">
        <ele>1132.75</ele>
        <time>2017-10-31T11:02:37Z</time>
      </trkpt>
      <trkpt lat="43.03693" lon="0.20308">
        <ele>1132.81</ele>
        <time>2017-10-31T11:02:41Z</time>
      </trkpt>
      <trkpt lat="43.03685" lon="0.20321">
        <ele>1133.23</ele>
        <time>2017-10-31T11:02:50Z</time>
      </trkpt>
      <trkpt lat="43.03681" lon="0.20329">
        <ele>1133.74</ele>
        <time>2017-10-31T11:03:00Z</time>
      </trkpt>
      <trkpt lat="43.03678" lon="0.20327">
        <ele>1134.29</ele>
        <time>2017-10-31T11:03:25Z</time>
      </trkpt>
      <trkpt lat="43.03674" lon="0.20319">
        <ele>1134.32</ele>
        <time>2017-10-31T11:03:45Z</time>
      </trkpt>
      <trkpt lat="43.03675" lon="0.2033">
        <ele>1134.49</ele>
        <time>2017-10-31T11:04:08Z</time>
      </trkpt>
      <trkpt lat="43.03678" lon="0.20326">
        <ele>1135.06</ele>
        <time>2017-10-31T11:04:32Z</time>
      </trkpt>
      <trkpt lat="43.03674" lon="0.20323">
        <ele>1135.61</ele>
        <time>2017-10-31T11:05:09Z</time>
      </trkpt>
      <trkpt lat="43.03677" lon="0.20331">
        <ele>1135.04</ele>
        <time>2017-10-31T11:05:39Z</time>
      </trkpt>
      <trkpt lat="43.03676" lon="0.20335">
        <ele>1135.49</ele>
        <time>2017-10-31T11:06:34Z</time>
      </trkpt>
      <trkpt lat="43.03675" lon="0.20334">
        <ele>1136.2</ele>
        <time>2017-10-31T11:07:32Z</time>
      </trkpt>
      <trkpt lat="43.03673" lon="0.20332">
        <ele>1136.67</ele>
        <time>2017-10-31T11:08:06Z</time>
      </trkpt>
      <trkpt lat="43.03671" lon="0.20334">
        <ele>1136.72</ele>
        <time>2017-10-31T11:08:11Z</time>
      </trkpt>
      <trkpt lat="43.03668" lon="0.20345">
        <ele>1136.5</ele>
        <time>2017-10-31T11:08:16Z</time>
      </trkpt>
      <trkpt lat="43.03662" lon="0.20353">
        <ele>1135.83</ele>
        <time>2017-10-31T11:08:23Z</time>
      </trkpt>
      <trkpt lat="43.03648" lon="0.20374">
        <ele>1136.12</ele>
        <time>2017-10-31T11:08:34Z</time>
      </trkpt>
      <trkpt lat="43.03645" lon="0.2038">
        <ele>1136.15</ele>
        <time>2017-10-31T11:08:37Z</time>
      </trkpt>
      <trkpt lat="43.0364" lon="0.20388">
        <ele>1136.31</ele>
        <time>2017-10-31T11:08:41Z</time>
      </trkpt>
      <trkpt lat="43.03632" lon="0.20398">
        <ele>1136.84</ele>
        <time>2017-10-31T11:08:47Z</time>
      </trkpt>
      <trkpt lat="43.03615" lon="0.20412">
        <ele>1136.77</ele>
        <time>2017-10-31T11:08:59Z</time>
      </trkpt>
      <trkpt lat="43.03607" lon="0.20421">
        <ele>1136.94</ele>
        <time>2017-10-31T11:09:05Z</time>
      </trkpt>
      <trkpt lat="43.03586" lon="0.20449">
        <ele>1137.02</ele>
        <time>2017-10-31T11:09:18Z</time>
      </trkpt>
      <trkpt lat="43.03583" lon="0.20455">
        <ele>1136.99</ele>
        <time>2017-10-31T11:09:21Z</time>
      </trkpt>
      <trkpt lat="43.03566" lon="0.20485">
        <ele>1137.55</ele>
        <time>2017-10-31T11:09:34Z</time>
      </trkpt>
      <trkpt lat="43.03564" lon="0.20491">
        <ele>1137.55</ele>
        <time>2017-10-31T11:09:36Z</time>
      </trkpt>
      <trkpt lat="43.03546" lon="0.2053">
        <ele>1138.69</ele>
        <time>2017-10-31T11:09:50Z</time>
      </trkpt>
      <trkpt lat="43.03541" lon="0.20539">
        <ele>1139.18</ele>
        <time>2017-10-31T11:09:54Z</time>
      </trkpt>
      <trkpt lat="43.03527" lon="0.20561">
        <ele>1140.95</ele>
        <time>2017-10-31T11:10:06Z</time>
      </trkpt>
      <trkpt lat="43.03515" lon="0.20587">
        <ele>1141.61</ele>
        <time>2017-10-31T11:10:19Z</time>
      </trkpt>
      <trkpt lat="43.03507" lon="0.20607">
        <ele>1142.85</ele>
        <time>2017-10-31T11:10:31Z</time>
      </trkpt>
      <trkpt lat="43.03494" lon="0.20625">
        <ele>1145.14</ele>
        <time>2017-10-31T11:10:44Z</time>
      </trkpt>
      <trkpt lat="43.03486" lon="0.20634">
        <ele>1146.03</ele>
        <time>2017-10-31T11:10:52Z</time>
      </trkpt>
      <trkpt lat="43.0348" lon="0.20644">
        <ele>1146.41</ele>
        <time>2017-10-31T11:10:58Z</time>
      </trkpt>
      <trkpt lat="43.03466" lon="0.20661">
        <ele>1147.82</ele>
        <time>2017-10-31T11:11:09Z</time>
      </trkpt>
      <trkpt lat="43.03453" lon="0.20677">
        <ele>1149.53</ele>
        <time>2017-10-31T11:11:17Z</time>
      </trkpt>
      <trkpt lat="43.0344" lon="0.20696">
        <ele>1152.87</ele>
        <time>2017-10-31T11:11:29Z</time>
      </trkpt>
      <trkpt lat="43.03434" lon="0.20705">
        <ele>1154.11</ele>
        <time>2017-10-31T11:11:34Z</time>
      </trkpt>
      <trkpt lat="43.03417" lon="0.20724">
        <ele>1157.36</ele>
        <time>2017-10-31T11:11:47Z</time>
      </trkpt>
      <trkpt lat="43.03402" lon="0.20741">
        <ele>1159.47</ele>
        <time>2017-10-31T11:12:00Z</time>
      </trkpt>
      <trkpt lat="43.03388" lon="0.20751">
        <ele>1160.43</ele>
        <time>2017-10-31T11:12:06Z</time>
      </trkpt>
      <trkpt lat="43.03349" lon="0.20773">
        <ele>1161.88</ele>
        <time>2017-10-31T11:12:17Z</time>
      </trkpt>
      <trkpt lat="43.03348" lon="0.20775">
        <ele>1164.34</ele>
        <time>2017-10-31T11:12:28Z</time>
      </trkpt>
      <trkpt lat="43.03345" lon="0.20773">
        <ele>1165</ele>
        <time>2017-10-31T11:12:36Z</time>
      </trkpt>
      <trkpt lat="43.03344" lon="0.20771">
        <ele>1165.3</ele>
        <time>2017-10-31T11:13:00Z</time>
      </trkpt>
      <trkpt lat="43.03347" lon="0.20769">
        <ele>1165</ele>
        <time>2017-10-31T11:13:26Z</time>
      </trkpt>
      <trkpt lat="43.03348" lon="0.20772">
        <ele>1164.53</ele>
        <time>2017-10-31T11:13:47Z</time>
      </trkpt>
      <trkpt lat="43.03348" lon="0.20774">
        <ele>1164.7</ele>
        <time>2017-10-31T11:14:07Z</time>
      </trkpt>
      <trkpt lat="43.03339" lon="0.20768">
        <ele>1165.46</ele>
        <time>2017-10-31T11:14:21Z</time>
      </trkpt>
      <trkpt lat="43.03331" lon="0.20773">
        <ele>1165.26</ele>
        <time>2017-10-31T11:14:25Z</time>
      </trkpt>
      <trkpt lat="43.03313" lon="0.20793">
        <ele>1165.2</ele>
        <time>2017-10-31T11:14:36Z</time>
      </trkpt>
      <trkpt lat="43.03308" lon="0.20796">
        <ele>1165.54</ele>
        <time>2017-10-31T11:14:50Z</time>
      </trkpt>
      <trkpt lat="43.03303" lon="0.2079">
        <ele>1165.58</ele>
        <time>2017-10-31T11:15:14Z</time>
      </trkpt>
      <trkpt lat="43.03295" lon="0.20783">
        <ele>1165.39</ele>
        <time>2017-10-31T11:15:39Z</time>
      </trkpt>
      <trkpt lat="43.03295" lon="0.20801">
        <ele>1164.88</ele>
        <time>2017-10-31T11:15:49Z</time>
      </trkpt>
      <trkpt lat="43.03293" lon="0.20806">
        <ele>1164.47</ele>
        <time>2017-10-31T11:15:51Z</time>
      </trkpt>
      <trkpt lat="43.03291" lon="0.2081">
        <ele>1164.1</ele>
        <time>2017-10-31T11:15:53Z</time>
      </trkpt>
      <trkpt lat="43.03285" lon="0.20816">
        <ele>1163.36</ele>
        <time>2017-10-31T11:15:57Z</time>
      </trkpt>
      <trkpt lat="43.03275" lon="0.20821">
        <ele>1162.19</ele>
        <time>2017-10-31T11:16:02Z</time>
      </trkpt>
      <trkpt lat="43.03268" lon="0.20832">
        <ele>1160.36</ele>
        <time>2017-10-31T11:16:07Z</time>
      </trkpt>
      <trkpt lat="43.03257" lon="0.20846">
        <ele>1156.73</ele>
        <time>2017-10-31T11:16:17Z</time>
      </trkpt>
      <trkpt lat="43.03254" lon="0.20848">
        <ele>1155.65</ele>
        <time>2017-10-31T11:16:19Z</time>
      </trkpt>
      <trkpt lat="43.0323" lon="0.20862">
        <ele>1152.26</ele>
        <time>2017-10-31T11:16:30Z</time>
      </trkpt>
      <trkpt lat="43.0322" lon="0.20867">
        <ele>1150.43</ele>
        <time>2017-10-31T11:16:34Z</time>
      </trkpt>
      <trkpt lat="43.03203" lon="0.20874">
        <ele>1146.76</ele>
        <time>2017-10-31T11:16:42Z</time>
      </trkpt>
      <trkpt lat="43.03196" lon="0.20875">
        <ele>1145.74</ele>
        <time>2017-10-31T11:16:45Z</time>
      </trkpt>
      <trkpt lat="43.03187" lon="0.20881">
        <ele>1143.75</ele>
        <time>2017-10-31T11:16:51Z</time>
      </trkpt>
      <trkpt lat="43.03183" lon="0.20885">
        <ele>1143.42</ele>
        <time>2017-10-31T11:16:53Z</time>
      </trkpt>
      <trkpt lat="43.03148" lon="0.20906">
        <ele>1140.61</ele>
        <time>2017-10-31T11:17:04Z</time>
      </trkpt>
      <trkpt lat="43.03125" lon="0.20929">
        <ele>1139.55</ele>
        <time>2017-10-31T11:17:14Z</time>
      </trkpt>
      <trkpt lat="43.03098" lon="0.2095">
        <ele>1138.44</ele>
        <time>2017-10-31T11:17:26Z</time>
      </trkpt>
      <trkpt lat="43.03079" lon="0.20964">
        <ele>1138.2</ele>
        <time>2017-10-31T11:17:35Z</time>
      </trkpt>
      <trkpt lat="43.03066" lon="0.20981">
        <ele>1136.88</ele>
        <time>2017-10-31T11:17:46Z</time>
      </trkpt>
      <trkpt lat="43.03048" lon="0.20983">
        <ele>1136.43</ele>
        <time>2017-10-31T11:18:09Z</time>
      </trkpt>
      <trkpt lat="43.0304" lon="0.20999">
        <ele>1135.82</ele>
        <time>2017-10-31T11:18:31Z</time>
      </trkpt>
      <trkpt lat="43.0304" lon="0.21">
        <ele>1135.51</ele>
        <time>2017-10-31T11:18:38Z</time>
      </trkpt>
      <trkpt lat="43.03039" lon="0.21003">
        <ele>1135.16</ele>
        <time>2017-10-31T11:18:46Z</time>
      </trkpt>
      <trkpt lat="43.03019" lon="0.2101">
        <ele>1133.39</ele>
        <time>2017-10-31T11:19:00Z</time>
      </trkpt>
      <trkpt lat="43.03014" lon="0.21011">
        <ele>1133.34</ele>
        <time>2017-10-31T11:19:03Z</time>
      </trkpt>
      <trkpt lat="43.03002" lon="0.21019">
        <ele>1133.52</ele>
        <time>2017-10-31T11:19:10Z</time>
      </trkpt>
      <trkpt lat="43.02999" lon="0.21021">
        <ele>1133.66</ele>
        <time>2017-10-31T11:19:12Z</time>
      </trkpt>
      <trkpt lat="43.02988" lon="0.2103">
        <ele>1135.01</ele>
        <time>2017-10-31T11:19:18Z</time>
      </trkpt>
      <trkpt lat="43.0298" lon="0.21029">
        <ele>1136.67</ele>
        <time>2017-10-31T11:19:23Z</time>
      </trkpt>
      <trkpt lat="43.02965" lon="0.21037">
        <ele>1139.95</ele>
        <time>2017-10-31T11:19:33Z</time>
      </trkpt>
      <trkpt lat="43.02961" lon="0.21039">
        <ele>1140.35</ele>
        <time>2017-10-31T11:19:35Z</time>
      </trkpt>
      <trkpt lat="43.02957" lon="0.21037">
        <ele>1140.69</ele>
        <time>2017-10-31T11:19:37Z</time>
      </trkpt>
      <trkpt lat="43.02948" lon="0.2105">
        <ele>1142.3</ele>
        <time>2017-10-31T11:19:43Z</time>
      </trkpt>
      <trkpt lat="43.02943" lon="0.21045">
        <ele>1143.9</ele>
        <time>2017-10-31T11:19:57Z</time>
      </trkpt>
      <trkpt lat="43.02933" lon="0.21046">
        <ele>1146.5</ele>
        <time>2017-10-31T11:20:12Z</time>
      </trkpt>
      <trkpt lat="43.0292" lon="0.21061">
        <ele>1149</ele>
        <time>2017-10-31T11:20:30Z</time>
      </trkpt>
      <trkpt lat="43.02918" lon="0.21067">
        <ele>1151.31</ele>
        <time>2017-10-31T11:20:45Z</time>
      </trkpt>
      <trkpt lat="43.02916" lon="0.21072">
        <ele>1151.78</ele>
        <time>2017-10-31T11:21:07Z</time>
      </trkpt>
      <trkpt lat="43.02901" lon="0.21084">
        <ele>1153.88</ele>
        <time>2017-10-31T11:21:27Z</time>
      </trkpt>
      <trkpt lat="43.02894" lon="0.21091">
        <ele>1156.26</ele>
        <time>2017-10-31T11:21:40Z</time>
      </trkpt>
      <trkpt lat="43.02886" lon="0.21085">
        <ele>1159.46</ele>
        <time>2017-10-31T11:21:57Z</time>
      </trkpt>
      <trkpt lat="43.02883" lon="0.2109">
        <ele>1159.66</ele>
        <time>2017-10-31T11:22:22Z</time>
      </trkpt>
      <trkpt lat="43.02871" lon="0.21093">
        <ele>1160.71</ele>
        <time>2017-10-31T11:22:40Z</time>
      </trkpt>
      <trkpt lat="43.02869" lon="0.21095">
        <ele>1160.95</ele>
        <time>2017-10-31T11:22:42Z</time>
      </trkpt>
      <trkpt lat="43.02863" lon="0.21102">
        <ele>1161.93</ele>
        <time>2017-10-31T11:22:48Z</time>
      </trkpt>
      <trkpt lat="43.02858" lon="0.21104">
        <ele>1162.94</ele>
        <time>2017-10-31T11:22:54Z</time>
      </trkpt>
      <trkpt lat="43.02854" lon="0.21113">
        <ele>1164.45</ele>
        <time>2017-10-31T11:23:03Z</time>
      </trkpt>
      <trkpt lat="43.02852" lon="0.21118">
        <ele>1164.61</ele>
        <time>2017-10-31T11:23:06Z</time>
      </trkpt>
      <trkpt lat="43.02851" lon="0.2113">
        <ele>1165.81</ele>
        <time>2017-10-31T11:23:21Z</time>
      </trkpt>
      <trkpt lat="43.02846" lon="0.21135">
        <ele>1167.63</ele>
        <time>2017-10-31T11:23:38Z</time>
      </trkpt>
      <trkpt lat="43.02837" lon="0.21136">
        <ele>1170.1</ele>
        <time>2017-10-31T11:23:51Z</time>
      </trkpt>
      <trkpt lat="43.02835" lon="0.21135">
        <ele>1171.16</ele>
        <time>2017-10-31T11:24:01Z</time>
      </trkpt>
      <trkpt lat="43.02816" lon="0.21138">
        <ele>1172.25</ele>
        <time>2017-10-31T11:24:12Z</time>
      </trkpt>
      <trkpt lat="43.02812" lon="0.21138">
        <ele>1172.51</ele>
        <time>2017-10-31T11:24:14Z</time>
      </trkpt>
      <trkpt lat="43.02808" lon="0.21138">
        <ele>1173</ele>
        <time>2017-10-31T11:24:17Z</time>
      </trkpt>
      <trkpt lat="43.02801" lon="0.21141">
        <ele>1173.65</ele>
        <time>2017-10-31T11:24:32Z</time>
      </trkpt>
      <trkpt lat="43.028" lon="0.21148">
        <ele>1173.77</ele>
        <time>2017-10-31T11:24:59Z</time>
      </trkpt>
      <trkpt lat="43.02794" lon="0.21151">
        <ele>1173.87</ele>
        <time>2017-10-31T11:25:18Z</time>
      </trkpt>
      <trkpt lat="43.02779" lon="0.21172">
        <ele>1171.47</ele>
        <time>2017-10-31T11:25:30Z</time>
      </trkpt>
      <trkpt lat="43.0277" lon="0.21179">
        <ele>1170.33</ele>
        <time>2017-10-31T11:25:34Z</time>
      </trkpt>
      <trkpt lat="43.02748" lon="0.21198">
        <ele>1166.8</ele>
        <time>2017-10-31T11:25:45Z</time>
      </trkpt>
      <trkpt lat="43.02732" lon="0.2122">
        <ele>1165.87</ele>
        <time>2017-10-31T11:25:56Z</time>
      </trkpt>
      <trkpt lat="43.02729" lon="0.21225">
        <ele>1165.68</ele>
        <time>2017-10-31T11:25:58Z</time>
      </trkpt>
      <trkpt lat="43.0272" lon="0.21242">
        <ele>1165.09</ele>
        <time>2017-10-31T11:26:11Z</time>
      </trkpt>
      <trkpt lat="43.02702" lon="0.21263">
        <ele>1165.43</ele>
        <time>2017-10-31T11:26:23Z</time>
      </trkpt>
      <trkpt lat="43.02691" lon="0.2129">
        <ele>1166.11</ele>
        <time>2017-10-31T11:26:36Z</time>
      </trkpt>
      <trkpt lat="43.02681" lon="0.2131">
        <ele>1166.82</ele>
        <time>2017-10-31T11:26:48Z</time>
      </trkpt>
      <trkpt lat="43.02674" lon="0.21324">
        <ele>1167.66</ele>
        <time>2017-10-31T11:26:55Z</time>
      </trkpt>
      <trkpt lat="43.0267" lon="0.21332">
        <ele>1168.62</ele>
        <time>2017-10-31T11:27:00Z</time>
      </trkpt>
      <trkpt lat="43.02663" lon="0.21359">
        <ele>1170.87</ele>
        <time>2017-10-31T11:27:13Z</time>
      </trkpt>
      <trkpt lat="43.02662" lon="0.21362">
        <ele>1171.07</ele>
        <time>2017-10-31T11:27:14Z</time>
      </trkpt>
      <trkpt lat="43.02662" lon="0.21374">
        <ele>1172.55</ele>
        <time>2017-10-31T11:27:20Z</time>
      </trkpt>
      <trkpt lat="43.02655" lon="0.21388">
        <ele>1175.27</ele>
        <time>2017-10-31T11:27:25Z</time>
      </trkpt>
      <trkpt lat="43.02646" lon="0.21397">
        <ele>1178.83</ele>
        <time>2017-10-31T11:27:31Z</time>
      </trkpt>
      <trkpt lat="43.02646" lon="0.21397">
        <ele>1179.23</ele>
        <time>2017-10-31T11:27:32Z</time>
      </trkpt>
      <trkpt lat="43.02634" lon="0.21409">
        <ele>1182.69</ele>
        <time>2017-10-31T11:27:47Z</time>
      </trkpt>
      <trkpt lat="43.02631" lon="0.21419">
        <ele>1185.4</ele>
        <time>2017-10-31T11:28:03Z</time>
      </trkpt>
      <trkpt lat="43.02625" lon="0.21426">
        <ele>1188.2</ele>
        <time>2017-10-31T11:28:23Z</time>
      </trkpt>
      <trkpt lat="43.02613" lon="0.21435">
        <ele>1190.69</ele>
        <time>2017-10-31T11:28:42Z</time>
      </trkpt>
      <trkpt lat="43.02603" lon="0.21449">
        <ele>1193.64</ele>
        <time>2017-10-31T11:29:00Z</time>
      </trkpt>
      <trkpt lat="43.02599" lon="0.21453">
        <ele>1195.32</ele>
        <time>2017-10-31T11:29:13Z</time>
      </trkpt>
      <trkpt lat="43.02598" lon="0.21453">
        <ele>1195.42</ele>
        <time>2017-10-31T11:29:14Z</time>
      </trkpt>
      <trkpt lat="43.02592" lon="0.21458">
        <ele>1195.42</ele>
        <time>2017-10-31T11:29:19Z</time>
      </trkpt>
      <trkpt lat="43.02582" lon="0.21465">
        <ele>1195.78</ele>
        <time>2017-10-31T11:29:26Z</time>
      </trkpt>
      <trkpt lat="43.02579" lon="0.21468">
        <ele>1195.99</ele>
        <time>2017-10-31T11:29:28Z</time>
      </trkpt>
      <trkpt lat="43.02575" lon="0.21473">
        <ele>1196.16</ele>
        <time>2017-10-31T11:29:30Z</time>
      </trkpt>
      <trkpt lat="43.02564" lon="0.21487">
        <ele>1197.78</ele>
        <time>2017-10-31T11:29:38Z</time>
      </trkpt>
      <trkpt lat="43.02559" lon="0.21491">
        <ele>1198.32</ele>
        <time>2017-10-31T11:29:41Z</time>
      </trkpt>
      <trkpt lat="43.02549" lon="0.21513">
        <ele>1197.98</ele>
        <time>2017-10-31T11:29:53Z</time>
      </trkpt>
      <trkpt lat="43.02546" lon="0.21519">
        <ele>1197.86</ele>
        <time>2017-10-31T11:29:55Z</time>
      </trkpt>
      <trkpt lat="43.02539" lon="0.21532">
        <ele>1197.55</ele>
        <time>2017-10-31T11:29:59Z</time>
      </trkpt>
      <trkpt lat="43.02518" lon="0.21544">
        <ele>1196.68</ele>
        <time>2017-10-31T11:30:08Z</time>
      </trkpt>
      <trkpt lat="43.02506" lon="0.21564">
        <ele>1195.31</ele>
        <time>2017-10-31T11:30:17Z</time>
      </trkpt>
      <trkpt lat="43.02493" lon="0.21586">
        <ele>1194.74</ele>
        <time>2017-10-31T11:30:24Z</time>
      </trkpt>
      <trkpt lat="43.0249" lon="0.21596">
        <ele>1194.42</ele>
        <time>2017-10-31T11:30:28Z</time>
      </trkpt>
      <trkpt lat="43.02483" lon="0.21612">
        <ele>1194.72</ele>
        <time>2017-10-31T11:30:33Z</time>
      </trkpt>
      <trkpt lat="43.02468" lon="0.21628">
        <ele>1194.45</ele>
        <time>2017-10-31T11:30:42Z</time>
      </trkpt>
      <trkpt lat="43.02465" lon="0.21633">
        <ele>1194.16</ele>
        <time>2017-10-31T11:30:44Z</time>
      </trkpt>
      <trkpt lat="43.02462" lon="0.21637">
        <ele>1193.97</ele>
        <time>2017-10-31T11:30:46Z</time>
      </trkpt>
      <trkpt lat="43.02438" lon="0.21651">
        <ele>1194.76</ele>
        <time>2017-10-31T11:30:57Z</time>
      </trkpt>
      <trkpt lat="43.02434" lon="0.21648">
        <ele>1195.58</ele>
        <time>2017-10-31T11:31:11Z</time>
      </trkpt>
      <trkpt lat="43.02436" lon="0.2165">
        <ele>1195.44</ele>
        <time>2017-10-31T11:31:16Z</time>
      </trkpt>
      <trkpt lat="43.02441" lon="0.21649">
        <ele>1195.88</ele>
        <time>2017-10-31T11:31:43Z</time>
      </trkpt>
      <trkpt lat="43.02446" lon="0.2165">
        <ele>1195.93</ele>
        <time>2017-10-31T11:32:18Z</time>
      </trkpt>
      <trkpt lat="43.02447" lon="0.21647">
        <ele>1196.54</ele>
        <time>2017-10-31T11:32:58Z</time>
      </trkpt>
      <trkpt lat="43.02445" lon="0.21647">
        <ele>1196.47</ele>
        <time>2017-10-31T11:33:08Z</time>
      </trkpt>
      <trkpt lat="43.02432" lon="0.21641">
        <ele>1196.63</ele>
        <time>2017-10-31T11:33:15Z</time>
      </trkpt>
      <trkpt lat="43.02424" lon="0.21635">
        <ele>1197.7</ele>
        <time>2017-10-31T11:33:19Z</time>
      </trkpt>
      <trkpt lat="43.02403" lon="0.21614">
        <ele>1200.91</ele>
        <time>2017-10-31T11:33:31Z</time>
      </trkpt>
      <trkpt lat="43.02398" lon="0.21594">
        <ele>1203.81</ele>
        <time>2017-10-31T11:33:39Z</time>
      </trkpt>
      <trkpt lat="43.02391" lon="0.21564">
        <ele>1206.92</ele>
        <time>2017-10-31T11:33:53Z</time>
      </trkpt>
      <trkpt lat="43.02389" lon="0.21549">
        <ele>1207.99</ele>
        <time>2017-10-31T11:34:01Z</time>
      </trkpt>
      <trkpt lat="43.02388" lon="0.2154">
        <ele>1208.32</ele>
        <time>2017-10-31T11:34:05Z</time>
      </trkpt>
      <trkpt lat="43.02384" lon="0.21526">
        <ele>1209.29</ele>
        <time>2017-10-31T11:34:13Z</time>
      </trkpt>
      <trkpt lat="43.02374" lon="0.215">
        <ele>1210.45</ele>
        <time>2017-10-31T11:34:27Z</time>
      </trkpt>
      <trkpt lat="43.0237" lon="0.21492">
        <ele>1210.94</ele>
        <time>2017-10-31T11:34:33Z</time>
      </trkpt>
      <trkpt lat="43.02367" lon="0.21484">
        <ele>1211.29</ele>
        <time>2017-10-31T11:34:38Z</time>
      </trkpt>
      <trkpt lat="43.02357" lon="0.21463">
        <ele>1212.5</ele>
        <time>2017-10-31T11:34:50Z</time>
      </trkpt>
      <trkpt lat="43.02351" lon="0.21457">
        <ele>1213.26</ele>
        <time>2017-10-31T11:34:56Z</time>
      </trkpt>
      <trkpt lat="43.02336" lon="0.21451">
        <ele>1214.75</ele>
        <time>2017-10-31T11:35:07Z</time>
      </trkpt>
      <trkpt lat="43.02331" lon="0.21452">
        <ele>1215.93</ele>
        <time>2017-10-31T11:35:11Z</time>
      </trkpt>
      <trkpt lat="43.02319" lon="0.21446">
        <ele>1217.39</ele>
        <time>2017-10-31T11:35:21Z</time>
      </trkpt>
      <trkpt lat="43.02292" lon="0.21435">
        <ele>1217.56</ele>
        <time>2017-10-31T11:35:34Z</time>
      </trkpt>
      <trkpt lat="43.02282" lon="0.21432">
        <ele>1218.18</ele>
        <time>2017-10-31T11:35:40Z</time>
      </trkpt>
      <trkpt lat="43.0228" lon="0.21433">
        <ele>1218.33</ele>
        <time>2017-10-31T11:35:41Z</time>
      </trkpt>
      <trkpt lat="43.02266" lon="0.21433">
        <ele>1220.02</ele>
        <time>2017-10-31T11:35:48Z</time>
      </trkpt>
      <trkpt lat="43.0225" lon="0.21429">
        <ele>1223.34</ele>
        <time>2017-10-31T11:35:59Z</time>
      </trkpt>
      <trkpt lat="43.02235" lon="0.21429">
        <ele>1224.78</ele>
        <time>2017-10-31T11:36:09Z</time>
      </trkpt>
      <trkpt lat="43.02222" lon="0.21432">
        <ele>1226.91</ele>
        <time>2017-10-31T11:36:18Z</time>
      </trkpt>
      <trkpt lat="43.02204" lon="0.21434">
        <ele>1229.2</ele>
        <time>2017-10-31T11:36:28Z</time>
      </trkpt>
      <trkpt lat="43.02182" lon="0.21436">
        <ele>1232.16</ele>
        <time>2017-10-31T11:36:43Z</time>
      </trkpt>
      <trkpt lat="43.02165" lon="0.21441">
        <ele>1233.8</ele>
        <time>2017-10-31T11:36:54Z</time>
      </trkpt>
      <trkpt lat="43.02151" lon="0.21441">
        <ele>1235.28</ele>
        <time>2017-10-31T11:37:03Z</time>
      </trkpt>
      <trkpt lat="43.02133" lon="0.2145">
        <ele>1236.15</ele>
        <time>2017-10-31T11:37:16Z</time>
      </trkpt>
      <trkpt lat="43.02131" lon="0.2145">
        <ele>1236.48</ele>
        <time>2017-10-31T11:37:18Z</time>
      </trkpt>
      <trkpt lat="43.02116" lon="0.21451">
        <ele>1237.41</ele>
        <time>2017-10-31T11:37:26Z</time>
      </trkpt>
      <trkpt lat="43.02109" lon="0.21451">
        <ele>1238.64</ele>
        <time>2017-10-31T11:37:31Z</time>
      </trkpt>
      <trkpt lat="43.02094" lon="0.21453">
        <ele>1240.66</ele>
        <time>2017-10-31T11:37:39Z</time>
      </trkpt>
      <trkpt lat="43.02078" lon="0.21451">
        <ele>1244.13</ele>
        <time>2017-10-31T11:37:49Z</time>
      </trkpt>
      <trkpt lat="43.02077" lon="0.21452">
        <ele>1244.46</ele>
        <time>2017-10-31T11:37:50Z</time>
      </trkpt>
      <trkpt lat="43.02065" lon="0.21451">
        <ele>1246.98</ele>
        <time>2017-10-31T11:37:57Z</time>
      </trkpt>
      <trkpt lat="43.02056" lon="0.21446">
        <ele>1249.46</ele>
        <time>2017-10-31T11:38:07Z</time>
      </trkpt>
      <trkpt lat="43.02051" lon="0.21441">
        <ele>1249.9</ele>
        <time>2017-10-31T11:38:20Z</time>
      </trkpt>
      <trkpt lat="43.02045" lon="0.21438">
        <ele>1249.25</ele>
        <time>2017-10-31T11:38:46Z</time>
      </trkpt>
      <trkpt lat="43.02045" lon="0.2144">
        <ele>1249.39</ele>
        <time>2017-10-31T11:39:06Z</time>
      </trkpt>
      <trkpt lat="43.02045" lon="0.2144">
        <ele>1249.21</ele>
        <time>2017-10-31T11:39:29Z</time>
      </trkpt>
      <trkpt lat="43.02044" lon="0.21438">
        <ele>1249.74</ele>
        <time>2017-10-31T11:39:53Z</time>
      </trkpt>
      <trkpt lat="43.02045" lon="0.21439">
        <ele>1249.11</ele>
        <time>2017-10-31T11:40:20Z</time>
      </trkpt>
      <trkpt lat="43.02044" lon="0.21432">
        <ele>1249.17</ele>
        <time>2017-10-31T11:40:45Z</time>
      </trkpt>
      <trkpt lat="43.02043" lon="0.21431">
        <ele>1248.78</ele>
        <time>2017-10-31T11:41:08Z</time>
      </trkpt>
      <trkpt lat="43.02041" lon="0.21427">
        <ele>1249.55</ele>
        <time>2017-10-31T11:41:32Z</time>
      </trkpt>
      <trkpt lat="43.0204" lon="0.21432">
        <ele>1249.54</ele>
        <time>2017-10-31T11:41:54Z</time>
      </trkpt>
      <trkpt lat="43.02023" lon="0.21435">
        <ele>1251.34</ele>
        <time>2017-10-31T11:42:04Z</time>
      </trkpt>
      <trkpt lat="43.02019" lon="0.21438">
        <ele>1251.75</ele>
        <time>2017-10-31T11:42:07Z</time>
      </trkpt>
      <trkpt lat="43.02" lon="0.2145">
        <ele>1254.96</ele>
        <time>2017-10-31T11:42:20Z</time>
      </trkpt>
      <trkpt lat="43.01991" lon="0.21459">
        <ele>1256.41</ele>
        <time>2017-10-31T11:42:26Z</time>
      </trkpt>
      <trkpt lat="43.01975" lon="0.21469">
        <ele>1258.82</ele>
        <time>2017-10-31T11:42:37Z</time>
      </trkpt>
      <trkpt lat="43.01962" lon="0.21481">
        <ele>1259.86</ele>
        <time>2017-10-31T11:42:48Z</time>
      </trkpt>
      <trkpt lat="43.01951" lon="0.21489">
        <ele>1260.84</ele>
        <time>2017-10-31T11:42:57Z</time>
      </trkpt>
      <trkpt lat="43.0194" lon="0.21495">
        <ele>1260.38</ele>
        <time>2017-10-31T11:43:06Z</time>
      </trkpt>
      <trkpt lat="43.01931" lon="0.21507">
        <ele>1259.32</ele>
        <time>2017-10-31T11:43:19Z</time>
      </trkpt>
      <trkpt lat="43.01925" lon="0.21512">
        <ele>1258.94</ele>
        <time>2017-10-31T11:43:23Z</time>
      </trkpt>
      <trkpt lat="43.01915" lon="0.21525">
        <ele>1258.44</ele>
        <time>2017-10-31T11:43:30Z</time>
      </trkpt>
      <trkpt lat="43.01898" lon="0.21535">
        <ele>1256.89</ele>
        <time>2017-10-31T11:43:38Z</time>
      </trkpt>
      <trkpt lat="43.01893" lon="0.21544">
        <ele>1256.54</ele>
        <time>2017-10-31T11:43:42Z</time>
      </trkpt>
      <trkpt lat="43.01888" lon="0.21551">
        <ele>1256.81</ele>
        <time>2017-10-31T11:43:46Z</time>
      </trkpt>
      <trkpt lat="43.01877" lon="0.21568">
        <ele>1257.97</ele>
        <time>2017-10-31T11:43:56Z</time>
      </trkpt>
      <trkpt lat="43.01875" lon="0.21571">
        <ele>1258.18</ele>
        <time>2017-10-31T11:43:58Z</time>
      </trkpt>
      <trkpt lat="43.01868" lon="0.21591">
        <ele>1260.04</ele>
        <time>2017-10-31T11:44:11Z</time>
      </trkpt>
      <trkpt lat="43.01864" lon="0.21602">
        <ele>1261.04</ele>
        <time>2017-10-31T11:44:17Z</time>
      </trkpt>
      <trkpt lat="43.01853" lon="0.2162">
        <ele>1263.18</ele>
        <time>2017-10-31T11:44:26Z</time>
      </trkpt>
      <trkpt lat="43.01851" lon="0.21626">
        <ele>1264.02</ele>
        <time>2017-10-31T11:44:29Z</time>
      </trkpt>
      <trkpt lat="43.01848" lon="0.21638">
        <ele>1265.4</ele>
        <time>2017-10-31T11:44:34Z</time>
      </trkpt>
      <trkpt lat="43.01847" lon="0.21641">
        <ele>1266.08</ele>
        <time>2017-10-31T11:44:36Z</time>
      </trkpt>
      <trkpt lat="43.0184" lon="0.21646">
        <ele>1267.54</ele>
        <time>2017-10-31T11:44:41Z</time>
      </trkpt>
      <trkpt lat="43.01835" lon="0.21648">
        <ele>1268.19</ele>
        <time>2017-10-31T11:44:44Z</time>
      </trkpt>
      <trkpt lat="43.01831" lon="0.21648">
        <ele>1269.07</ele>
        <time>2017-10-31T11:44:47Z</time>
      </trkpt>
      <trkpt lat="43.01808" lon="0.21659">
        <ele>1270.68</ele>
        <time>2017-10-31T11:45:01Z</time>
      </trkpt>
      <trkpt lat="43.01804" lon="0.21678">
        <ele>1272.58</ele>
        <time>2017-10-31T11:45:13Z</time>
      </trkpt>
      <trkpt lat="43.01799" lon="0.21688">
        <ele>1273.83</ele>
        <time>2017-10-31T11:45:19Z</time>
      </trkpt>
      <trkpt lat="43.01782" lon="0.21706">
        <ele>1276.28</ele>
        <time>2017-10-31T11:45:32Z</time>
      </trkpt>
      <trkpt lat="43.01774" lon="0.21714">
        <ele>1276.45</ele>
        <time>2017-10-31T11:45:37Z</time>
      </trkpt>
      <trkpt lat="43.01755" lon="0.21738">
        <ele>1276.34</ele>
        <time>2017-10-31T11:45:50Z</time>
      </trkpt>
      <trkpt lat="43.01734" lon="0.21766">
        <ele>1275.15</ele>
        <time>2017-10-31T11:46:01Z</time>
      </trkpt>
      <trkpt lat="43.01721" lon="0.21793">
        <ele>1275.58</ele>
        <time>2017-10-31T11:46:12Z</time>
      </trkpt>
      <trkpt lat="43.01705" lon="0.21825">
        <ele>1274.73</ele>
        <time>2017-10-31T11:46:23Z</time>
      </trkpt>
      <trkpt lat="43.0169" lon="0.2185">
        <ele>1275.51</ele>
        <time>2017-10-31T11:46:34Z</time>
      </trkpt>
      <trkpt lat="43.01674" lon="0.21869">
        <ele>1276.53</ele>
        <time>2017-10-31T11:46:45Z</time>
      </trkpt>
      <trkpt lat="43.0166" lon="0.21886">
        <ele>1276.93</ele>
        <time>2017-10-31T11:46:55Z</time>
      </trkpt>
      <trkpt lat="43.01639" lon="0.21905">
        <ele>1277.57</ele>
        <time>2017-10-31T11:47:08Z</time>
      </trkpt>
      <trkpt lat="43.01628" lon="0.21915">
        <ele>1277.85</ele>
        <time>2017-10-31T11:47:16Z</time>
      </trkpt>
      <trkpt lat="43.01615" lon="0.21936">
        <ele>1278.22</ele>
        <time>2017-10-31T11:47:28Z</time>
      </trkpt>
      <trkpt lat="43.01604" lon="0.21959">
        <ele>1278.57</ele>
        <time>2017-10-31T11:47:39Z</time>
      </trkpt>
      <trkpt lat="43.01602" lon="0.21962">
        <ele>1278.72</ele>
        <time>2017-10-31T11:47:41Z</time>
      </trkpt>
      <trkpt lat="43.01596" lon="0.21971">
        <ele>1278.57</ele>
        <time>2017-10-31T11:47:46Z</time>
      </trkpt>
      <trkpt lat="43.01575" lon="0.21994">
        <ele>1277.71</ele>
        <time>2017-10-31T11:47:58Z</time>
      </trkpt>
      <trkpt lat="43.01558" lon="0.22021">
        <ele>1277.25</ele>
        <time>2017-10-31T11:48:10Z</time>
      </trkpt>
      <trkpt lat="43.01544" lon="0.22042">
        <ele>1277.09</ele>
        <time>2017-10-31T11:48:20Z</time>
      </trkpt>
      <trkpt lat="43.01525" lon="0.22068">
        <ele>1277.26</ele>
        <time>2017-10-31T11:48:31Z</time>
      </trkpt>
      <trkpt lat="43.01501" lon="0.22095">
        <ele>1278.61</ele>
        <time>2017-10-31T11:48:43Z</time>
      </trkpt>
      <trkpt lat="43.01482" lon="0.22112">
        <ele>1278.28</ele>
        <time>2017-10-31T11:48:53Z</time>
      </trkpt>
      <trkpt lat="43.01459" lon="0.22137">
        <ele>1279.9</ele>
        <time>2017-10-31T11:49:06Z</time>
      </trkpt>
      <trkpt lat="43.01442" lon="0.22156">
        <ele>1281.63</ele>
        <time>2017-10-31T11:49:17Z</time>
      </trkpt>
      <trkpt lat="43.01427" lon="0.22178">
        <ele>1282.99</ele>
        <time>2017-10-31T11:49:28Z</time>
      </trkpt>
      <trkpt lat="43.01411" lon="0.22193">
        <ele>1284.15</ele>
        <time>2017-10-31T11:49:39Z</time>
      </trkpt>
      <trkpt lat="43.014" lon="0.22201">
        <ele>1285.19</ele>
        <time>2017-10-31T11:49:50Z</time>
      </trkpt>
      <trkpt lat="43.014" lon="0.22202">
        <ele>1285.19</ele>
        <time>2017-10-31T11:50:09Z</time>
      </trkpt>
      <trkpt lat="43.01399" lon="0.22201">
        <ele>1285.5</ele>
        <time>2017-10-31T11:50:40Z</time>
      </trkpt>
      <trkpt lat="43.014" lon="0.22203">
        <ele>1285.97</ele>
        <time>2017-10-31T11:51:06Z</time>
      </trkpt>
      <trkpt lat="43.014" lon="0.222">
        <ele>1285.69</ele>
        <time>2017-10-31T11:51:31Z</time>
      </trkpt>
      <trkpt lat="43.01399" lon="0.22202">
        <ele>1285.56</ele>
        <time>2017-10-31T11:52:01Z</time>
      </trkpt>
      <trkpt lat="43.01398" lon="0.222">
        <ele>1285.8</ele>
        <time>2017-10-31T11:52:22Z</time>
      </trkpt>
      <trkpt lat="43.014" lon="0.22203">
        <ele>1286.27</ele>
        <time>2017-10-31T11:52:47Z</time>
      </trkpt>
      <trkpt lat="43.014" lon="0.22202">
        <ele>1286.02</ele>
        <time>2017-10-31T11:53:25Z</time>
      </trkpt>
      <trkpt lat="43.01399" lon="0.22202">
        <ele>1286.08</ele>
        <time>2017-10-31T11:53:50Z</time>
      </trkpt>
      <trkpt lat="43.014" lon="0.22204">
        <ele>1286.29</ele>
        <time>2017-10-31T11:54:15Z</time>
      </trkpt>
      <trkpt lat="43.014" lon="0.222">
        <ele>1286.09</ele>
        <time>2017-10-31T11:54:44Z</time>
      </trkpt>
      <trkpt lat="43.01399" lon="0.22203">
        <ele>1286.52</ele>
        <time>2017-10-31T11:55:19Z</time>
      </trkpt>
      <trkpt lat="43.014" lon="0.22201">
        <ele>1286.38</ele>
        <time>2017-10-31T11:55:47Z</time>
      </trkpt>
      <trkpt lat="43.01399" lon="0.222">
        <ele>1286.3</ele>
        <time>2017-10-31T11:56:11Z</time>
      </trkpt>
      <trkpt lat="43.01399" lon="0.222">
        <ele>1286.54</ele>
        <time>2017-10-31T11:56:35Z</time>
      </trkpt>
      <trkpt lat="43.014" lon="0.222">
        <ele>1287.2</ele>
        <time>2017-10-31T11:56:59Z</time>
      </trkpt>
      <trkpt lat="43.01399" lon="0.222">
        <ele>1287.09</ele>
        <time>2017-10-31T11:57:24Z</time>
      </trkpt>
      <trkpt lat="43.014" lon="0.22203">
        <ele>1287.3</ele>
        <time>2017-10-31T11:57:50Z</time>
      </trkpt>
      <trkpt lat="43.01398" lon="0.222">
        <ele>1287.57</ele>
        <time>2017-10-31T11:58:14Z</time>
      </trkpt>
      <trkpt lat="43.01399" lon="0.222">
        <ele>1287.87</ele>
        <time>2017-10-31T11:58:48Z</time>
      </trkpt>
      <trkpt lat="43.014" lon="0.22203">
        <ele>1288.06</ele>
        <time>2017-10-31T11:59:20Z</time>
      </trkpt>
      <trkpt lat="43.01401" lon="0.22204">
        <ele>1288.54</ele>
        <time>2017-10-31T11:59:56Z</time>
      </trkpt>
      <trkpt lat="43.01401" lon="0.22204">
        <ele>1288.3</ele>
        <time>2017-10-31T12:00:29Z</time>
      </trkpt>
      <trkpt lat="43.01401" lon="0.22202">
        <ele>1288.68</ele>
        <time>2017-10-31T12:01:02Z</time>
      </trkpt>
      <trkpt lat="43.01401" lon="0.22203">
        <ele>1288.51</ele>
        <time>2017-10-31T12:01:30Z</time>
      </trkpt>
      <trkpt lat="43.01401" lon="0.22202">
        <ele>1288.81</ele>
        <time>2017-10-31T12:02:06Z</time>
      </trkpt>
      <trkpt lat="43.01401" lon="0.22205">
        <ele>1289.39</ele>
        <time>2017-10-31T12:02:38Z</time>
      </trkpt>
      <trkpt lat="43.014" lon="0.222">
        <ele>1289.74</ele>
        <time>2017-10-31T12:03:02Z</time>
      </trkpt>
      <trkpt lat="43.014" lon="0.222">
        <ele>1290.02</ele>
        <time>2017-10-31T12:03:31Z</time>
      </trkpt>
      <trkpt lat="43.014" lon="0.222">
        <ele>1289.81</ele>
        <time>2017-10-31T12:04:11Z</time>
      </trkpt>
      <trkpt lat="43.014" lon="0.22202">
        <ele>1290.15</ele>
        <time>2017-10-31T12:04:36Z</time>
      </trkpt>
      <trkpt lat="43.014" lon="0.22202">
        <ele>1290</ele>
        <time>2017-10-31T12:05:16Z</time>
      </trkpt>
      <trkpt lat="43.014" lon="0.22202">
        <ele>1290.11</ele>
        <time>2017-10-31T12:05:48Z</time>
      </trkpt>
      <trkpt lat="43.014" lon="0.22201">
        <ele>1290.31</ele>
        <time>2017-10-31T12:06:21Z</time>
      </trkpt>
      <trkpt lat="43.01399" lon="0.222">
        <ele>1290.96</ele>
        <time>2017-10-31T12:06:59Z</time>
      </trkpt>
      <trkpt lat="43.014" lon="0.222">
        <ele>1290.48</ele>
        <time>2017-10-31T12:07:41Z</time>
      </trkpt>
      <trkpt lat="43.014" lon="0.22201">
        <ele>1290.48</ele>
        <time>2017-10-31T12:08:07Z</time>
      </trkpt>
      <trkpt lat="43.01399" lon="0.222">
        <ele>1290.35</ele>
        <time>2017-10-31T12:08:45Z</time>
      </trkpt>
      <trkpt lat="43.01398" lon="0.22199">
        <ele>1290.72</ele>
        <time>2017-10-31T12:09:07Z</time>
      </trkpt>
      <trkpt lat="43.014" lon="0.222">
        <ele>1291.03</ele>
        <time>2017-10-31T12:09:43Z</time>
      </trkpt>
      <trkpt lat="43.01399" lon="0.22201">
        <ele>1290.48</ele>
        <time>2017-10-31T12:10:16Z</time>
      </trkpt>
      <trkpt lat="43.01401" lon="0.22203">
        <ele>1290.33</ele>
        <time>2017-10-31T12:10:48Z</time>
      </trkpt>
      <trkpt lat="43.014" lon="0.22203">
        <ele>1290.52</ele>
        <time>2017-10-31T12:11:13Z</time>
      </trkpt>
      <trkpt lat="43.01401" lon="0.22202">
        <ele>1290.71</ele>
        <time>2017-10-31T12:11:38Z</time>
      </trkpt>
      <trkpt lat="43.014" lon="0.222">
        <ele>1290.4</ele>
        <time>2017-10-31T12:12:06Z</time>
      </trkpt>
      <trkpt lat="43.014" lon="0.222">
        <ele>1290.36</ele>
        <time>2017-10-31T12:12:32Z</time>
      </trkpt>
      <trkpt lat="43.014" lon="0.22199">
        <ele>1290.68</ele>
        <time>2017-10-31T12:12:58Z</time>
      </trkpt>
      <trkpt lat="43.01401" lon="0.22201">
        <ele>1290.6</ele>
        <time>2017-10-31T12:13:20Z</time>
      </trkpt>
      <trkpt lat="43.014" lon="0.222">
        <ele>1290.94</ele>
        <time>2017-10-31T12:13:42Z</time>
      </trkpt>
      <trkpt lat="43.01401" lon="0.22201">
        <ele>1290.77</ele>
        <time>2017-10-31T12:14:08Z</time>
      </trkpt>
      <trkpt lat="43.01401" lon="0.22202">
        <ele>1290.62</ele>
        <time>2017-10-31T12:14:35Z</time>
      </trkpt>
      <trkpt lat="43.01401" lon="0.22203">
        <ele>1290.62</ele>
        <time>2017-10-31T12:14:58Z</time>
      </trkpt>
      <trkpt lat="43.01405" lon="0.22207">
        <ele>1290.37</ele>
        <time>2017-10-31T12:15:24Z</time>
      </trkpt>
      <trkpt lat="43.01405" lon="0.22207">
        <ele>1290.6</ele>
        <time>2017-10-31T12:15:47Z</time>
      </trkpt>
      <trkpt lat="43.01404" lon="0.22206">
        <ele>1290.66</ele>
        <time>2017-10-31T12:16:11Z</time>
      </trkpt>
      <trkpt lat="43.01406" lon="0.22206">
        <ele>1290.91</ele>
        <time>2017-10-31T12:16:38Z</time>
      </trkpt>
      <trkpt lat="43.01405" lon="0.22206">
        <ele>1290.95</ele>
        <time>2017-10-31T12:17:04Z</time>
      </trkpt>
      <trkpt lat="43.01408" lon="0.22209">
        <ele>1290.95</ele>
        <time>2017-10-31T12:17:25Z</time>
      </trkpt>
      <trkpt lat="43.01405" lon="0.22208">
        <ele>1291.26</ele>
        <time>2017-10-31T12:17:50Z</time>
      </trkpt>
      <trkpt lat="43.01403" lon="0.22205">
        <ele>1291.11</ele>
        <time>2017-10-31T12:18:15Z</time>
      </trkpt>
      <trkpt lat="43.01402" lon="0.22202">
        <ele>1291.2</ele>
        <time>2017-10-31T12:18:40Z</time>
      </trkpt>
      <trkpt lat="43.01401" lon="0.22202">
        <ele>1291.61</ele>
        <time>2017-10-31T12:19:01Z</time>
      </trkpt>
      <trkpt lat="43.01402" lon="0.22201">
        <ele>1291.93</ele>
        <time>2017-10-31T12:19:24Z</time>
      </trkpt>
      <trkpt lat="43.01403" lon="0.22204">
        <ele>1291.72</ele>
        <time>2017-10-31T12:19:52Z</time>
      </trkpt>
      <trkpt lat="43.01399" lon="0.22199">
        <ele>1292.13</ele>
        <time>2017-10-31T12:20:19Z</time>
      </trkpt>
      <trkpt lat="43.01399" lon="0.222">
        <ele>1292.41</ele>
        <time>2017-10-31T12:20:47Z</time>
      </trkpt>
      <trkpt lat="43.01402" lon="0.22202">
        <ele>1292.39</ele>
        <time>2017-10-31T12:21:14Z</time>
      </trkpt>
      <trkpt lat="43.01403" lon="0.22205">
        <ele>1292.66</ele>
        <time>2017-10-31T12:21:44Z</time>
      </trkpt>
      <trkpt lat="43.01402" lon="0.22203">
        <ele>1292.56</ele>
        <time>2017-10-31T12:22:09Z</time>
      </trkpt>
      <trkpt lat="43.01401" lon="0.22202">
        <ele>1292.57</ele>
        <time>2017-10-31T12:22:33Z</time>
      </trkpt>
      <trkpt lat="43.01398" lon="0.222">
        <ele>1292.92</ele>
        <time>2017-10-31T12:22:53Z</time>
      </trkpt>
      <trkpt lat="43.014" lon="0.22198">
        <ele>1292.52</ele>
        <time>2017-10-31T12:23:20Z</time>
      </trkpt>
      <trkpt lat="43.014" lon="0.222">
        <ele>1293.18</ele>
        <time>2017-10-31T12:23:43Z</time>
      </trkpt>
      <trkpt lat="43.01401" lon="0.22202">
        <ele>1293.14</ele>
        <time>2017-10-31T12:24:08Z</time>
      </trkpt>
      <trkpt lat="43.01402" lon="0.22204">
        <ele>1293.13</ele>
        <time>2017-10-31T12:24:31Z</time>
      </trkpt>
      <trkpt lat="43.01401" lon="0.222">
        <ele>1293.54</ele>
        <time>2017-10-31T12:24:44Z</time>
      </trkpt>
      <trkpt lat="43.01399" lon="0.222">
        <ele>1293.46</ele>
        <time>2017-10-31T12:25:07Z</time>
      </trkpt>
      <trkpt lat="43.01399" lon="0.22202">
        <ele>1293.51</ele>
        <time>2017-10-31T12:25:26Z</time>
      </trkpt>
      <trkpt lat="43.014" lon="0.22202">
        <ele>1293.5</ele>
        <time>2017-10-31T12:25:51Z</time>
      </trkpt>
      <trkpt lat="43.01397" lon="0.222">
        <ele>1293.05</ele>
        <time>2017-10-31T12:26:21Z</time>
      </trkpt>
      <trkpt lat="43.01395" lon="0.22202">
        <ele>1293</ele>
        <time>2017-10-31T12:26:23Z</time>
      </trkpt>
      <trkpt lat="43.01384" lon="0.22191">
        <ele>1291.86</ele>
        <time>2017-10-31T12:26:30Z</time>
      </trkpt>
      <trkpt lat="43.01372" lon="0.22176">
        <ele>1291.52</ele>
        <time>2017-10-31T12:26:40Z</time>
      </trkpt>
      <trkpt lat="43.01372" lon="0.22177">
        <ele>1293.41</ele>
        <time>2017-10-31T12:27:08Z</time>
      </trkpt>
      <trkpt lat="43.01373" lon="0.22175">
        <ele>1293.75</ele>
        <time>2017-10-31T12:27:42Z</time>
      </trkpt>
      <trkpt lat="43.01373" lon="0.22173">
        <ele>1293.3</ele>
        <time>2017-10-31T12:28:09Z</time>
      </trkpt>
      <trkpt lat="43.01374" lon="0.22175">
        <ele>1293.35</ele>
        <time>2017-10-31T12:28:37Z</time>
      </trkpt>
      <trkpt lat="43.01373" lon="0.22173">
        <ele>1293.39</ele>
        <time>2017-10-31T12:28:48Z</time>
      </trkpt>
      <trkpt lat="43.01375" lon="0.22138">
        <ele>1292.79</ele>
        <time>2017-10-31T12:28:59Z</time>
      </trkpt>
      <trkpt lat="43.01374" lon="0.2213">
        <ele>1292.52</ele>
        <time>2017-10-31T12:29:02Z</time>
      </trkpt>
      <trkpt lat="43.0138" lon="0.22112">
        <ele>1291.86</ele>
        <time>2017-10-31T12:29:09Z</time>
      </trkpt>
      <trkpt lat="43.01381" lon="0.22106">
        <ele>1291.81</ele>
        <time>2017-10-31T12:29:11Z</time>
      </trkpt>
      <trkpt lat="43.01385" lon="0.22089">
        <ele>1291.89</ele>
        <time>2017-10-31T12:29:17Z</time>
      </trkpt>
      <trkpt lat="43.01395" lon="0.22055">
        <ele>1291.29</ele>
        <time>2017-10-31T12:29:28Z</time>
      </trkpt>
      <trkpt lat="43.01405" lon="0.22016">
        <ele>1290.25</ele>
        <time>2017-10-31T12:29:38Z</time>
      </trkpt>
      <trkpt lat="43.01415" lon="0.21984">
        <ele>1288.61</ele>
        <time>2017-10-31T12:29:47Z</time>
      </trkpt>
      <trkpt lat="43.0142" lon="0.21978">
        <ele>1289.02</ele>
        <time>2017-10-31T12:29:55Z</time>
      </trkpt>
      <trkpt lat="43.01435" lon="0.21949">
        <ele>1288.93</ele>
        <time>2017-10-31T12:30:07Z</time>
      </trkpt>
      <trkpt lat="43.01436" lon="0.21947">
        <ele>1288.95</ele>
        <time>2017-10-31T12:30:08Z</time>
      </trkpt>
      <trkpt lat="43.01456" lon="0.21908">
        <ele>1289</ele>
        <time>2017-10-31T12:30:22Z</time>
      </trkpt>
      <trkpt lat="43.01465" lon="0.21885">
        <ele>1289.53</ele>
        <time>2017-10-31T12:30:34Z</time>
      </trkpt>
      <trkpt lat="43.01466" lon="0.21885">
        <ele>1289.49</ele>
        <time>2017-10-31T12:31:01Z</time>
      </trkpt>
      <trkpt lat="43.01467" lon="0.21883">
        <ele>1289.49</ele>
        <time>2017-10-31T12:31:13Z</time>
      </trkpt>
      <trkpt lat="43.01472" lon="0.21869">
        <ele>1289.56</ele>
        <time>2017-10-31T12:31:17Z</time>
      </trkpt>
      <trkpt lat="43.01482" lon="0.21819">
        <ele>1289.5</ele>
        <time>2017-10-31T12:31:31Z</time>
      </trkpt>
      <trkpt lat="43.01478" lon="0.21789">
        <ele>1288.97</ele>
        <time>2017-10-31T12:31:41Z</time>
      </trkpt>
      <trkpt lat="43.01466" lon="0.21755">
        <ele>1287.82</ele>
        <time>2017-10-31T12:31:52Z</time>
      </trkpt>
      <trkpt lat="43.01456" lon="0.21732">
        <ele>1286.5</ele>
        <time>2017-10-31T12:31:58Z</time>
      </trkpt>
      <trkpt lat="43.01453" lon="0.2172">
        <ele>1285.64</ele>
        <time>2017-10-31T12:32:00Z</time>
      </trkpt>
      <trkpt lat="43.0145" lon="0.217">
        <ele>1284.08</ele>
        <time>2017-10-31T12:32:03Z</time>
      </trkpt>
      <trkpt lat="43.01448" lon="0.21677">
        <ele>1282.38</ele>
        <time>2017-10-31T12:32:08Z</time>
      </trkpt>
      <trkpt lat="43.0146" lon="0.2166">
        <ele>1282.05</ele>
        <time>2017-10-31T12:32:17Z</time>
      </trkpt>
      <trkpt lat="43.01472" lon="0.21647">
        <ele>1282.6</ele>
        <time>2017-10-31T12:32:25Z</time>
      </trkpt>
      <trkpt lat="43.01476" lon="0.21643">
        <ele>1283.09</ele>
        <time>2017-10-31T12:32:28Z</time>
      </trkpt>
      <trkpt lat="43.01482" lon="0.21639">
        <ele>1284.65</ele>
        <time>2017-10-31T12:32:35Z</time>
      </trkpt>
      <trkpt lat="43.01491" lon="0.21631">
        <ele>1286.66</ele>
        <time>2017-10-31T12:32:48Z</time>
      </trkpt>
      <trkpt lat="43.01491" lon="0.21623">
        <ele>1288.18</ele>
        <time>2017-10-31T12:33:01Z</time>
      </trkpt>
      <trkpt lat="43.01494" lon="0.21603">
        <ele>1288.69</ele>
        <time>2017-10-31T12:33:13Z</time>
      </trkpt>
      <trkpt lat="43.01495" lon="0.21597">
        <ele>1289.2</ele>
        <time>2017-10-31T12:33:16Z</time>
      </trkpt>
      <trkpt lat="43.01497" lon="0.21587">
        <ele>1290.3</ele>
        <time>2017-10-31T12:33:23Z</time>
      </trkpt>
      <trkpt lat="43.015" lon="0.21564">
        <ele>1291.48</ele>
        <time>2017-10-31T12:33:32Z</time>
      </trkpt>
      <trkpt lat="43.01501" lon="0.21553">
        <ele>1291.61</ele>
        <time>2017-10-31T12:33:38Z</time>
      </trkpt>
      <trkpt lat="43.01506" lon="0.21534">
        <ele>1292.03</ele>
        <time>2017-10-31T12:33:51Z</time>
      </trkpt>
      <trkpt lat="43.01507" lon="0.2153">
        <ele>1292.02</ele>
        <time>2017-10-31T12:33:54Z</time>
      </trkpt>
      <trkpt lat="43.0151" lon="0.21516">
        <ele>1291.7</ele>
        <time>2017-10-31T12:34:09Z</time>
      </trkpt>
      <trkpt lat="43.01519" lon="0.21495">
        <ele>1290.99</ele>
        <time>2017-10-31T12:34:18Z</time>
      </trkpt>
      <trkpt lat="43.01523" lon="0.21482">
        <ele>1290.45</ele>
        <time>2017-10-31T12:34:21Z</time>
      </trkpt>
      <trkpt lat="43.01532" lon="0.21462">
        <ele>1289.61</ele>
        <time>2017-10-31T12:34:27Z</time>
      </trkpt>
      <trkpt lat="43.0154" lon="0.21437">
        <ele>1289.17</ele>
        <time>2017-10-31T12:34:34Z</time>
      </trkpt>
      <trkpt lat="43.01558" lon="0.21409">
        <ele>1288.35</ele>
        <time>2017-10-31T12:34:43Z</time>
      </trkpt>
      <trkpt lat="43.01579" lon="0.21378">
        <ele>1289.2</ele>
        <time>2017-10-31T12:34:55Z</time>
      </trkpt>
      <trkpt lat="43.01588" lon="0.21368">
        <ele>1290.16</ele>
        <time>2017-10-31T12:35:00Z</time>
      </trkpt>
      <trkpt lat="43.01598" lon="0.21357">
        <ele>1291.5</ele>
        <time>2017-10-31T12:35:15Z</time>
      </trkpt>
      <trkpt lat="43.01595" lon="0.21354">
        <ele>1291.83</ele>
        <time>2017-10-31T12:35:40Z</time>
      </trkpt>
      <trkpt lat="43.01598" lon="0.21351">
        <ele>1291.69</ele>
        <time>2017-10-31T12:36:03Z</time>
      </trkpt>
      <trkpt lat="43.01599" lon="0.21346">
        <ele>1292.3</ele>
        <time>2017-10-31T12:36:21Z</time>
      </trkpt>
      <trkpt lat="43.01601" lon="0.21347">
        <ele>1291.91</ele>
        <time>2017-10-31T12:36:42Z</time>
      </trkpt>
      <trkpt lat="43.01602" lon="0.21346">
        <ele>1292.08</ele>
        <time>2017-10-31T12:37:01Z</time>
      </trkpt>
      <trkpt lat="43.01601" lon="0.21342">
        <ele>1292.31</ele>
        <time>2017-10-31T12:37:34Z</time>
      </trkpt>
      <trkpt lat="43.01609" lon="0.21306">
        <ele>1291.88</ele>
        <time>2017-10-31T12:37:44Z</time>
      </trkpt>
      <trkpt lat="43.0161" lon="0.2128">
        <ele>1291.06</ele>
        <time>2017-10-31T12:37:52Z</time>
      </trkpt>
      <trkpt lat="43.01634" lon="0.21251">
        <ele>1291.13</ele>
        <time>2017-10-31T12:38:03Z</time>
      </trkpt>
      <trkpt lat="43.01652" lon="0.21218">
        <ele>1292.39</ele>
        <time>2017-10-31T12:38:14Z</time>
      </trkpt>
      <trkpt lat="43.01658" lon="0.21186">
        <ele>1291.64</ele>
        <time>2017-10-31T12:38:20Z</time>
      </trkpt>
      <trkpt lat="43.01669" lon="0.21114">
        <ele>1288.96</ele>
        <time>2017-10-31T12:38:31Z</time>
      </trkpt>
      <trkpt lat="43.0168" lon="0.21037">
        <ele>1285.74</ele>
        <time>2017-10-31T12:38:43Z</time>
      </trkpt>
      <trkpt lat="43.01684" lon="0.20976">
        <ele>1286.57</ele>
        <time>2017-10-31T12:38:55Z</time>
      </trkpt>
      <trkpt lat="43.01683" lon="0.20938">
        <ele>1288.78</ele>
        <time>2017-10-31T12:39:06Z</time>
      </trkpt>
      <trkpt lat="43.01684" lon="0.20914">
        <ele>1289.89</ele>
        <time>2017-10-31T12:39:14Z</time>
      </trkpt>
      <trkpt lat="43.01683" lon="0.20909">
        <ele>1290.09</ele>
        <time>2017-10-31T12:39:16Z</time>
      </trkpt>
      <trkpt lat="43.01683" lon="0.20903">
        <ele>1290.25</ele>
        <time>2017-10-31T12:39:18Z</time>
      </trkpt>
      <trkpt lat="43.01683" lon="0.2088">
        <ele>1290.15</ele>
        <time>2017-10-31T12:39:24Z</time>
      </trkpt>
      <trkpt lat="43.01684" lon="0.20857">
        <ele>1289.46</ele>
        <time>2017-10-31T12:39:28Z</time>
      </trkpt>
      <trkpt lat="43.01694" lon="0.20822">
        <ele>1286.04</ele>
        <time>2017-10-31T12:39:34Z</time>
      </trkpt>
      <trkpt lat="43.01708" lon="0.2079">
        <ele>1282.31</ele>
        <time>2017-10-31T12:39:41Z</time>
      </trkpt>
      <trkpt lat="43.01717" lon="0.20764">
        <ele>1279.04</ele>
        <time>2017-10-31T12:39:49Z</time>
      </trkpt>
      <trkpt lat="43.01722" lon="0.20727">
        <ele>1277.55</ele>
        <time>2017-10-31T12:40:00Z</time>
      </trkpt>
      <trkpt lat="43.01723" lon="0.20693">
        <ele>1279.23</ele>
        <time>2017-10-31T12:40:11Z</time>
      </trkpt>
      <trkpt lat="43.01724" lon="0.20689">
        <ele>1280.25</ele>
        <time>2017-10-31T12:40:16Z</time>
      </trkpt>
      <trkpt lat="43.0173" lon="0.20687">
        <ele>1280.01</ele>
        <time>2017-10-31T12:40:38Z</time>
      </trkpt>
      <trkpt lat="43.01731" lon="0.20684">
        <ele>1278.6</ele>
        <time>2017-10-31T12:40:44Z</time>
      </trkpt>
      <trkpt lat="43.01737" lon="0.20674">
        <ele>1278.06</ele>
        <time>2017-10-31T12:40:48Z</time>
      </trkpt>
      <trkpt lat="43.01757" lon="0.20627">
        <ele>1276.34</ele>
        <time>2017-10-31T12:40:59Z</time>
      </trkpt>
      <trkpt lat="43.01767" lon="0.20611">
        <ele>1276.41</ele>
        <time>2017-10-31T12:41:04Z</time>
      </trkpt>
      <trkpt lat="43.01793" lon="0.20565">
        <ele>1277.1</ele>
        <time>2017-10-31T12:41:16Z</time>
      </trkpt>
      <trkpt lat="43.01818" lon="0.20543">
        <ele>1277.63</ele>
        <time>2017-10-31T12:41:27Z</time>
      </trkpt>
      <trkpt lat="43.01842" lon="0.20517">
        <ele>1279.31</ele>
        <time>2017-10-31T12:41:39Z</time>
      </trkpt>
      <trkpt lat="43.01849" lon="0.20507">
        <ele>1279.83</ele>
        <time>2017-10-31T12:41:44Z</time>
      </trkpt>
      <trkpt lat="43.01854" lon="0.20504">
        <ele>1280.6</ele>
        <time>2017-10-31T12:41:56Z</time>
      </trkpt>
      <trkpt lat="43.01854" lon="0.20502">
        <ele>1281.68</ele>
        <time>2017-10-31T12:42:23Z</time>
      </trkpt>
      <trkpt lat="43.01854" lon="0.20503">
        <ele>1281.44</ele>
        <time>2017-10-31T12:42:47Z</time>
      </trkpt>
      <trkpt lat="43.01857" lon="0.20505">
        <ele>1281.19</ele>
        <time>2017-10-31T12:43:10Z</time>
      </trkpt>
      <trkpt lat="43.01857" lon="0.20503">
        <ele>1281.39</ele>
        <time>2017-10-31T12:43:34Z</time>
      </trkpt>
      <trkpt lat="43.01855" lon="0.20501">
        <ele>1281.24</ele>
        <time>2017-10-31T12:44:00Z</time>
      </trkpt>
      <trkpt lat="43.01859" lon="0.205">
        <ele>1280.97</ele>
        <time>2017-10-31T12:44:15Z</time>
      </trkpt>
      <trkpt lat="43.01878" lon="0.20486">
        <ele>1280.04</ele>
        <time>2017-10-31T12:44:27Z</time>
      </trkpt>
      <trkpt lat="43.01902" lon="0.20466">
        <ele>1278.51</ele>
        <time>2017-10-31T12:44:36Z</time>
      </trkpt>
      <trkpt lat="43.01917" lon="0.20432">
        <ele>1277.77</ele>
        <time>2017-10-31T12:44:49Z</time>
      </trkpt>
      <trkpt lat="43.0192" lon="0.20403">
        <ele>1275.55</ele>
        <time>2017-10-31T12:45:02Z</time>
      </trkpt>
      <trkpt lat="43.01926" lon="0.20379">
        <ele>1272.5</ele>
        <time>2017-10-31T12:45:12Z</time>
      </trkpt>
      <trkpt lat="43.01929" lon="0.20359">
        <ele>1269.07</ele>
        <time>2017-10-31T12:45:21Z</time>
      </trkpt>
      <trkpt lat="43.01932" lon="0.20349">
        <ele>1267.4</ele>
        <time>2017-10-31T12:45:25Z</time>
      </trkpt>
      <trkpt lat="43.01939" lon="0.20333">
        <ele>1265.24</ele>
        <time>2017-10-31T12:45:31Z</time>
      </trkpt>
      <trkpt lat="43.01943" lon="0.20318">
        <ele>1261.72</ele>
        <time>2017-10-31T12:45:40Z</time>
      </trkpt>
      <trkpt lat="43.01946" lon="0.20317">
        <ele>1260.02</ele>
        <time>2017-10-31T12:46:01Z</time>
      </trkpt>
      <trkpt lat="43.01947" lon="0.20318">
        <ele>1260.08</ele>
        <time>2017-10-31T12:46:09Z</time>
      </trkpt>
      <trkpt lat="43.01953" lon="0.20311">
        <ele>1260.08</ele>
        <time>2017-10-31T12:46:13Z</time>
      </trkpt>
      <trkpt lat="43.01962" lon="0.20297">
        <ele>1258.8</ele>
        <time>2017-10-31T12:46:20Z</time>
      </trkpt>
      <trkpt lat="43.01967" lon="0.20292">
        <ele>1257.43</ele>
        <time>2017-10-31T12:46:24Z</time>
      </trkpt>
      <trkpt lat="43.01975" lon="0.20291">
        <ele>1255.31</ele>
        <time>2017-10-31T12:46:30Z</time>
      </trkpt>
      <trkpt lat="43.01982" lon="0.20285">
        <ele>1253.77</ele>
        <time>2017-10-31T12:46:35Z</time>
      </trkpt>
      <trkpt lat="43.01996" lon="0.20264">
        <ele>1249.88</ele>
        <time>2017-10-31T12:46:41Z</time>
      </trkpt>
      <trkpt lat="43.01999" lon="0.20243">
        <ele>1246.58</ele>
        <time>2017-10-31T12:46:45Z</time>
      </trkpt>
      <trkpt lat="43.01999" lon="0.20222">
        <ele>1242.74</ele>
        <time>2017-10-31T12:46:49Z</time>
      </trkpt>
      <trkpt lat="43.01992" lon="0.20178">
        <ele>1239.05</ele>
        <time>2017-10-31T12:47:00Z</time>
      </trkpt>
      <trkpt lat="43.01995" lon="0.20149">
        <ele>1236.54</ele>
        <time>2017-10-31T12:47:09Z</time>
      </trkpt>
      <trkpt lat="43.01996" lon="0.20144">
        <ele>1236.2</ele>
        <time>2017-10-31T12:47:10Z</time>
      </trkpt>
      <trkpt lat="43.0201" lon="0.20094">
        <ele>1232.1</ele>
        <time>2017-10-31T12:47:16Z</time>
      </trkpt>
      <trkpt lat="43.02015" lon="0.20061">
        <ele>1228.25</ele>
        <time>2017-10-31T12:47:19Z</time>
      </trkpt>
      <trkpt lat="43.02017" lon="0.2005">
        <ele>1228.25</ele>
        <time>2017-10-31T12:47:20Z</time>
      </trkpt>
      <trkpt lat="43.02021" lon="0.20029">
        <ele>1225.11</ele>
        <time>2017-10-31T12:47:22Z</time>
      </trkpt>
      <trkpt lat="43.02034" lon="0.19986">
        <ele>1223.6</ele>
        <time>2017-10-31T12:47:31Z</time>
      </trkpt>
      <trkpt lat="43.02035" lon="0.19989">
        <ele>1224.96</ele>
        <time>2017-10-31T12:47:47Z</time>
      </trkpt>
      <trkpt lat="43.02035" lon="0.1999">
        <ele>1225.68</ele>
        <time>2017-10-31T12:48:14Z</time>
      </trkpt>
      <trkpt lat="43.02036" lon="0.19988">
        <ele>1225.93</ele>
        <time>2017-10-31T12:48:26Z</time>
      </trkpt>
      <trkpt lat="43.02032" lon="0.19969">
        <ele>1224.93</ele>
        <time>2017-10-31T12:48:31Z</time>
      </trkpt>
      <trkpt lat="43.02032" lon="0.19959">
        <ele>1224.02</ele>
        <time>2017-10-31T12:48:33Z</time>
      </trkpt>
      <trkpt lat="43.02031" lon="0.19932">
        <ele>1219.9</ele>
        <time>2017-10-31T12:48:38Z</time>
      </trkpt>
      <trkpt lat="43.02036" lon="0.19913">
        <ele>1216.55</ele>
        <time>2017-10-31T12:48:43Z</time>
      </trkpt>
      <trkpt lat="43.02044" lon="0.19894">
        <ele>1213.29</ele>
        <time>2017-10-31T12:48:50Z</time>
      </trkpt>
      <trkpt lat="43.02048" lon="0.19883">
        <ele>1210.58</ele>
        <time>2017-10-31T12:49:07Z</time>
      </trkpt>
      <trkpt lat="43.02057" lon="0.1986">
        <ele>1207.96</ele>
        <time>2017-10-31T12:49:20Z</time>
      </trkpt>
      <trkpt lat="43.02059" lon="0.1985">
        <ele>1206.05</ele>
        <time>2017-10-31T12:49:26Z</time>
      </trkpt>
      <trkpt lat="43.0206" lon="0.19847">
        <ele>1205.44</ele>
        <time>2017-10-31T12:49:28Z</time>
      </trkpt>
      <trkpt lat="43.02066" lon="0.19829">
        <ele>1202.86</ele>
        <time>2017-10-31T12:49:37Z</time>
      </trkpt>
      <trkpt lat="43.0207" lon="0.19813">
        <ele>1200.43</ele>
        <time>2017-10-31T12:49:43Z</time>
      </trkpt>
      <trkpt lat="43.02082" lon="0.19785">
        <ele>1196.67</ele>
        <time>2017-10-31T12:49:50Z</time>
      </trkpt>
      <trkpt lat="43.02094" lon="0.19759">
        <ele>1194.03</ele>
        <time>2017-10-31T12:49:59Z</time>
      </trkpt>
      <trkpt lat="43.02098" lon="0.19745">
        <ele>1193.14</ele>
        <time>2017-10-31T12:50:19Z</time>
      </trkpt>
      <trkpt lat="43.02096" lon="0.19743">
        <ele>1191.91</ele>
        <time>2017-10-31T12:50:25Z</time>
      </trkpt>
      <trkpt lat="43.0209" lon="0.19723">
        <ele>1190.43</ele>
        <time>2017-10-31T12:50:33Z</time>
      </trkpt>
      <trkpt lat="43.02091" lon="0.19698">
        <ele>1187.07</ele>
        <time>2017-10-31T12:50:42Z</time>
      </trkpt>
      <trkpt lat="43.02093" lon="0.19689">
        <ele>1183.96</ele>
        <time>2017-10-31T12:50:47Z</time>
      </trkpt>
      <trkpt lat="43.02093" lon="0.19678">
        <ele>1180.53</ele>
        <time>2017-10-31T12:50:56Z</time>
      </trkpt>
      <trkpt lat="43.02097" lon="0.1968">
        <ele>1177.67</ele>
        <time>2017-10-31T12:51:17Z</time>
      </trkpt>
      <trkpt lat="43.02098" lon="0.19681">
        <ele>1177.56</ele>
        <time>2017-10-31T12:51:18Z</time>
      </trkpt>
      <trkpt lat="43.02103" lon="0.19678">
        <ele>1174.82</ele>
        <time>2017-10-31T12:51:34Z</time>
      </trkpt>
      <trkpt lat="43.02106" lon="0.1967">
        <ele>1172.92</ele>
        <time>2017-10-31T12:51:50Z</time>
      </trkpt>
      <trkpt lat="43.02108" lon="0.19674">
        <ele>1169.82</ele>
        <time>2017-10-31T12:52:01Z</time>
      </trkpt>
      <trkpt lat="43.02109" lon="0.19672">
        <ele>1169.03</ele>
        <time>2017-10-31T12:52:24Z</time>
      </trkpt>
      <trkpt lat="43.02112" lon="0.19673">
        <ele>1169.04</ele>
        <time>2017-10-31T12:52:55Z</time>
      </trkpt>
      <trkpt lat="43.02108" lon="0.19672">
        <ele>1169.23</ele>
        <time>2017-10-31T12:53:19Z</time>
      </trkpt>
      <trkpt lat="43.02109" lon="0.19693">
        <ele>1166.37</ele>
        <time>2017-10-31T12:53:33Z</time>
      </trkpt>
      <trkpt lat="43.02109" lon="0.19695">
        <ele>1165.88</ele>
        <time>2017-10-31T12:53:34Z</time>
      </trkpt>
      <trkpt lat="43.02122" lon="0.19707">
        <ele>1163.38</ele>
        <time>2017-10-31T12:53:39Z</time>
      </trkpt>
      <trkpt lat="43.02142" lon="0.19718">
        <ele>1159.39</ele>
        <time>2017-10-31T12:53:47Z</time>
      </trkpt>
      <trkpt lat="43.02153" lon="0.19732">
        <ele>1156.94</ele>
        <time>2017-10-31T12:53:53Z</time>
      </trkpt>
      <trkpt lat="43.02159" lon="0.19741">
        <ele>1155.18</ele>
        <time>2017-10-31T12:53:57Z</time>
      </trkpt>
      <trkpt lat="43.02171" lon="0.19743">
        <ele>1151.71</ele>
        <time>2017-10-31T12:54:04Z</time>
      </trkpt>
      <trkpt lat="43.02174" lon="0.19744">
        <ele>1149.67</ele>
        <time>2017-10-31T12:54:09Z</time>
      </trkpt>
      <trkpt lat="43.02182" lon="0.19751">
        <ele>1148.64</ele>
        <time>2017-10-31T12:54:19Z</time>
      </trkpt>
      <trkpt lat="43.02184" lon="0.1976">
        <ele>1146.12</ele>
        <time>2017-10-31T12:54:34Z</time>
      </trkpt>
      <trkpt lat="43.02197" lon="0.19748">
        <ele>1143.08</ele>
        <time>2017-10-31T12:54:47Z</time>
      </trkpt>
      <trkpt lat="43.022" lon="0.19745">
        <ele>1141.83</ele>
        <time>2017-10-31T12:54:50Z</time>
      </trkpt>
      <trkpt lat="43.02202" lon="0.1975">
        <ele>1140.17</ele>
        <time>2017-10-31T12:54:54Z</time>
      </trkpt>
      <trkpt lat="43.02194" lon="0.19765">
        <ele>1136.56</ele>
        <time>2017-10-31T12:55:03Z</time>
      </trkpt>
      <trkpt lat="43.02183" lon="0.19784">
        <ele>1133.33</ele>
        <time>2017-10-31T12:55:12Z</time>
      </trkpt>
      <trkpt lat="43.02178" lon="0.19791">
        <ele>1131.16</ele>
        <time>2017-10-31T12:55:15Z</time>
      </trkpt>
      <trkpt lat="43.02173" lon="0.19804">
        <ele>1127.22</ele>
        <time>2017-10-31T12:55:21Z</time>
      </trkpt>
      <trkpt lat="43.02175" lon="0.1981">
        <ele>1124.64</ele>
        <time>2017-10-31T12:55:25Z</time>
      </trkpt>
      <trkpt lat="43.0218" lon="0.19807">
        <ele>1121.35</ele>
        <time>2017-10-31T12:55:31Z</time>
      </trkpt>
      <trkpt lat="43.02181" lon="0.19815">
        <ele>1119.3</ele>
        <time>2017-10-31T12:55:35Z</time>
      </trkpt>
      <trkpt lat="43.02179" lon="0.19829">
        <ele>1116.38</ele>
        <time>2017-10-31T12:55:40Z</time>
      </trkpt>
      <trkpt lat="43.02179" lon="0.19834">
        <ele>1115.25</ele>
        <time>2017-10-31T12:55:42Z</time>
      </trkpt>
      <trkpt lat="43.02184" lon="0.19851">
        <ele>1112.53</ele>
        <time>2017-10-31T12:55:47Z</time>
      </trkpt>
      <trkpt lat="43.02197" lon="0.19865">
        <ele>1108.51</ele>
        <time>2017-10-31T12:55:54Z</time>
      </trkpt>
      <trkpt lat="43.02203" lon="0.19872">
        <ele>1105.36</ele>
        <time>2017-10-31T12:56:02Z</time>
      </trkpt>
      <trkpt lat="43.02208" lon="0.19882">
        <ele>1102.1</ele>
        <time>2017-10-31T12:56:16Z</time>
      </trkpt>
      <trkpt lat="43.02213" lon="0.19888">
        <ele>1099.38</ele>
        <time>2017-10-31T12:56:36Z</time>
      </trkpt>
      <trkpt lat="43.02219" lon="0.1989">
        <ele>1099.53</ele>
        <time>2017-10-31T12:57:00Z</time>
      </trkpt>
      <trkpt lat="43.02219" lon="0.1989">
        <ele>1098.95</ele>
        <time>2017-10-31T12:57:24Z</time>
      </trkpt>
      <trkpt lat="43.0222" lon="0.19896">
        <ele>1098.9</ele>
        <time>2017-10-31T12:57:29Z</time>
      </trkpt>
      <trkpt lat="43.02227" lon="0.19915">
        <ele>1096.62</ele>
        <time>2017-10-31T12:57:37Z</time>
      </trkpt>
      <trkpt lat="43.02227" lon="0.19919">
        <ele>1096.14</ele>
        <time>2017-10-31T12:57:38Z</time>
      </trkpt>
      <trkpt lat="43.02229" lon="0.19943">
        <ele>1091.97</ele>
        <time>2017-10-31T12:57:44Z</time>
      </trkpt>
      <trkpt lat="43.02239" lon="0.19957">
        <ele>1088.79</ele>
        <time>2017-10-31T12:57:51Z</time>
      </trkpt>
      <trkpt lat="43.02254" lon="0.19947">
        <ele>1085.51</ele>
        <time>2017-10-31T12:58:01Z</time>
      </trkpt>
      <trkpt lat="43.02268" lon="0.19941">
        <ele>1082.71</ele>
        <time>2017-10-31T12:58:07Z</time>
      </trkpt>
      <trkpt lat="43.02283" lon="0.19929">
        <ele>1078.61</ele>
        <time>2017-10-31T12:58:13Z</time>
      </trkpt>
      <trkpt lat="43.02285" lon="0.19928">
        <ele>1077.98</ele>
        <time>2017-10-31T12:58:14Z</time>
      </trkpt>
      <trkpt lat="43.0229" lon="0.19918">
        <ele>1074.31</ele>
        <time>2017-10-31T12:58:22Z</time>
      </trkpt>
      <trkpt lat="43.02295" lon="0.19912">
        <ele>1072.72</ele>
        <time>2017-10-31T12:58:49Z</time>
      </trkpt>
      <trkpt lat="43.02303" lon="0.1992">
        <ele>1072.84</ele>
        <time>2017-10-31T12:59:24Z</time>
      </trkpt>
      <trkpt lat="43.02299" lon="0.1992">
        <ele>1073.51</ele>
        <time>2017-10-31T13:00:02Z</time>
      </trkpt>
      <trkpt lat="43.02303" lon="0.19913">
        <ele>1073.07</ele>
        <time>2017-10-31T13:00:27Z</time>
      </trkpt>
      <trkpt lat="43.02303" lon="0.19914">
        <ele>1073.26</ele>
        <time>2017-10-31T13:00:50Z</time>
      </trkpt>
      <trkpt lat="43.02301" lon="0.19911">
        <ele>1073.9</ele>
        <time>2017-10-31T13:01:12Z</time>
      </trkpt>
      <trkpt lat="43.02301" lon="0.19912">
        <ele>1074.03</ele>
        <time>2017-10-31T13:01:34Z</time>
      </trkpt>
      <trkpt lat="43.02301" lon="0.19904">
        <ele>1073.7</ele>
        <time>2017-10-31T13:01:55Z</time>
      </trkpt>
      <trkpt lat="43.02304" lon="0.19897">
        <ele>1072.21</ele>
        <time>2017-10-31T13:02:01Z</time>
      </trkpt>
      <trkpt lat="43.02318" lon="0.19885">
        <ele>1068.23</ele>
        <time>2017-10-31T13:02:08Z</time>
      </trkpt>
      <trkpt lat="43.02322" lon="0.19884">
        <ele>1067.64</ele>
        <time>2017-10-31T13:02:10Z</time>
      </trkpt>
      <trkpt lat="43.02332" lon="0.19872">
        <ele>1063.75</ele>
        <time>2017-10-31T13:02:18Z</time>
      </trkpt>
      <trkpt lat="43.02335" lon="0.19868">
        <ele>1062.28</ele>
        <time>2017-10-31T13:02:21Z</time>
      </trkpt>
      <trkpt lat="43.02343" lon="0.19859">
        <ele>1059.64</ele>
        <time>2017-10-31T13:02:26Z</time>
      </trkpt>
      <trkpt lat="43.02352" lon="0.19846">
        <ele>1056.57</ele>
        <time>2017-10-31T13:02:31Z</time>
      </trkpt>
      <trkpt lat="43.02362" lon="0.19837">
        <ele>1052.72</ele>
        <time>2017-10-31T13:02:35Z</time>
      </trkpt>
      <trkpt lat="43.02367" lon="0.19832">
        <ele>1049.27</ele>
        <time>2017-10-31T13:02:38Z</time>
      </trkpt>
      <trkpt lat="43.02375" lon="0.19825">
        <ele>1046.34</ele>
        <time>2017-10-31T13:02:43Z</time>
      </trkpt>
      <trkpt lat="43.02376" lon="0.19822">
        <ele>1045.69</ele>
        <time>2017-10-31T13:02:44Z</time>
      </trkpt>
      <trkpt lat="43.02379" lon="0.19819">
        <ele>1044.52</ele>
        <time>2017-10-31T13:02:46Z</time>
      </trkpt>
      <trkpt lat="43.02388" lon="0.19808">
        <ele>1040.54</ele>
        <time>2017-10-31T13:02:51Z</time>
      </trkpt>
      <trkpt lat="43.0239" lon="0.19806">
        <ele>1039.84</ele>
        <time>2017-10-31T13:02:52Z</time>
      </trkpt>
      <trkpt lat="43.02402" lon="0.19791">
        <ele>1035.68</ele>
        <time>2017-10-31T13:02:59Z</time>
      </trkpt>
      <trkpt lat="43.02402" lon="0.1979">
        <ele>1035.68</ele>
        <time>2017-10-31T13:03:00Z</time>
      </trkpt>
      <trkpt lat="43.02414" lon="0.19779">
        <ele>1032.36</ele>
        <time>2017-10-31T13:03:06Z</time>
      </trkpt>
      <trkpt lat="43.02429" lon="0.19768">
        <ele>1028.51</ele>
        <time>2017-10-31T13:03:14Z</time>
      </trkpt>
      <trkpt lat="43.0244" lon="0.1976">
        <ele>1026.47</ele>
        <time>2017-10-31T13:03:20Z</time>
      </trkpt>
      <trkpt lat="43.02451" lon="0.19753">
        <ele>1023.25</ele>
        <time>2017-10-31T13:03:25Z</time>
      </trkpt>
      <trkpt lat="43.02464" lon="0.19747">
        <ele>1019.89</ele>
        <time>2017-10-31T13:03:30Z</time>
      </trkpt>
      <trkpt lat="43.02481" lon="0.19739">
        <ele>1016.54</ele>
        <time>2017-10-31T13:03:37Z</time>
      </trkpt>
      <trkpt lat="43.02501" lon="0.19731">
        <ele>1013.09</ele>
        <time>2017-10-31T13:03:42Z</time>
      </trkpt>
      <trkpt lat="43.02518" lon="0.19724">
        <ele>1009.68</ele>
        <time>2017-10-31T13:03:48Z</time>
      </trkpt>
      <trkpt lat="43.02537" lon="0.19714">
        <ele>1006.52</ele>
        <time>2017-10-31T13:03:53Z</time>
      </trkpt>
      <trkpt lat="43.02551" lon="0.19711">
        <ele>1002.95</ele>
        <time>2017-10-31T13:03:57Z</time>
      </trkpt>
      <trkpt lat="43.02555" lon="0.19711">
        <ele>1002.95</ele>
        <time>2017-10-31T13:03:58Z</time>
      </trkpt>
      <trkpt lat="43.02575" lon="0.19702">
        <ele>999.59</ele>
        <time>2017-10-31T13:04:05Z</time>
      </trkpt>
      <trkpt lat="43.02594" lon="0.19692">
        <ele>996.84</ele>
        <time>2017-10-31T13:04:11Z</time>
      </trkpt>
      <trkpt lat="43.02598" lon="0.19691">
        <ele>995.68</ele>
        <time>2017-10-31T13:04:14Z</time>
      </trkpt>
      <trkpt lat="43.02609" lon="0.19682">
        <ele>994.53</ele>
        <time>2017-10-31T13:04:19Z</time>
      </trkpt>
      <trkpt lat="43.02619" lon="0.1968">
        <ele>992.44</ele>
        <time>2017-10-31T13:04:24Z</time>
      </trkpt>
      <trkpt lat="43.02633" lon="0.19672">
        <ele>988.81</ele>
        <time>2017-10-31T13:04:31Z</time>
      </trkpt>
      <trkpt lat="43.02635" lon="0.19671">
        <ele>987.7</ele>
        <time>2017-10-31T13:04:32Z</time>
      </trkpt>
      <trkpt lat="43.02647" lon="0.1967">
        <ele>986.3</ele>
        <time>2017-10-31T13:04:36Z</time>
      </trkpt>
      <trkpt lat="43.02665" lon="0.19666">
        <ele>983.64</ele>
        <time>2017-10-31T13:04:41Z</time>
      </trkpt>
      <trkpt lat="43.02681" lon="0.19661">
        <ele>980.57</ele>
        <time>2017-10-31T13:04:46Z</time>
      </trkpt>
      <trkpt lat="43.02697" lon="0.19659">
        <ele>977.42</ele>
        <time>2017-10-31T13:04:52Z</time>
      </trkpt>
      <trkpt lat="43.02707" lon="0.19654">
        <ele>974.81</ele>
        <time>2017-10-31T13:05:03Z</time>
      </trkpt>
      <trkpt lat="43.02708" lon="0.19653">
        <ele>974.54</ele>
        <time>2017-10-31T13:05:04Z</time>
      </trkpt>
      <trkpt lat="43.02711" lon="0.19652">
        <ele>973.35</ele>
        <time>2017-10-31T13:05:09Z</time>
      </trkpt>
      <trkpt lat="43.02735" lon="0.19648">
        <ele>971.11</ele>
        <time>2017-10-31T13:05:25Z</time>
      </trkpt>
      <trkpt lat="43.02739" lon="0.19647">
        <ele>970.43</ele>
        <time>2017-10-31T13:05:27Z</time>
      </trkpt>
      <trkpt lat="43.02764" lon="0.19639">
        <ele>966.73</ele>
        <time>2017-10-31T13:05:37Z</time>
      </trkpt>
      <trkpt lat="43.02779" lon="0.19635">
        <ele>963.23</ele>
        <time>2017-10-31T13:05:43Z</time>
      </trkpt>
      <trkpt lat="43.02781" lon="0.19635">
        <ele>963.23</ele>
        <time>2017-10-31T13:05:44Z</time>
      </trkpt>
      <trkpt lat="43.02788" lon="0.19635">
        <ele>960.69</ele>
        <time>2017-10-31T13:05:52Z</time>
      </trkpt>
      <trkpt lat="43.02796" lon="0.19635">
        <ele>959.16</ele>
        <time>2017-10-31T13:06:13Z</time>
      </trkpt>
      <trkpt lat="43.02797" lon="0.19634">
        <ele>959.45</ele>
        <time>2017-10-31T13:06:36Z</time>
      </trkpt>
      <trkpt lat="43.02798" lon="0.19635">
        <ele>959.3</ele>
        <time>2017-10-31T13:06:57Z</time>
      </trkpt>
      <trkpt lat="43.02799" lon="0.19635">
        <ele>959.24</ele>
        <time>2017-10-31T13:07:11Z</time>
      </trkpt>
      <trkpt lat="43.02807" lon="0.19625">
        <ele>958</ele>
        <time>2017-10-31T13:07:27Z</time>
      </trkpt>
      <trkpt lat="43.02809" lon="0.19623">
        <ele>957.73</ele>
        <time>2017-10-31T13:07:28Z</time>
      </trkpt>
      <trkpt lat="43.02807" lon="0.19614">
        <ele>954.44</ele>
        <time>2017-10-31T13:07:39Z</time>
      </trkpt>
      <trkpt lat="43.028" lon="0.19608">
        <ele>951.41</ele>
        <time>2017-10-31T13:07:49Z</time>
      </trkpt>
      <trkpt lat="43.02786" lon="0.19601">
        <ele>949.67</ele>
        <time>2017-10-31T13:08:04Z</time>
      </trkpt>
      <trkpt lat="43.02773" lon="0.19593">
        <ele>947.96</ele>
        <time>2017-10-31T13:08:09Z</time>
      </trkpt>
      <trkpt lat="43.02754" lon="0.19583">
        <ele>944.36</ele>
        <time>2017-10-31T13:08:17Z</time>
      </trkpt>
      <trkpt lat="43.02757" lon="0.19573">
        <ele>941.7</ele>
        <time>2017-10-31T13:08:25Z</time>
      </trkpt>
      <trkpt lat="43.02763" lon="0.19569">
        <ele>940.09</ele>
        <time>2017-10-31T13:08:30Z</time>
      </trkpt>
      <trkpt lat="43.02769" lon="0.19564">
        <ele>937.89</ele>
        <time>2017-10-31T13:08:35Z</time>
      </trkpt>
      <trkpt lat="43.02774" lon="0.19558">
        <ele>935.14</ele>
        <time>2017-10-31T13:08:40Z</time>
      </trkpt>
      <trkpt lat="43.02778" lon="0.19555">
        <ele>933.2</ele>
        <time>2017-10-31T13:08:43Z</time>
      </trkpt>
      <trkpt lat="43.0279" lon="0.19547">
        <ele>929.79</ele>
        <time>2017-10-31T13:08:49Z</time>
      </trkpt>
      <trkpt lat="43.02801" lon="0.19542">
        <ele>926</ele>
        <time>2017-10-31T13:08:55Z</time>
      </trkpt>
      <trkpt lat="43.02807" lon="0.19538">
        <ele>922.75</ele>
        <time>2017-10-31T13:09:02Z</time>
      </trkpt>
      <trkpt lat="43.02813" lon="0.19525">
        <ele>919.87</ele>
        <time>2017-10-31T13:09:14Z</time>
      </trkpt>
      <trkpt lat="43.02811" lon="0.1952">
        <ele>918.04</ele>
        <time>2017-10-31T13:09:17Z</time>
      </trkpt>
      <trkpt lat="43.02805" lon="0.19506">
        <ele>914.98</ele>
        <time>2017-10-31T13:09:24Z</time>
      </trkpt>
      <trkpt lat="43.02798" lon="0.19494">
        <ele>912.49</ele>
        <time>2017-10-31T13:09:28Z</time>
      </trkpt>
      <trkpt lat="43.02786" lon="0.19479">
        <ele>908.35</ele>
        <time>2017-10-31T13:09:34Z</time>
      </trkpt>
      <trkpt lat="43.02784" lon="0.19478">
        <ele>907.72</ele>
        <time>2017-10-31T13:09:35Z</time>
      </trkpt>
      <trkpt lat="43.02784" lon="0.19474">
        <ele>906.62</ele>
        <time>2017-10-31T13:09:37Z</time>
      </trkpt>
      <trkpt lat="43.02791" lon="0.19458">
        <ele>903.02</ele>
        <time>2017-10-31T13:09:43Z</time>
      </trkpt>
      <trkpt lat="43.028" lon="0.19449">
        <ele>899.07</ele>
        <time>2017-10-31T13:09:50Z</time>
      </trkpt>
      <trkpt lat="43.02802" lon="0.19447">
        <ele>898.02</ele>
        <time>2017-10-31T13:09:51Z</time>
      </trkpt>
      <trkpt lat="43.02813" lon="0.19439">
        <ele>895.81</ele>
        <time>2017-10-31T13:09:55Z</time>
      </trkpt>
      <trkpt lat="43.02827" lon="0.19425">
        <ele>891.44</ele>
        <time>2017-10-31T13:10:01Z</time>
      </trkpt>
      <trkpt lat="43.02835" lon="0.19418">
        <ele>888.16</ele>
        <time>2017-10-31T13:10:05Z</time>
      </trkpt>
      <trkpt lat="43.02849" lon="0.19404">
        <ele>884.48</ele>
        <time>2017-10-31T13:10:10Z</time>
      </trkpt>
      <trkpt lat="43.02866" lon="0.19387">
        <ele>880.95</ele>
        <time>2017-10-31T13:10:15Z</time>
      </trkpt>
      <trkpt lat="43.02879" lon="0.19379">
        <ele>877.46</ele>
        <time>2017-10-31T13:10:20Z</time>
      </trkpt>
      <trkpt lat="43.02891" lon="0.19376">
        <ele>874.45</ele>
        <time>2017-10-31T13:10:24Z</time>
      </trkpt>
      <trkpt lat="43.02892" lon="0.19376">
        <ele>874.45</ele>
        <time>2017-10-31T13:10:25Z</time>
      </trkpt>
      <trkpt lat="43.02902" lon="0.19374">
        <ele>871.05</ele>
        <time>2017-10-31T13:10:30Z</time>
      </trkpt>
      <trkpt lat="43.02906" lon="0.19371">
        <ele>870.07</ele>
        <time>2017-10-31T13:10:32Z</time>
      </trkpt>
      <trkpt lat="43.02909" lon="0.19363">
        <ele>868.24</ele>
        <time>2017-10-31T13:10:36Z</time>
      </trkpt>
      <trkpt lat="43.02915" lon="0.19356">
        <ele>865.57</ele>
        <time>2017-10-31T13:10:41Z</time>
      </trkpt>
      <trkpt lat="43.02921" lon="0.19352">
        <ele>863.26</ele>
        <time>2017-10-31T13:10:45Z</time>
      </trkpt>
      <trkpt lat="43.02929" lon="0.19346">
        <ele>860.65</ele>
        <time>2017-10-31T13:10:49Z</time>
      </trkpt>
      <trkpt lat="43.0294" lon="0.1934">
        <ele>857.26</ele>
        <time>2017-10-31T13:10:54Z</time>
      </trkpt>
      <trkpt lat="43.02948" lon="0.19338">
        <ele>854.04</ele>
        <time>2017-10-31T13:10:59Z</time>
      </trkpt>
      <trkpt lat="43.02954" lon="0.1933">
        <ele>850.9</ele>
        <time>2017-10-31T13:11:04Z</time>
      </trkpt>
      <trkpt lat="43.02961" lon="0.19332">
        <ele>848.84</ele>
        <time>2017-10-31T13:11:08Z</time>
      </trkpt>
      <trkpt lat="43.02969" lon="0.1934">
        <ele>845.58</ele>
        <time>2017-10-31T13:11:13Z</time>
      </trkpt>
      <trkpt lat="43.02971" lon="0.19342">
        <ele>845.07</ele>
        <time>2017-10-31T13:11:14Z</time>
      </trkpt>
      <trkpt lat="43.02985" lon="0.19349">
        <ele>841.3</ele>
        <time>2017-10-31T13:11:20Z</time>
      </trkpt>
      <trkpt lat="43.02993" lon="0.19354">
        <ele>838.26</ele>
        <time>2017-10-31T13:11:25Z</time>
      </trkpt>
      <trkpt lat="43.02997" lon="0.1935">
        <ele>834.93</ele>
        <time>2017-10-31T13:11:31Z</time>
      </trkpt>
      <trkpt lat="43.03013" lon="0.19351">
        <ele>833.33</ele>
        <time>2017-10-31T13:11:56Z</time>
      </trkpt>
      <trkpt lat="43.03017" lon="0.19359">
        <ele>833.29</ele>
        <time>2017-10-31T13:12:19Z</time>
      </trkpt>
      <trkpt lat="43.03017" lon="0.1936">
        <ele>832.66</ele>
        <time>2017-10-31T13:12:43Z</time>
      </trkpt>
      <trkpt lat="43.03023" lon="0.19358">
        <ele>832.91</ele>
        <time>2017-10-31T13:13:06Z</time>
      </trkpt>
      <trkpt lat="43.03019" lon="0.19352">
        <ele>832.54</ele>
        <time>2017-10-31T13:13:28Z</time>
      </trkpt>
      <trkpt lat="43.03018" lon="0.19351">
        <ele>832.58</ele>
        <time>2017-10-31T13:13:33Z</time>
      </trkpt>
      <trkpt lat="43.03026" lon="0.19347">
        <ele>832.68</ele>
        <time>2017-10-31T13:13:59Z</time>
      </trkpt>
      <trkpt lat="43.03024" lon="0.19349">
        <ele>832.83</ele>
        <time>2017-10-31T13:14:24Z</time>
      </trkpt>
      <trkpt lat="43.03027" lon="0.1935">
        <ele>832.81</ele>
        <time>2017-10-31T13:14:50Z</time>
      </trkpt>
      <trkpt lat="43.03027" lon="0.19353">
        <ele>833.01</ele>
        <time>2017-10-31T13:15:14Z</time>
      </trkpt>
      <trkpt lat="43.03029" lon="0.19352">
        <ele>832.27</ele>
        <time>2017-10-31T13:15:40Z</time>
      </trkpt>
      <trkpt lat="43.0303" lon="0.19346">
        <ele>832.73</ele>
        <time>2017-10-31T13:16:04Z</time>
      </trkpt>
      <trkpt lat="43.03032" lon="0.19345">
        <ele>832.49</ele>
        <time>2017-10-31T13:16:18Z</time>
      </trkpt>
      <trkpt lat="43.03034" lon="0.19354">
        <ele>832.49</ele>
        <time>2017-10-31T13:16:46Z</time>
      </trkpt>
      <trkpt lat="43.03034" lon="0.1936">
        <ele>832.64</ele>
        <time>2017-10-31T13:17:10Z</time>
      </trkpt>
      <trkpt lat="43.03033" lon="0.19358">
        <ele>832.75</ele>
        <time>2017-10-31T13:17:35Z</time>
      </trkpt>
      <trkpt lat="43.03029" lon="0.19356">
        <ele>832.62</ele>
        <time>2017-10-31T13:18:00Z</time>
      </trkpt>
      <trkpt lat="43.03029" lon="0.19357">
        <ele>832.14</ele>
        <time>2017-10-31T13:18:24Z</time>
      </trkpt>
      <trkpt lat="43.03035" lon="0.19355">
        <ele>832.08</ele>
        <time>2017-10-31T13:18:33Z</time>
      </trkpt>
      <trkpt lat="43.03037" lon="0.19356">
        <ele>831.6</ele>
        <time>2017-10-31T13:18:35Z</time>
      </trkpt>
      <trkpt lat="43.0304" lon="0.19357">
        <ele>830.42</ele>
        <time>2017-10-31T13:18:37Z</time>
      </trkpt>
      <trkpt lat="43.03051" lon="0.19373">
        <ele>826.53</ele>
        <time>2017-10-31T13:18:45Z</time>
      </trkpt>
      <trkpt lat="43.03052" lon="0.19375">
        <ele>826.05</ele>
        <time>2017-10-31T13:18:46Z</time>
      </trkpt>
      <trkpt lat="43.03057" lon="0.19389">
        <ele>823.27</ele>
        <time>2017-10-31T13:18:55Z</time>
      </trkpt>
      <trkpt lat="43.03055" lon="0.19395">
        <ele>822.03</ele>
        <time>2017-10-31T13:19:01Z</time>
      </trkpt>
      <trkpt lat="43.03054" lon="0.19402">
        <ele>820.92</ele>
        <time>2017-10-31T13:19:05Z</time>
      </trkpt>
      <trkpt lat="43.03053" lon="0.19408">
        <ele>819.09</ele>
        <time>2017-10-31T13:19:09Z</time>
      </trkpt>
      <trkpt lat="43.03053" lon="0.1942">
        <ele>815.46</ele>
        <time>2017-10-31T13:19:18Z</time>
      </trkpt>
      <trkpt lat="43.03052" lon="0.19426">
        <ele>813.72</ele>
        <time>2017-10-31T13:19:27Z</time>
      </trkpt>
      <trkpt lat="43.03053" lon="0.19432">
        <ele>811.45</ele>
        <time>2017-10-31T13:19:45Z</time>
      </trkpt>
      <trkpt lat="43.03054" lon="0.19437">
        <ele>811.59</ele>
        <time>2017-10-31T13:20:08Z</time>
      </trkpt>
      <trkpt lat="43.03057" lon="0.1945">
        <ele>811.46</ele>
        <time>2017-10-31T13:20:36Z</time>
      </trkpt>
      <trkpt lat="43.03052" lon="0.19448">
        <ele>811.36</ele>
        <time>2017-10-31T13:20:59Z</time>
      </trkpt>
      <trkpt lat="43.03048" lon="0.19442">
        <ele>811.62</ele>
        <time>2017-10-31T13:21:21Z</time>
      </trkpt>
      <trkpt lat="43.03049" lon="0.19437">
        <ele>811.49</ele>
        <time>2017-10-31T13:21:43Z</time>
      </trkpt>
      <trkpt lat="43.03045" lon="0.19441">
        <ele>811.74</ele>
        <time>2017-10-31T13:22:04Z</time>
      </trkpt>
      <trkpt lat="43.03048" lon="0.19435">
        <ele>811.75</ele>
        <time>2017-10-31T13:22:28Z</time>
      </trkpt>
      <trkpt lat="43.03046" lon="0.19439">
        <ele>811.74</ele>
        <time>2017-10-31T13:22:49Z</time>
      </trkpt>
      <trkpt lat="43.03045" lon="0.19445">
        <ele>812.17</ele>
        <time>2017-10-31T13:23:11Z</time>
      </trkpt>
      <trkpt lat="43.0305" lon="0.19452">
        <ele>812.09</ele>
        <time>2017-10-31T13:23:38Z</time>
      </trkpt>
      <trkpt lat="43.03054" lon="0.19453">
        <ele>812.21</ele>
        <time>2017-10-31T13:24:05Z</time>
      </trkpt>
      <trkpt lat="43.03052" lon="0.19451">
        <ele>812.18</ele>
        <time>2017-10-31T13:24:28Z</time>
      </trkpt>
      <trkpt lat="43.03051" lon="0.19451">
        <ele>812.5</ele>
        <time>2017-10-31T13:24:51Z</time>
      </trkpt>
      <trkpt lat="43.03046" lon="0.19452">
        <ele>812.05</ele>
        <time>2017-10-31T13:25:10Z</time>
      </trkpt>
      <trkpt lat="43.03044" lon="0.19451">
        <ele>812.08</ele>
        <time>2017-10-31T13:25:31Z</time>
      </trkpt>
      <trkpt lat="43.03037" lon="0.19453">
        <ele>812.34</ele>
        <time>2017-10-31T13:25:54Z</time>
      </trkpt>
      <trkpt lat="43.03037" lon="0.19453">
        <ele>812.28</ele>
        <time>2017-10-31T13:26:18Z</time>
      </trkpt>
      <trkpt lat="43.03036" lon="0.19449">
        <ele>812.6</ele>
        <time>2017-10-31T13:26:42Z</time>
      </trkpt>
      <trkpt lat="43.0304" lon="0.19455">
        <ele>812.47</ele>
        <time>2017-10-31T13:27:01Z</time>
      </trkpt>
      <trkpt lat="43.03045" lon="0.19458">
        <ele>812.26</ele>
        <time>2017-10-31T13:27:24Z</time>
      </trkpt>
      <trkpt lat="43.03046" lon="0.19458">
        <ele>812.17</ele>
        <time>2017-10-31T13:27:46Z</time>
      </trkpt>
      <trkpt lat="43.03048" lon="0.1945">
        <ele>812.29</ele>
        <time>2017-10-31T13:28:11Z</time>
      </trkpt>
      <trkpt lat="43.03051" lon="0.19448">
        <ele>812.18</ele>
        <time>2017-10-31T13:28:34Z</time>
      </trkpt>
      <trkpt lat="43.03046" lon="0.19447">
        <ele>811.85</ele>
        <time>2017-10-31T13:28:59Z</time>
      </trkpt>
      <trkpt lat="43.0305" lon="0.19446">
        <ele>812.12</ele>
        <time>2017-10-31T13:29:24Z</time>
      </trkpt>
      <trkpt lat="43.03049" lon="0.19446">
        <ele>812.12</ele>
        <time>2017-10-31T13:29:45Z</time>
      </trkpt>
      <trkpt lat="43.03046" lon="0.19447">
        <ele>811.93</ele>
        <time>2017-10-31T13:30:11Z</time>
      </trkpt>
      <trkpt lat="43.03043" lon="0.19451">
        <ele>812.66</ele>
        <time>2017-10-31T13:30:31Z</time>
      </trkpt>
      <trkpt lat="43.03042" lon="0.19449">
        <ele>811.68</ele>
        <time>2017-10-31T13:30:54Z</time>
      </trkpt>
      <trkpt lat="43.0304" lon="0.1945">
        <ele>811.75</ele>
        <time>2017-10-31T13:31:18Z</time>
      </trkpt>
      <trkpt lat="43.03044" lon="0.19444">
        <ele>811.49</ele>
        <time>2017-10-31T13:31:43Z</time>
      </trkpt>
      <trkpt lat="43.03037" lon="0.19437">
        <ele>811.57</ele>
        <time>2017-10-31T13:32:08Z</time>
      </trkpt>
      <trkpt lat="43.03039" lon="0.19432">
        <ele>811.45</ele>
        <time>2017-10-31T13:32:34Z</time>
      </trkpt>
      <trkpt lat="43.03043" lon="0.19434">
        <ele>811.35</ele>
        <time>2017-10-31T13:32:54Z</time>
      </trkpt>
      <trkpt lat="43.03043" lon="0.19449">
        <ele>811.55</ele>
        <time>2017-10-31T13:33:19Z</time>
      </trkpt>
      <trkpt lat="43.03042" lon="0.1945">
        <ele>810.98</ele>
        <time>2017-10-31T13:33:43Z</time>
      </trkpt>
      <trkpt lat="43.03049" lon="0.1945">
        <ele>811.37</ele>
        <time>2017-10-31T13:34:04Z</time>
      </trkpt>
      <trkpt lat="43.03061" lon="0.19452">
        <ele>811.12</ele>
        <time>2017-10-31T13:34:26Z</time>
      </trkpt>
      <trkpt lat="43.0306" lon="0.19453">
        <ele>810.77</ele>
        <time>2017-10-31T13:34:52Z</time>
      </trkpt>
      <trkpt lat="43.03057" lon="0.19455">
        <ele>810.4</ele>
        <time>2017-10-31T13:35:14Z</time>
      </trkpt>
      <trkpt lat="43.03058" lon="0.1945">
        <ele>810.91</ele>
        <time>2017-10-31T13:35:30Z</time>
      </trkpt>
      <trkpt lat="43.03067" lon="0.19444">
        <ele>809.39</ele>
        <time>2017-10-31T13:35:35Z</time>
      </trkpt>
      <trkpt lat="43.03071" lon="0.19442">
        <ele>808.48</ele>
        <time>2017-10-31T13:35:37Z</time>
      </trkpt>
      <trkpt lat="43.03079" lon="0.19425">
        <ele>804.72</ele>
        <time>2017-10-31T13:35:44Z</time>
      </trkpt>
      <trkpt lat="43.03087" lon="0.19413">
        <ele>802.12</ele>
        <time>2017-10-31T13:35:48Z</time>
      </trkpt>
      <trkpt lat="43.03093" lon="0.19406">
        <ele>798.41</ele>
        <time>2017-10-31T13:35:54Z</time>
      </trkpt>
      <trkpt lat="43.03094" lon="0.19403">
        <ele>797.57</ele>
        <time>2017-10-31T13:35:56Z</time>
      </trkpt>
      <trkpt lat="43.031" lon="0.19396">
        <ele>795.97</ele>
        <time>2017-10-31T13:36:01Z</time>
      </trkpt>
      <trkpt lat="43.03104" lon="0.19395">
        <ele>792.57</ele>
        <time>2017-10-31T13:36:08Z</time>
      </trkpt>
      <trkpt lat="43.03107" lon="0.19401">
        <ele>789.41</ele>
        <time>2017-10-31T13:36:15Z</time>
      </trkpt>
      <trkpt lat="43.0311" lon="0.19411">
        <ele>787.26</ele>
        <time>2017-10-31T13:36:22Z</time>
      </trkpt>
      <trkpt lat="43.03117" lon="0.19421">
        <ele>785.51</ele>
        <time>2017-10-31T13:36:26Z</time>
      </trkpt>
      <trkpt lat="43.03128" lon="0.19419">
        <ele>782.73</ele>
        <time>2017-10-31T13:36:32Z</time>
      </trkpt>
      <trkpt lat="43.03136" lon="0.19415">
        <ele>779.15</ele>
        <time>2017-10-31T13:36:39Z</time>
      </trkpt>
      <trkpt lat="43.03138" lon="0.1941">
        <ele>776.05</ele>
        <time>2017-10-31T13:36:46Z</time>
      </trkpt>
      <trkpt lat="43.0314" lon="0.19408">
        <ele>775.35</ele>
        <time>2017-10-31T13:36:48Z</time>
      </trkpt>
      <trkpt lat="43.03143" lon="0.19395">
        <ele>771.66</ele>
        <time>2017-10-31T13:36:56Z</time>
      </trkpt>
      <trkpt lat="43.03149" lon="0.19392">
        <ele>768.62</ele>
        <time>2017-10-31T13:37:06Z</time>
      </trkpt>
      <trkpt lat="43.03153" lon="0.19391">
        <ele>768.19</ele>
        <time>2017-10-31T13:37:08Z</time>
      </trkpt>
      <trkpt lat="43.03159" lon="0.19393">
        <ele>765.68</ele>
        <time>2017-10-31T13:37:14Z</time>
      </trkpt>
      <trkpt lat="43.03165" lon="0.19393">
        <ele>762.7</ele>
        <time>2017-10-31T13:37:26Z</time>
      </trkpt>
      <trkpt lat="43.03167" lon="0.19396">
        <ele>762.35</ele>
        <time>2017-10-31T13:37:28Z</time>
      </trkpt>
      <trkpt lat="43.03171" lon="0.194">
        <ele>761.29</ele>
        <time>2017-10-31T13:37:31Z</time>
      </trkpt>
      <trkpt lat="43.03175" lon="0.19407">
        <ele>759.11</ele>
        <time>2017-10-31T13:37:35Z</time>
      </trkpt>
      <trkpt lat="43.03192" lon="0.19424">
        <ele>755.79</ele>
        <time>2017-10-31T13:37:43Z</time>
      </trkpt>
      <trkpt lat="43.03202" lon="0.19437">
        <ele>752.66</ele>
        <time>2017-10-31T13:37:48Z</time>
      </trkpt>
      <trkpt lat="43.0321" lon="0.19446">
        <ele>750.06</ele>
        <time>2017-10-31T13:37:55Z</time>
      </trkpt>
      <trkpt lat="43.03223" lon="0.19449">
        <ele>747.64</ele>
        <time>2017-10-31T13:38:09Z</time>
      </trkpt>
      <trkpt lat="43.03234" lon="0.19445">
        <ele>746.14</ele>
        <time>2017-10-31T13:38:21Z</time>
      </trkpt>
      <trkpt lat="43.03242" lon="0.19437">
        <ele>745.41</ele>
        <time>2017-10-31T13:38:28Z</time>
      </trkpt>
      <trkpt lat="43.03244" lon="0.19436">
        <ele>745.22</ele>
        <time>2017-10-31T13:38:29Z</time>
      </trkpt>
      <trkpt lat="43.03258" lon="0.19427">
        <ele>742.62</ele>
        <time>2017-10-31T13:38:37Z</time>
      </trkpt>
      <trkpt lat="43.03263" lon="0.19432">
        <ele>741.38</ele>
        <time>2017-10-31T13:38:42Z</time>
      </trkpt>
      <trkpt lat="43.03271" lon="0.19433">
        <ele>740.45</ele>
        <time>2017-10-31T13:38:46Z</time>
      </trkpt>
      <trkpt lat="43.03278" lon="0.19428">
        <ele>739.74</ele>
        <time>2017-10-31T13:38:49Z</time>
      </trkpt>
      <trkpt lat="43.03282" lon="0.1942">
        <ele>738.99</ele>
        <time>2017-10-31T13:38:53Z</time>
      </trkpt>
      <trkpt lat="43.03301" lon="0.19406">
        <ele>737.23</ele>
        <time>2017-10-31T13:39:00Z</time>
      </trkpt>
      <trkpt lat="43.03312" lon="0.19393">
        <ele>735.32</ele>
        <time>2017-10-31T13:39:03Z</time>
      </trkpt>
      <trkpt lat="43.03334" lon="0.19382">
        <ele>733.35</ele>
        <time>2017-10-31T13:39:08Z</time>
      </trkpt>
      <trkpt lat="43.0334" lon="0.19379">
        <ele>731.81</ele>
        <time>2017-10-31T13:39:14Z</time>
      </trkpt>
      <trkpt lat="43.03342" lon="0.19378">
        <ele>731.52</ele>
        <time>2017-10-31T13:39:16Z</time>
      </trkpt>
      <trkpt lat="43.03346" lon="0.19381">
        <ele>731.13</ele>
        <time>2017-10-31T13:39:39Z</time>
      </trkpt>
      <trkpt lat="43.03346" lon="0.19379">
        <ele>731.36</ele>
        <time>2017-10-31T13:39:58Z</time>
      </trkpt>
      <trkpt lat="43.03355" lon="0.19364">
        <ele>730.98</ele>
        <time>2017-10-31T13:40:14Z</time>
      </trkpt>
      <trkpt lat="43.03361" lon="0.1936">
        <ele>730.48</ele>
        <time>2017-10-31T13:40:16Z</time>
      </trkpt>
      <trkpt lat="43.03394" lon="0.19327">
        <ele>726.6</ele>
        <time>2017-10-31T13:40:26Z</time>
      </trkpt>
      <trkpt lat="43.03396" lon="0.19318">
        <ele>725.22</ele>
        <time>2017-10-31T13:40:28Z</time>
      </trkpt>
      <trkpt lat="43.03403" lon="0.19291">
        <ele>723.35</ele>
        <time>2017-10-31T13:40:33Z</time>
      </trkpt>
      <trkpt lat="43.03417" lon="0.19268">
        <ele>721.47</ele>
        <time>2017-10-31T13:40:38Z</time>
      </trkpt>
      <trkpt lat="43.03429" lon="0.19246">
        <ele>719.48</ele>
        <time>2017-10-31T13:40:42Z</time>
      </trkpt>
      <trkpt lat="43.03443" lon="0.19227">
        <ele>717.51</ele>
        <time>2017-10-31T13:40:46Z</time>
      </trkpt>
      <trkpt lat="43.03467" lon="0.19202">
        <ele>714.93</ele>
        <time>2017-10-31T13:40:53Z</time>
      </trkpt>
      <trkpt lat="43.03484" lon="0.19178">
        <ele>713.75</ele>
        <time>2017-10-31T13:40:58Z</time>
      </trkpt>
      <trkpt lat="43.03495" lon="0.19161">
        <ele>712.42</ele>
        <time>2017-10-31T13:41:01Z</time>
      </trkpt>
      <trkpt lat="43.03507" lon="0.19148">
        <ele>710.6</ele>
        <time>2017-10-31T13:41:04Z</time>
      </trkpt>
      <trkpt lat="43.03524" lon="0.19121">
        <ele>708.19</ele>
        <time>2017-10-31T13:41:09Z</time>
      </trkpt>
      <trkpt lat="43.03541" lon="0.19083">
        <ele>705.1</ele>
        <time>2017-10-31T13:41:15Z</time>
      </trkpt>
      <trkpt lat="43.03549" lon="0.19069">
        <ele>704.04</ele>
        <time>2017-10-31T13:41:17Z</time>
      </trkpt>
      <trkpt lat="43.03558" lon="0.19058">
        <ele>702.59</ele>
        <time>2017-10-31T13:41:19Z</time>
      </trkpt>
      <trkpt lat="43.03572" lon="0.19042">
        <ele>700.57</ele>
        <time>2017-10-31T13:41:22Z</time>
      </trkpt>
      <trkpt lat="43.0359" lon="0.19019">
        <ele>698.42</ele>
        <time>2017-10-31T13:41:27Z</time>
      </trkpt>
      <trkpt lat="43.03624" lon="0.18984">
        <ele>695.68</ele>
        <time>2017-10-31T13:41:34Z</time>
      </trkpt>
      <trkpt lat="43.03643" lon="0.18964">
        <ele>693.83</ele>
        <time>2017-10-31T13:41:40Z</time>
      </trkpt>
      <trkpt lat="43.03649" lon="0.18955">
        <ele>691.62</ele>
        <time>2017-10-31T13:41:57Z</time>
      </trkpt>
      <trkpt lat="43.0365" lon="0.18946">
        <ele>691.48</ele>
        <time>2017-10-31T13:42:18Z</time>
      </trkpt>
      <trkpt lat="43.03657" lon="0.18919">
        <ele>690.45</ele>
        <time>2017-10-31T13:42:26Z</time>
      </trkpt>
      <trkpt lat="43.03658" lon="0.18883">
        <ele>689.18</ele>
        <time>2017-10-31T13:42:32Z</time>
      </trkpt>
      <trkpt lat="43.03659" lon="0.18868">
        <ele>688.5</ele>
        <time>2017-10-31T13:42:34Z</time>
      </trkpt>
      <trkpt lat="43.03665" lon="0.18832">
        <ele>686.97</ele>
        <time>2017-10-31T13:42:39Z</time>
      </trkpt>
      <trkpt lat="43.03669" lon="0.18811">
        <ele>686.18</ele>
        <time>2017-10-31T13:42:42Z</time>
      </trkpt>
      <trkpt lat="43.03669" lon="0.18797">
        <ele>685.75</ele>
        <time>2017-10-31T13:42:44Z</time>
      </trkpt>
      <trkpt lat="43.03668" lon="0.18776">
        <ele>685.06</ele>
        <time>2017-10-31T13:42:48Z</time>
      </trkpt>
      <trkpt lat="43.03667" lon="0.18729">
        <ele>683.93</ele>
        <time>2017-10-31T13:42:59Z</time>
      </trkpt>
      <trkpt lat="43.03664" lon="0.18695">
        <ele>683.2</ele>
        <time>2017-10-31T13:43:05Z</time>
      </trkpt>
      <trkpt lat="43.03661" lon="0.18672">
        <ele>682.82</ele>
        <time>2017-10-31T13:43:08Z</time>
      </trkpt>
      <trkpt lat="43.03685" lon="0.186">
        <ele>680.22</ele>
        <time>2017-10-31T13:43:17Z</time>
      </trkpt>
      <trkpt lat="43.03692" lon="0.18576">
        <ele>679.1</ele>
        <time>2017-10-31T13:43:20Z</time>
      </trkpt>
      <trkpt lat="43.03703" lon="0.18552">
        <ele>677.83</ele>
        <time>2017-10-31T13:43:23Z</time>
      </trkpt>
      <trkpt lat="43.03715" lon="0.18525">
        <ele>676.85</ele>
        <time>2017-10-31T13:43:27Z</time>
      </trkpt>
      <trkpt lat="43.03721" lon="0.18471">
        <ele>673.58</ele>
        <time>2017-10-31T13:43:34Z</time>
      </trkpt>
      <trkpt lat="43.03726" lon="0.18451">
        <ele>672.27</ele>
        <time>2017-10-31T13:43:36Z</time>
      </trkpt>
      <trkpt lat="43.03732" lon="0.18433">
        <ele>671.01</ele>
        <time>2017-10-31T13:43:38Z</time>
      </trkpt>
      <trkpt lat="43.03764" lon="0.18386">
        <ele>668.27</ele>
        <time>2017-10-31T13:43:44Z</time>
      </trkpt>
      <trkpt lat="43.03778" lon="0.18366">
        <ele>666.76</ele>
        <time>2017-10-31T13:43:47Z</time>
      </trkpt>
      <trkpt lat="43.038" lon="0.18337">
        <ele>665.27</ele>
        <time>2017-10-31T13:43:51Z</time>
      </trkpt>
      <trkpt lat="43.03823" lon="0.18309">
        <ele>663.29</ele>
        <time>2017-10-31T13:43:55Z</time>
      </trkpt>
      <trkpt lat="43.03832" lon="0.18295">
        <ele>662.5</ele>
        <time>2017-10-31T13:43:57Z</time>
      </trkpt>
      <trkpt lat="43.0385" lon="0.18261">
        <ele>661.58</ele>
        <time>2017-10-31T13:44:02Z</time>
      </trkpt>
      <trkpt lat="43.03858" lon="0.18235">
        <ele>660.9</ele>
        <time>2017-10-31T13:44:05Z</time>
      </trkpt>
      <trkpt lat="43.03874" lon="0.18203">
        <ele>659.42</ele>
        <time>2017-10-31T13:44:09Z</time>
      </trkpt>
      <trkpt lat="43.03883" lon="0.1818">
        <ele>658.53</ele>
        <time>2017-10-31T13:44:12Z</time>
      </trkpt>
      <trkpt lat="43.03893" lon="0.18162">
        <ele>658.22</ele>
        <time>2017-10-31T13:44:15Z</time>
      </trkpt>
      <trkpt lat="43.03901" lon="0.18141">
        <ele>658.08</ele>
        <time>2017-10-31T13:44:18Z</time>
      </trkpt>
      <trkpt lat="43.03908" lon="0.18112">
        <ele>657.7</ele>
        <time>2017-10-31T13:44:22Z</time>
      </trkpt>
      <trkpt lat="43.03919" lon="0.18074">
        <ele>657.17</ele>
        <time>2017-10-31T13:44:27Z</time>
      </trkpt>
      <trkpt lat="43.03934" lon="0.18039">
        <ele>656</ele>
        <time>2017-10-31T13:44:31Z</time>
      </trkpt>
      <trkpt lat="43.03956" lon="0.17973">
        <ele>653.12</ele>
        <time>2017-10-31T13:44:38Z</time>
      </trkpt>
      <trkpt lat="43.04" lon="0.17889">
        <ele>649.7</ele>
        <time>2017-10-31T13:44:48Z</time>
      </trkpt>
      <trkpt lat="43.04023" lon="0.1785">
        <ele>648.54</ele>
        <time>2017-10-31T13:44:53Z</time>
      </trkpt>
      <trkpt lat="43.0407" lon="0.17767">
        <ele>645.75</ele>
        <time>2017-10-31T13:45:04Z</time>
      </trkpt>
      <trkpt lat="43.0408" lon="0.17749">
        <ele>645.5</ele>
        <time>2017-10-31T13:45:07Z</time>
      </trkpt>
      <trkpt lat="43.04095" lon="0.17715">
        <ele>645.6</ele>
        <time>2017-10-31T13:45:13Z</time>
      </trkpt>
      <trkpt lat="43.041" lon="0.17696">
        <ele>645.91</ele>
        <time>2017-10-31T13:45:16Z</time>
      </trkpt>
      <trkpt lat="43.04102" lon="0.1767">
        <ele>646</ele>
        <time>2017-10-31T13:45:20Z</time>
      </trkpt>
      <trkpt lat="43.04102" lon="0.17656">
        <ele>645.92</ele>
        <time>2017-10-31T13:45:22Z</time>
      </trkpt>
      <trkpt lat="43.04105" lon="0.17624">
        <ele>645.37</ele>
        <time>2017-10-31T13:45:26Z</time>
      </trkpt>
      <trkpt lat="43.04091" lon="0.17528">
        <ele>642.48</ele>
        <time>2017-10-31T13:45:36Z</time>
      </trkpt>
      <trkpt lat="43.04094" lon="0.17442">
        <ele>639.14</ele>
        <time>2017-10-31T13:45:44Z</time>
      </trkpt>
      <trkpt lat="43.04096" lon="0.17385">
        <ele>635.4</ele>
        <time>2017-10-31T13:45:49Z</time>
      </trkpt>
      <trkpt lat="43.0409" lon="0.17334">
        <ele>632.19</ele>
        <time>2017-10-31T13:45:54Z</time>
      </trkpt>
      <trkpt lat="43.04078" lon="0.17305">
        <ele>630.44</ele>
        <time>2017-10-31T13:46:03Z</time>
      </trkpt>
      <trkpt lat="43.04077" lon="0.17296">
        <ele>630.44</ele>
        <time>2017-10-31T13:46:06Z</time>
      </trkpt>
      <trkpt lat="43.04075" lon="0.17282">
        <ele>630.64</ele>
        <time>2017-10-31T13:46:18Z</time>
      </trkpt>
      <trkpt lat="43.04074" lon="0.17268">
        <ele>630.31</ele>
        <time>2017-10-31T13:46:22Z</time>
      </trkpt>
      <trkpt lat="43.04075" lon="0.17251">
        <ele>628.77</ele>
        <time>2017-10-31T13:46:28Z</time>
      </trkpt>
      <trkpt lat="43.04086" lon="0.17216">
        <ele>627.59</ele>
        <time>2017-10-31T13:46:35Z</time>
      </trkpt>
      <trkpt lat="43.04091" lon="0.17189">
        <ele>627.18</ele>
        <time>2017-10-31T13:46:40Z</time>
      </trkpt>
      <trkpt lat="43.04094" lon="0.17155">
        <ele>626.43</ele>
        <time>2017-10-31T13:46:46Z</time>
      </trkpt>
      <trkpt lat="43.04102" lon="0.17121">
        <ele>625.88</ele>
        <time>2017-10-31T13:46:52Z</time>
      </trkpt>
      <trkpt lat="43.04113" lon="0.1708">
        <ele>625.23</ele>
        <time>2017-10-31T13:46:59Z</time>
      </trkpt>
      <trkpt lat="43.04127" lon="0.17053">
        <ele>624.68</ele>
        <time>2017-10-31T13:47:04Z</time>
      </trkpt>
      <trkpt lat="43.04158" lon="0.17005">
        <ele>622.22</ele>
        <time>2017-10-31T13:47:12Z</time>
      </trkpt>
      <trkpt lat="43.04162" lon="0.16999">
        <ele>622.01</ele>
        <time>2017-10-31T13:47:13Z</time>
      </trkpt>
      <trkpt lat="43.04179" lon="0.16984">
        <ele>621.16</ele>
        <time>2017-10-31T13:47:17Z</time>
      </trkpt>
      <trkpt lat="43.04191" lon="0.16977">
        <ele>620.72</ele>
        <time>2017-10-31T13:47:20Z</time>
      </trkpt>
      <trkpt lat="43.0421" lon="0.16973">
        <ele>620.38</ele>
        <time>2017-10-31T13:47:24Z</time>
      </trkpt>
      <trkpt lat="43.04241" lon="0.16968">
        <ele>619.75</ele>
        <time>2017-10-31T13:47:31Z</time>
      </trkpt>
      <trkpt lat="43.04268" lon="0.16961">
        <ele>619.43</ele>
        <time>2017-10-31T13:47:39Z</time>
      </trkpt>
      <trkpt lat="43.0429" lon="0.16928">
        <ele>619.29</ele>
        <time>2017-10-31T13:47:48Z</time>
      </trkpt>
      <trkpt lat="43.04317" lon="0.16911">
        <ele>617.63</ele>
        <time>2017-10-31T13:47:53Z</time>
      </trkpt>
      <trkpt lat="43.04367" lon="0.1687">
        <ele>614.28</ele>
        <time>2017-10-31T13:48:02Z</time>
      </trkpt>
      <trkpt lat="43.04425" lon="0.16824">
        <ele>612.15</ele>
        <time>2017-10-31T13:48:12Z</time>
      </trkpt>
      <trkpt lat="43.0449" lon="0.1678">
        <ele>608.19</ele>
        <time>2017-10-31T13:48:24Z</time>
      </trkpt>
      <trkpt lat="43.04551" lon="0.16744">
        <ele>605.18</ele>
        <time>2017-10-31T13:48:34Z</time>
      </trkpt>
      <trkpt lat="43.04636" lon="0.1669">
        <ele>602.77</ele>
        <time>2017-10-31T13:48:49Z</time>
      </trkpt>
      <trkpt lat="43.04713" lon="0.1665">
        <ele>600.05</ele>
        <time>2017-10-31T13:49:02Z</time>
      </trkpt>
      <trkpt lat="43.04782" lon="0.16615">
        <ele>597</ele>
        <time>2017-10-31T13:49:13Z</time>
      </trkpt>
      <trkpt lat="43.04868" lon="0.16597">
        <ele>593.92</ele>
        <time>2017-10-31T13:49:27Z</time>
      </trkpt>
      <trkpt lat="43.04957" lon="0.16581">
        <ele>591.8</ele>
        <time>2017-10-31T13:49:42Z</time>
      </trkpt>
      <trkpt lat="43.05043" lon="0.16572">
        <ele>589.54</ele>
        <time>2017-10-31T13:49:56Z</time>
      </trkpt>
      <trkpt lat="43.05114" lon="0.16569">
        <ele>586.91</ele>
        <time>2017-10-31T13:50:09Z</time>
      </trkpt>
      <trkpt lat="43.05157" lon="0.16572">
        <ele>585.93</ele>
        <time>2017-10-31T13:50:17Z</time>
      </trkpt>
      <trkpt lat="43.05185" lon="0.16567">
        <ele>584.9</ele>
        <time>2017-10-31T13:50:22Z</time>
      </trkpt>
      <trkpt lat="43.0525" lon="0.16522">
        <ele>583.44</ele>
        <time>2017-10-31T13:50:35Z</time>
      </trkpt>
      <trkpt lat="43.05313" lon="0.1647">
        <ele>582.09</ele>
        <time>2017-10-31T13:50:47Z</time>
      </trkpt>
      <trkpt lat="43.05352" lon="0.16433">
        <ele>581.69</ele>
        <time>2017-10-31T13:50:57Z</time>
      </trkpt>
      <trkpt lat="43.05388" lon="0.16389">
        <ele>580.66</ele>
        <time>2017-10-31T13:51:06Z</time>
      </trkpt>
      <trkpt lat="43.05438" lon="0.16336">
        <ele>580.66</ele>
        <time>2017-10-31T13:51:21Z</time>
      </trkpt>
      <trkpt lat="43.0544" lon="0.16333">
        <ele>580.72</ele>
        <time>2017-10-31T13:51:23Z</time>
      </trkpt>
      <trkpt lat="43.05435" lon="0.16275">
        <ele>580.19</ele>
        <time>2017-10-31T13:51:33Z</time>
      </trkpt>
      <trkpt lat="43.05426" lon="0.16196">
        <ele>579.22</ele>
        <time>2017-10-31T13:51:44Z</time>
      </trkpt>
      <trkpt lat="43.05421" lon="0.16156">
        <ele>578.73</ele>
        <time>2017-10-31T13:51:50Z</time>
      </trkpt>
      <trkpt lat="43.05421" lon="0.16136">
        <ele>578.58</ele>
        <time>2017-10-31T13:51:53Z</time>
      </trkpt>
      <trkpt lat="43.05441" lon="0.16118">
        <ele>578.13</ele>
        <time>2017-10-31T13:51:58Z</time>
      </trkpt>
      <trkpt lat="43.05511" lon="0.16109">
        <ele>576.3</ele>
        <time>2017-10-31T13:52:12Z</time>
      </trkpt>
      <trkpt lat="43.05523" lon="0.16107">
        <ele>575.97</ele>
        <time>2017-10-31T13:52:14Z</time>
      </trkpt>
      <trkpt lat="43.05541" lon="0.16099">
        <ele>575.44</ele>
        <time>2017-10-31T13:52:17Z</time>
      </trkpt>
      <trkpt lat="43.05589" lon="0.16061">
        <ele>573.77</ele>
        <time>2017-10-31T13:52:26Z</time>
      </trkpt>
      <trkpt lat="43.05617" lon="0.16031">
        <ele>572.84</ele>
        <time>2017-10-31T13:52:32Z</time>
      </trkpt>
      <trkpt lat="43.05626" lon="0.16021">
        <ele>572.72</ele>
        <time>2017-10-31T13:52:34Z</time>
      </trkpt>
      <trkpt lat="43.05647" lon="0.16012">
        <ele>572.75</ele>
        <time>2017-10-31T13:52:38Z</time>
      </trkpt>
      <trkpt lat="43.05704" lon="0.16015">
        <ele>572.02</ele>
        <time>2017-10-31T13:52:48Z</time>
      </trkpt>
      <trkpt lat="43.05791" lon="0.15987">
        <ele>570.7</ele>
        <time>2017-10-31T13:53:03Z</time>
      </trkpt>
      <trkpt lat="43.05861" lon="0.15948">
        <ele>569.54</ele>
        <time>2017-10-31T13:53:16Z</time>
      </trkpt>
      <trkpt lat="43.05952" lon="0.15903">
        <ele>567.89</ele>
        <time>2017-10-31T13:53:32Z</time>
      </trkpt>
      <trkpt lat="43.06033" lon="0.15882">
        <ele>566</ele>
        <time>2017-10-31T13:53:45Z</time>
      </trkpt>
      <trkpt lat="43.061" lon="0.15863">
        <ele>565.35</ele>
        <time>2017-10-31T13:53:56Z</time>
      </trkpt>
      <trkpt lat="43.06163" lon="0.15839">
        <ele>564.29</ele>
        <time>2017-10-31T13:54:10Z</time>
      </trkpt>
      <trkpt lat="43.06181" lon="0.15848">
        <ele>564.11</ele>
        <time>2017-10-31T13:54:22Z</time>
      </trkpt>
      <trkpt lat="43.06199" lon="0.15852">
        <ele>563.96</ele>
        <time>2017-10-31T13:54:29Z</time>
      </trkpt>
      <trkpt lat="43.06219" lon="0.15857">
        <ele>563.41</ele>
        <time>2017-10-31T13:54:33Z</time>
      </trkpt>
      <trkpt lat="43.0623" lon="0.15863">
        <ele>562.79</ele>
        <time>2017-10-31T13:54:35Z</time>
      </trkpt>
      <trkpt lat="43.06255" lon="0.15864">
        <ele>562.03</ele>
        <time>2017-10-31T13:54:39Z</time>
      </trkpt>
      <trkpt lat="43.06292" lon="0.15851">
        <ele>561.6</ele>
        <time>2017-10-31T13:54:45Z</time>
      </trkpt>
      <trkpt lat="43.0637" lon="0.15844">
        <ele>559.77</ele>
        <time>2017-10-31T13:54:58Z</time>
      </trkpt>
      <trkpt lat="43.06452" lon="0.15818">
        <ele>557.91</ele>
        <time>2017-10-31T13:55:10Z</time>
      </trkpt>
      <trkpt lat="43.06546" lon="0.15807">
        <ele>556.11</ele>
        <time>2017-10-31T13:55:23Z</time>
      </trkpt>
      <trkpt lat="43.06595" lon="0.15804">
        <ele>554.96</ele>
        <time>2017-10-31T13:55:30Z</time>
      </trkpt>
      <trkpt lat="43.06629" lon="0.15807">
        <ele>554.55</ele>
        <time>2017-10-31T13:55:35Z</time>
      </trkpt>
      <trkpt lat="43.06658" lon="0.15822">
        <ele>553.96</ele>
        <time>2017-10-31T13:55:40Z</time>
      </trkpt>
      <trkpt lat="43.06681" lon="0.15837">
        <ele>553.77</ele>
        <time>2017-10-31T13:55:44Z</time>
      </trkpt>
      <trkpt lat="43.06736" lon="0.15833">
        <ele>553.69</ele>
        <time>2017-10-31T13:55:53Z</time>
      </trkpt>
      <trkpt lat="43.06752" lon="0.15817">
        <ele>553.66</ele>
        <time>2017-10-31T13:55:56Z</time>
      </trkpt>
      <trkpt lat="43.06774" lon="0.15796">
        <ele>553.36</ele>
        <time>2017-10-31T13:56:00Z</time>
      </trkpt>
      <trkpt lat="43.06846" lon="0.15762">
        <ele>550.8</ele>
        <time>2017-10-31T13:56:12Z</time>
      </trkpt>
      <trkpt lat="43.0693" lon="0.15731">
        <ele>548.82</ele>
        <time>2017-10-31T13:56:26Z</time>
      </trkpt>
      <trkpt lat="43.06978" lon="0.15713">
        <ele>547.78</ele>
        <time>2017-10-31T13:56:35Z</time>
      </trkpt>
      <trkpt lat="43.06996" lon="0.15697">
        <ele>547.72</ele>
        <time>2017-10-31T13:56:41Z</time>
      </trkpt>
      <trkpt lat="43.07001" lon="0.15692">
        <ele>548.56</ele>
        <time>2017-10-31T13:56:52Z</time>
      </trkpt>
      <trkpt lat="43.07004" lon="0.15691">
        <ele>548.97</ele>
        <time>2017-10-31T13:57:13Z</time>
      </trkpt>
      <trkpt lat="43.07004" lon="0.15691">
        <ele>577.5</ele>
        <time>2017-10-31T13:57:17Z</time>
      </trkpt>
      <trkpt lat="43.07004" lon="0.15691">
        <ele>577.5</ele>
        <time>2017-10-31T13:57:18Z</time>
      </trkpt>
    </trkseg>
  </trk>
</gpx>